<?xml version="1.0" encoding="UTF-8" standalone="no" ?>
<gpx xmlns="http://www.topografix.com/GPX/1/1" xmlns:xsi="http://www.w3.org/2001/XMLSchema-instance" xsi:schemaLocation="http://www.topografix.com/GPX/1/1 http://www.topografix.com/GPX/1/1/gpx.xsd" version="1.1" creator="VisuGPX - https://www.visugpx.com">
  <metadata>
    <name>Banc Plat par le chalet de la Combe</name>
    <desc><![CDATA[Une entréedans le Massif des Bauges avec une vue magnifique sur le lac d'Annecy]]></desc>
  </metadata>
  <trk>
    <name><![CDATA[Trk060]]></name>
    <trkseg>
      <trkpt lat="45.7624" lon="6.19503">
        <ele>675</ele>
        <time>2010-06-13T09:17:44Z</time>
      </trkpt>
      <trkpt lat="45.76247" lon="6.19492">
        <ele>676</ele>
        <time>2010-06-13T09:17:53Z</time>
      </trkpt>
      <trkpt lat="45.76248" lon="6.19479">
        <ele>677</ele>
        <time>2010-06-13T09:18:02Z</time>
      </trkpt>
      <trkpt lat="45.76247" lon="6.19474">
        <ele>678</ele>
        <time>2010-06-13T09:18:06Z</time>
      </trkpt>
      <trkpt lat="45.76244" lon="6.19466">
        <ele>679</ele>
        <time>2010-06-13T09:18:14Z</time>
      </trkpt>
      <trkpt lat="45.76242" lon="6.19463">
        <ele>680</ele>
        <time>2010-06-13T09:18:19Z</time>
      </trkpt>
      <trkpt lat="45.76236" lon="6.19461">
        <ele>681</ele>
        <time>2010-06-13T09:18:27Z</time>
      </trkpt>
      <trkpt lat="45.76233" lon="6.19462">
        <ele>682</ele>
        <time>2010-06-13T09:18:39Z</time>
      </trkpt>
      <trkpt lat="45.76229" lon="6.19467">
        <ele>683</ele>
        <time>2010-06-13T09:18:43Z</time>
      </trkpt>
      <trkpt lat="45.76226" lon="6.19473">
        <ele>684</ele>
        <time>2010-06-13T09:18:48Z</time>
      </trkpt>
      <trkpt lat="45.76224" lon="6.19491">
        <ele>687</ele>
        <time>2010-06-13T09:19:01Z</time>
      </trkpt>
      <trkpt lat="45.76223" lon="6.19509">
        <ele>688</ele>
        <time>2010-06-13T09:19:11Z</time>
      </trkpt>
      <trkpt lat="45.76218" lon="6.19519">
        <ele>688</ele>
        <time>2010-06-13T09:19:18Z</time>
      </trkpt>
      <trkpt lat="45.76207" lon="6.19527">
        <ele>689</ele>
        <time>2010-06-13T09:19:28Z</time>
      </trkpt>
      <trkpt lat="45.76202" lon="6.19529">
        <ele>690</ele>
        <time>2010-06-13T09:19:33Z</time>
      </trkpt>
      <trkpt lat="45.7619" lon="6.19536">
        <ele>690</ele>
        <time>2010-06-13T09:19:42Z</time>
      </trkpt>
      <trkpt lat="45.76184" lon="6.19546">
        <ele>689</ele>
        <time>2010-06-13T09:19:51Z</time>
      </trkpt>
      <trkpt lat="45.76184" lon="6.19558">
        <ele>690</ele>
        <time>2010-06-13T09:19:59Z</time>
      </trkpt>
      <trkpt lat="45.76192" lon="6.19572">
        <ele>689</ele>
        <time>2010-06-13T09:20:10Z</time>
      </trkpt>
      <trkpt lat="45.762" lon="6.19584">
        <ele>689</ele>
        <time>2010-06-13T09:20:20Z</time>
      </trkpt>
      <trkpt lat="45.76209" lon="6.19593">
        <ele>689</ele>
        <time>2010-06-13T09:20:29Z</time>
      </trkpt>
      <trkpt lat="45.76217" lon="6.19602">
        <ele>689</ele>
        <time>2010-06-13T09:20:38Z</time>
      </trkpt>
      <trkpt lat="45.76226" lon="6.1961">
        <ele>689</ele>
        <time>2010-06-13T09:20:46Z</time>
      </trkpt>
      <trkpt lat="45.7623" lon="6.19615">
        <ele>689</ele>
        <time>2010-06-13T09:20:50Z</time>
      </trkpt>
      <trkpt lat="45.76236" lon="6.19626">
        <ele>689</ele>
        <time>2010-06-13T09:20:58Z</time>
      </trkpt>
      <trkpt lat="45.76238" lon="6.19635">
        <ele>688</ele>
        <time>2010-06-13T09:21:04Z</time>
      </trkpt>
      <trkpt lat="45.76243" lon="6.19655">
        <ele>687</ele>
        <time>2010-06-13T09:21:12Z</time>
      </trkpt>
      <trkpt lat="45.76245" lon="6.19656">
        <ele>688</ele>
        <time>2010-06-13T09:21:17Z</time>
      </trkpt>
      <trkpt lat="45.76255" lon="6.19664">
        <ele>688</ele>
        <time>2010-06-13T09:21:25Z</time>
      </trkpt>
      <trkpt lat="45.7626" lon="6.19668">
        <ele>688</ele>
        <time>2010-06-13T09:21:30Z</time>
      </trkpt>
      <trkpt lat="45.76269" lon="6.1968">
        <ele>690</ele>
        <time>2010-06-13T09:21:38Z</time>
      </trkpt>
      <trkpt lat="45.76279" lon="6.19697">
        <ele>691</ele>
        <time>2010-06-13T09:21:47Z</time>
      </trkpt>
      <trkpt lat="45.76283" lon="6.19707">
        <ele>693</ele>
        <time>2010-06-13T09:21:56Z</time>
      </trkpt>
      <trkpt lat="45.76284" lon="6.19724">
        <ele>694</ele>
        <time>2010-06-13T09:22:05Z</time>
      </trkpt>
      <trkpt lat="45.76283" lon="6.19738">
        <ele>695</ele>
        <time>2010-06-13T09:22:15Z</time>
      </trkpt>
      <trkpt lat="45.7628" lon="6.19742">
        <ele>697</ele>
        <time>2010-06-13T09:22:23Z</time>
      </trkpt>
      <trkpt lat="45.76271" lon="6.19739">
        <ele>699</ele>
        <time>2010-06-13T09:22:32Z</time>
      </trkpt>
      <trkpt lat="45.76266" lon="6.19739">
        <ele>699</ele>
        <time>2010-06-13T09:22:36Z</time>
      </trkpt>
      <trkpt lat="45.76257" lon="6.19737">
        <ele>700</ele>
        <time>2010-06-13T09:22:42Z</time>
      </trkpt>
      <trkpt lat="45.76246" lon="6.19739">
        <ele>702</ele>
        <time>2010-06-13T09:22:53Z</time>
      </trkpt>
      <trkpt lat="45.76239" lon="6.19742">
        <ele>702</ele>
        <time>2010-06-13T09:23:01Z</time>
      </trkpt>
      <trkpt lat="45.76232" lon="6.19742">
        <ele>703</ele>
        <time>2010-06-13T09:23:09Z</time>
      </trkpt>
      <trkpt lat="45.76224" lon="6.19744">
        <ele>704</ele>
        <time>2010-06-13T09:23:17Z</time>
      </trkpt>
      <trkpt lat="45.7622" lon="6.19743">
        <ele>705</ele>
        <time>2010-06-13T09:23:22Z</time>
      </trkpt>
      <trkpt lat="45.7621" lon="6.19742">
        <ele>705</ele>
        <time>2010-06-13T09:23:29Z</time>
      </trkpt>
      <trkpt lat="45.76195" lon="6.19742">
        <ele>706</ele>
        <time>2010-06-13T09:23:38Z</time>
      </trkpt>
      <trkpt lat="45.76188" lon="6.19738">
        <ele>708</ele>
        <time>2010-06-13T09:23:46Z</time>
      </trkpt>
      <trkpt lat="45.76184" lon="6.19734">
        <ele>708</ele>
        <time>2010-06-13T09:23:53Z</time>
      </trkpt>
      <trkpt lat="45.7618" lon="6.19732">
        <ele>709</ele>
        <time>2010-06-13T09:23:59Z</time>
      </trkpt>
      <trkpt lat="45.76174" lon="6.19726">
        <ele>711</ele>
        <time>2010-06-13T09:24:06Z</time>
      </trkpt>
      <trkpt lat="45.76163" lon="6.19723">
        <ele>712</ele>
        <time>2010-06-13T09:24:14Z</time>
      </trkpt>
      <trkpt lat="45.76151" lon="6.19719">
        <ele>713</ele>
        <time>2010-06-13T09:24:23Z</time>
      </trkpt>
      <trkpt lat="45.76143" lon="6.19714">
        <ele>715</ele>
        <time>2010-06-13T09:24:32Z</time>
      </trkpt>
      <trkpt lat="45.76134" lon="6.19706">
        <ele>716</ele>
        <time>2010-06-13T09:24:42Z</time>
      </trkpt>
      <trkpt lat="45.7613" lon="6.19701">
        <ele>717</ele>
        <time>2010-06-13T09:24:48Z</time>
      </trkpt>
      <trkpt lat="45.76123" lon="6.19695">
        <ele>719</ele>
        <time>2010-06-13T09:24:56Z</time>
      </trkpt>
      <trkpt lat="45.76114" lon="6.1969">
        <ele>721</ele>
        <time>2010-06-13T09:25:07Z</time>
      </trkpt>
      <trkpt lat="45.761" lon="6.1969">
        <ele>723</ele>
        <time>2010-06-13T09:25:19Z</time>
      </trkpt>
      <trkpt lat="45.76093" lon="6.1969">
        <ele>724</ele>
        <time>2010-06-13T09:25:28Z</time>
      </trkpt>
      <trkpt lat="45.76083" lon="6.19691">
        <ele>726</ele>
        <time>2010-06-13T09:25:37Z</time>
      </trkpt>
      <trkpt lat="45.76075" lon="6.19688">
        <ele>727</ele>
        <time>2010-06-13T09:25:45Z</time>
      </trkpt>
      <trkpt lat="45.76067" lon="6.19683">
        <ele>729</ele>
        <time>2010-06-13T09:25:54Z</time>
      </trkpt>
      <trkpt lat="45.76059" lon="6.19677">
        <ele>731</ele>
        <time>2010-06-13T09:26:04Z</time>
      </trkpt>
      <trkpt lat="45.76051" lon="6.19671">
        <ele>732</ele>
        <time>2010-06-13T09:26:13Z</time>
      </trkpt>
      <trkpt lat="45.76042" lon="6.19662">
        <ele>734</ele>
        <time>2010-06-13T09:26:23Z</time>
      </trkpt>
      <trkpt lat="45.76031" lon="6.19657">
        <ele>736</ele>
        <time>2010-06-13T09:26:34Z</time>
      </trkpt>
      <trkpt lat="45.76021" lon="6.1965">
        <ele>737</ele>
        <time>2010-06-13T09:26:45Z</time>
      </trkpt>
      <trkpt lat="45.76012" lon="6.19649">
        <ele>737</ele>
        <time>2010-06-13T09:26:55Z</time>
      </trkpt>
      <trkpt lat="45.76012" lon="6.19652">
        <ele>738</ele>
        <time>2010-06-13T09:26:59Z</time>
      </trkpt>
      <trkpt lat="45.76018" lon="6.19664">
        <ele>739</ele>
        <time>2010-06-13T09:27:10Z</time>
      </trkpt>
      <trkpt lat="45.76026" lon="6.19675">
        <ele>740</ele>
        <time>2010-06-13T09:27:21Z</time>
      </trkpt>
      <trkpt lat="45.76029" lon="6.19695">
        <ele>742</ele>
        <time>2010-06-13T09:27:34Z</time>
      </trkpt>
      <trkpt lat="45.76022" lon="6.19708">
        <ele>744</ele>
        <time>2010-06-13T09:27:44Z</time>
      </trkpt>
      <trkpt lat="45.76009" lon="6.19715">
        <ele>746</ele>
        <time>2010-06-13T09:27:56Z</time>
      </trkpt>
      <trkpt lat="45.76" lon="6.19717">
        <ele>748</ele>
        <time>2010-06-13T09:28:05Z</time>
      </trkpt>
      <trkpt lat="45.75995" lon="6.19721">
        <ele>749</ele>
        <time>2010-06-13T09:28:13Z</time>
      </trkpt>
      <trkpt lat="45.75991" lon="6.19727">
        <ele>750</ele>
        <time>2010-06-13T09:28:20Z</time>
      </trkpt>
      <trkpt lat="45.75985" lon="6.19733">
        <ele>751</ele>
        <time>2010-06-13T09:28:27Z</time>
      </trkpt>
      <trkpt lat="45.75979" lon="6.19742">
        <ele>752</ele>
        <time>2010-06-13T09:28:35Z</time>
      </trkpt>
      <trkpt lat="45.7598" lon="6.19758">
        <ele>752</ele>
        <time>2010-06-13T09:28:45Z</time>
      </trkpt>
      <trkpt lat="45.75986" lon="6.19776">
        <ele>754</ele>
        <time>2010-06-13T09:28:57Z</time>
      </trkpt>
      <trkpt lat="45.75988" lon="6.19793">
        <ele>756</ele>
        <time>2010-06-13T09:29:08Z</time>
      </trkpt>
      <trkpt lat="45.75989" lon="6.19797">
        <ele>756</ele>
        <time>2010-06-13T09:29:11Z</time>
      </trkpt>
      <trkpt lat="45.75986" lon="6.198">
        <ele>756</ele>
        <time>2010-06-13T09:29:13Z</time>
      </trkpt>
      <trkpt lat="45.7598" lon="6.19801">
        <ele>756</ele>
        <time>2010-06-13T09:29:18Z</time>
      </trkpt>
      <trkpt lat="45.75974" lon="6.19792">
        <ele>757</ele>
        <time>2010-06-13T09:29:27Z</time>
      </trkpt>
      <trkpt lat="45.7596" lon="6.19782">
        <ele>759</ele>
        <time>2010-06-13T09:29:39Z</time>
      </trkpt>
      <trkpt lat="45.7595" lon="6.19777">
        <ele>759</ele>
        <time>2010-06-13T09:29:48Z</time>
      </trkpt>
      <trkpt lat="45.75941" lon="6.19767">
        <ele>760</ele>
        <time>2010-06-13T09:29:56Z</time>
      </trkpt>
      <trkpt lat="45.75931" lon="6.19757">
        <ele>761</ele>
        <time>2010-06-13T09:30:04Z</time>
      </trkpt>
      <trkpt lat="45.7593" lon="6.19743">
        <ele>762</ele>
        <time>2010-06-13T09:30:12Z</time>
      </trkpt>
      <trkpt lat="45.75928" lon="6.19731">
        <ele>764</ele>
        <time>2010-06-13T09:30:21Z</time>
      </trkpt>
      <trkpt lat="45.75928" lon="6.19715">
        <ele>765</ele>
        <time>2010-06-13T09:30:30Z</time>
      </trkpt>
      <trkpt lat="45.75927" lon="6.19695">
        <ele>767</ele>
        <time>2010-06-13T09:30:41Z</time>
      </trkpt>
      <trkpt lat="45.75922" lon="6.19683">
        <ele>769</ele>
        <time>2010-06-13T09:30:51Z</time>
      </trkpt>
      <trkpt lat="45.75917" lon="6.19685">
        <ele>771</ele>
        <time>2010-06-13T09:31:00Z</time>
      </trkpt>
      <trkpt lat="45.75916" lon="6.19691">
        <ele>772</ele>
        <time>2010-06-13T09:31:06Z</time>
      </trkpt>
      <trkpt lat="45.75916" lon="6.19697">
        <ele>773</ele>
        <time>2010-06-13T09:31:10Z</time>
      </trkpt>
      <trkpt lat="45.75911" lon="6.19707">
        <ele>774</ele>
        <time>2010-06-13T09:31:19Z</time>
      </trkpt>
      <trkpt lat="45.75908" lon="6.19713">
        <ele>775</ele>
        <time>2010-06-13T09:31:27Z</time>
      </trkpt>
      <trkpt lat="45.75907" lon="6.19719">
        <ele>777</ele>
        <time>2010-06-13T09:31:35Z</time>
      </trkpt>
      <trkpt lat="45.75904" lon="6.19723">
        <ele>778</ele>
        <time>2010-06-13T09:31:41Z</time>
      </trkpt>
      <trkpt lat="45.75898" lon="6.19731">
        <ele>780</ele>
        <time>2010-06-13T09:31:51Z</time>
      </trkpt>
      <trkpt lat="45.75893" lon="6.19737">
        <ele>782</ele>
        <time>2010-06-13T09:32:00Z</time>
      </trkpt>
      <trkpt lat="45.75888" lon="6.19744">
        <ele>783</ele>
        <time>2010-06-13T09:32:07Z</time>
      </trkpt>
      <trkpt lat="45.75879" lon="6.19751">
        <ele>785</ele>
        <time>2010-06-13T09:32:17Z</time>
      </trkpt>
      <trkpt lat="45.75881" lon="6.19758">
        <ele>785</ele>
        <time>2010-06-13T09:32:24Z</time>
      </trkpt>
      <trkpt lat="45.75874" lon="6.19765">
        <ele>786</ele>
        <time>2010-06-13T09:32:31Z</time>
      </trkpt>
      <trkpt lat="45.7586" lon="6.19769">
        <ele>788</ele>
        <time>2010-06-13T09:32:39Z</time>
      </trkpt>
      <trkpt lat="45.75853" lon="6.19766">
        <ele>789</ele>
        <time>2010-06-13T09:32:45Z</time>
      </trkpt>
      <trkpt lat="45.75854" lon="6.19754">
        <ele>790</ele>
        <time>2010-06-13T09:32:53Z</time>
      </trkpt>
      <trkpt lat="45.75855" lon="6.19752">
        <ele>790</ele>
        <time>2010-06-13T09:32:54Z</time>
      </trkpt>
      <trkpt lat="45.75854" lon="6.1974">
        <ele>791</ele>
        <time>2010-06-13T09:33:03Z</time>
      </trkpt>
      <trkpt lat="45.75854" lon="6.1973">
        <ele>792</ele>
        <time>2010-06-13T09:33:11Z</time>
      </trkpt>
      <trkpt lat="45.75854" lon="6.19725">
        <ele>793</ele>
        <time>2010-06-13T09:33:16Z</time>
      </trkpt>
      <trkpt lat="45.75852" lon="6.19716">
        <ele>794</ele>
        <time>2010-06-13T09:33:22Z</time>
      </trkpt>
      <trkpt lat="45.7585" lon="6.19701">
        <ele>795</ele>
        <time>2010-06-13T09:33:30Z</time>
      </trkpt>
      <trkpt lat="45.7585" lon="6.19689">
        <ele>796</ele>
        <time>2010-06-13T09:33:37Z</time>
      </trkpt>
      <trkpt lat="45.75847" lon="6.19681">
        <ele>797</ele>
        <time>2010-06-13T09:33:44Z</time>
      </trkpt>
      <trkpt lat="45.75842" lon="6.19674">
        <ele>799</ele>
        <time>2010-06-13T09:33:53Z</time>
      </trkpt>
      <trkpt lat="45.75835" lon="6.1967">
        <ele>800</ele>
        <time>2010-06-13T09:34:00Z</time>
      </trkpt>
      <trkpt lat="45.7583" lon="6.19668">
        <ele>800</ele>
        <time>2010-06-13T09:34:07Z</time>
      </trkpt>
      <trkpt lat="45.75827" lon="6.19663">
        <ele>801</ele>
        <time>2010-06-13T09:34:14Z</time>
      </trkpt>
      <trkpt lat="45.75824" lon="6.19658">
        <ele>803</ele>
        <time>2010-06-13T09:34:19Z</time>
      </trkpt>
      <trkpt lat="45.75823" lon="6.19657">
        <ele>803</ele>
        <time>2010-06-13T09:34:20Z</time>
      </trkpt>
      <trkpt lat="45.75817" lon="6.19654">
        <ele>805</ele>
        <time>2010-06-13T09:34:24Z</time>
      </trkpt>
      <trkpt lat="45.7581" lon="6.19646">
        <ele>805</ele>
        <time>2010-06-13T09:34:31Z</time>
      </trkpt>
      <trkpt lat="45.75806" lon="6.19642">
        <ele>807</ele>
        <time>2010-06-13T09:34:37Z</time>
      </trkpt>
      <trkpt lat="45.75802" lon="6.1964">
        <ele>808</ele>
        <time>2010-06-13T09:34:44Z</time>
      </trkpt>
      <trkpt lat="45.75796" lon="6.19637">
        <ele>809</ele>
        <time>2010-06-13T09:34:51Z</time>
      </trkpt>
      <trkpt lat="45.75792" lon="6.19638">
        <ele>811</ele>
        <time>2010-06-13T09:34:57Z</time>
      </trkpt>
      <trkpt lat="45.75783" lon="6.19636">
        <ele>811</ele>
        <time>2010-06-13T09:35:04Z</time>
      </trkpt>
      <trkpt lat="45.75777" lon="6.19629">
        <ele>811</ele>
        <time>2010-06-13T09:35:10Z</time>
      </trkpt>
      <trkpt lat="45.75772" lon="6.19622">
        <ele>812</ele>
        <time>2010-06-13T09:35:17Z</time>
      </trkpt>
      <trkpt lat="45.75766" lon="6.19618">
        <ele>813</ele>
        <time>2010-06-13T09:35:24Z</time>
      </trkpt>
      <trkpt lat="45.75761" lon="6.19618">
        <ele>815</ele>
        <time>2010-06-13T09:35:34Z</time>
      </trkpt>
      <trkpt lat="45.75756" lon="6.19615">
        <ele>815</ele>
        <time>2010-06-13T09:35:41Z</time>
      </trkpt>
      <trkpt lat="45.75749" lon="6.1961">
        <ele>816</ele>
        <time>2010-06-13T09:35:48Z</time>
      </trkpt>
      <trkpt lat="45.75744" lon="6.19602">
        <ele>817</ele>
        <time>2010-06-13T09:35:54Z</time>
      </trkpt>
      <trkpt lat="45.75743" lon="6.19595">
        <ele>818</ele>
        <time>2010-06-13T09:36:01Z</time>
      </trkpt>
      <trkpt lat="45.75738" lon="6.19588">
        <ele>818</ele>
        <time>2010-06-13T09:36:07Z</time>
      </trkpt>
      <trkpt lat="45.75736" lon="6.19581">
        <ele>820</ele>
        <time>2010-06-13T09:36:13Z</time>
      </trkpt>
      <trkpt lat="45.75738" lon="6.19563">
        <ele>822</ele>
        <time>2010-06-13T09:36:24Z</time>
      </trkpt>
      <trkpt lat="45.75741" lon="6.19553">
        <ele>823</ele>
        <time>2010-06-13T09:36:32Z</time>
      </trkpt>
      <trkpt lat="45.75748" lon="6.19546">
        <ele>824</ele>
        <time>2010-06-13T09:36:39Z</time>
      </trkpt>
      <trkpt lat="45.75755" lon="6.1954">
        <ele>824</ele>
        <time>2010-06-13T09:36:47Z</time>
      </trkpt>
      <trkpt lat="45.75756" lon="6.19539">
        <ele>825</ele>
        <time>2010-06-13T09:36:53Z</time>
      </trkpt>
      <trkpt lat="45.75762" lon="6.19528">
        <ele>825</ele>
        <time>2010-06-13T09:37:04Z</time>
      </trkpt>
      <trkpt lat="45.75768" lon="6.19519">
        <ele>827</ele>
        <time>2010-06-13T09:37:12Z</time>
      </trkpt>
      <trkpt lat="45.75767" lon="6.19517">
        <ele>828</ele>
        <time>2010-06-13T09:37:19Z</time>
      </trkpt>
      <trkpt lat="45.75762" lon="6.19519">
        <ele>829</ele>
        <time>2010-06-13T09:37:26Z</time>
      </trkpt>
      <trkpt lat="45.75754" lon="6.19522">
        <ele>830</ele>
        <time>2010-06-13T09:37:36Z</time>
      </trkpt>
      <trkpt lat="45.75748" lon="6.19525">
        <ele>831</ele>
        <time>2010-06-13T09:37:44Z</time>
      </trkpt>
      <trkpt lat="45.75744" lon="6.19525">
        <ele>832</ele>
        <time>2010-06-13T09:37:51Z</time>
      </trkpt>
      <trkpt lat="45.75738" lon="6.19524">
        <ele>833</ele>
        <time>2010-06-13T09:37:58Z</time>
      </trkpt>
      <trkpt lat="45.75731" lon="6.19526">
        <ele>834</ele>
        <time>2010-06-13T09:38:05Z</time>
      </trkpt>
      <trkpt lat="45.75728" lon="6.19528">
        <ele>836</ele>
        <time>2010-06-13T09:38:13Z</time>
      </trkpt>
      <trkpt lat="45.75724" lon="6.19533">
        <ele>837</ele>
        <time>2010-06-13T09:38:19Z</time>
      </trkpt>
      <trkpt lat="45.75721" lon="6.19533">
        <ele>838</ele>
        <time>2010-06-13T09:38:24Z</time>
      </trkpt>
      <trkpt lat="45.75716" lon="6.19535">
        <ele>839</ele>
        <time>2010-06-13T09:38:29Z</time>
      </trkpt>
      <trkpt lat="45.75711" lon="6.19536">
        <ele>841</ele>
        <time>2010-06-13T09:38:37Z</time>
      </trkpt>
      <trkpt lat="45.75704" lon="6.19531">
        <ele>841</ele>
        <time>2010-06-13T09:38:44Z</time>
      </trkpt>
      <trkpt lat="45.75703" lon="6.19524">
        <ele>842</ele>
        <time>2010-06-13T09:38:51Z</time>
      </trkpt>
      <trkpt lat="45.75702" lon="6.19517">
        <ele>844</ele>
        <time>2010-06-13T09:38:57Z</time>
      </trkpt>
      <trkpt lat="45.757" lon="6.19509">
        <ele>844</ele>
        <time>2010-06-13T09:39:03Z</time>
      </trkpt>
      <trkpt lat="45.75697" lon="6.19498">
        <ele>845</ele>
        <time>2010-06-13T09:39:11Z</time>
      </trkpt>
      <trkpt lat="45.75699" lon="6.19489">
        <ele>846</ele>
        <time>2010-06-13T09:39:19Z</time>
      </trkpt>
      <trkpt lat="45.75699" lon="6.19479">
        <ele>847</ele>
        <time>2010-06-13T09:39:27Z</time>
      </trkpt>
      <trkpt lat="45.75699" lon="6.19479">
        <ele>848</ele>
        <time>2010-06-13T09:39:34Z</time>
      </trkpt>
      <trkpt lat="45.75697" lon="6.19483">
        <ele>849</ele>
        <time>2010-06-13T09:39:40Z</time>
      </trkpt>
      <trkpt lat="45.75695" lon="6.19489">
        <ele>850</ele>
        <time>2010-06-13T09:39:47Z</time>
      </trkpt>
      <trkpt lat="45.75691" lon="6.19493">
        <ele>850</ele>
        <time>2010-06-13T09:39:52Z</time>
      </trkpt>
      <trkpt lat="45.75688" lon="6.19498">
        <ele>851</ele>
        <time>2010-06-13T09:39:59Z</time>
      </trkpt>
      <trkpt lat="45.75686" lon="6.19499">
        <ele>851</ele>
        <time>2010-06-13T09:40:01Z</time>
      </trkpt>
      <trkpt lat="45.75679" lon="6.19502">
        <ele>852</ele>
        <time>2010-06-13T09:40:08Z</time>
      </trkpt>
      <trkpt lat="45.75673" lon="6.19507">
        <ele>853</ele>
        <time>2010-06-13T09:40:15Z</time>
      </trkpt>
      <trkpt lat="45.75669" lon="6.1951">
        <ele>855</ele>
        <time>2010-06-13T09:40:22Z</time>
      </trkpt>
      <trkpt lat="45.75663" lon="6.19513">
        <ele>855</ele>
        <time>2010-06-13T09:40:28Z</time>
      </trkpt>
      <trkpt lat="45.75659" lon="6.1952">
        <ele>857</ele>
        <time>2010-06-13T09:40:40Z</time>
      </trkpt>
      <trkpt lat="45.75652" lon="6.19523">
        <ele>858</ele>
        <time>2010-06-13T09:40:48Z</time>
      </trkpt>
      <trkpt lat="45.75643" lon="6.19519">
        <ele>859</ele>
        <time>2010-06-13T09:40:56Z</time>
      </trkpt>
      <trkpt lat="45.75639" lon="6.19515">
        <ele>860</ele>
        <time>2010-06-13T09:41:03Z</time>
      </trkpt>
      <trkpt lat="45.75636" lon="6.19507">
        <ele>861</ele>
        <time>2010-06-13T09:41:14Z</time>
      </trkpt>
      <trkpt lat="45.75635" lon="6.19499">
        <ele>862</ele>
        <time>2010-06-13T09:41:22Z</time>
      </trkpt>
      <trkpt lat="45.75639" lon="6.19487">
        <ele>864</ele>
        <time>2010-06-13T09:41:32Z</time>
      </trkpt>
      <trkpt lat="45.75644" lon="6.19479">
        <ele>865</ele>
        <time>2010-06-13T09:41:38Z</time>
      </trkpt>
      <trkpt lat="45.75645" lon="6.19474">
        <ele>866</ele>
        <time>2010-06-13T09:41:45Z</time>
      </trkpt>
      <trkpt lat="45.75647" lon="6.19467">
        <ele>867</ele>
        <time>2010-06-13T09:41:52Z</time>
      </trkpt>
      <trkpt lat="45.75648" lon="6.19454">
        <ele>868</ele>
        <time>2010-06-13T09:42:00Z</time>
      </trkpt>
      <trkpt lat="45.7565" lon="6.1944">
        <ele>868</ele>
        <time>2010-06-13T09:42:07Z</time>
      </trkpt>
      <trkpt lat="45.75651" lon="6.19435">
        <ele>869</ele>
        <time>2010-06-13T09:42:11Z</time>
      </trkpt>
      <trkpt lat="45.7565" lon="6.19418">
        <ele>872</ele>
        <time>2010-06-13T09:42:22Z</time>
      </trkpt>
      <trkpt lat="45.7565" lon="6.19405">
        <ele>873</ele>
        <time>2010-06-13T09:42:30Z</time>
      </trkpt>
      <trkpt lat="45.75649" lon="6.19388">
        <ele>873</ele>
        <time>2010-06-13T09:42:41Z</time>
      </trkpt>
      <trkpt lat="45.75645" lon="6.19374">
        <ele>875</ele>
        <time>2010-06-13T09:42:52Z</time>
      </trkpt>
      <trkpt lat="45.7564" lon="6.19363">
        <ele>875</ele>
        <time>2010-06-13T09:43:02Z</time>
      </trkpt>
      <trkpt lat="45.75639" lon="6.19362">
        <ele>875</ele>
        <time>2010-06-13T09:43:04Z</time>
      </trkpt>
      <trkpt lat="45.75632" lon="6.19353">
        <ele>876</ele>
        <time>2010-06-13T09:43:14Z</time>
      </trkpt>
      <trkpt lat="45.75627" lon="6.19346">
        <ele>877</ele>
        <time>2010-06-13T09:43:21Z</time>
      </trkpt>
      <trkpt lat="45.75621" lon="6.19336">
        <ele>878</ele>
        <time>2010-06-13T09:43:30Z</time>
      </trkpt>
      <trkpt lat="45.75617" lon="6.19331">
        <ele>880</ele>
        <time>2010-06-13T09:43:37Z</time>
      </trkpt>
      <trkpt lat="45.7561" lon="6.19323">
        <ele>881</ele>
        <time>2010-06-13T09:43:46Z</time>
      </trkpt>
      <trkpt lat="45.75603" lon="6.19315">
        <ele>882</ele>
        <time>2010-06-13T09:43:56Z</time>
      </trkpt>
      <trkpt lat="45.75596" lon="6.19306">
        <ele>884</ele>
        <time>2010-06-13T09:44:04Z</time>
      </trkpt>
      <trkpt lat="45.75587" lon="6.19296">
        <ele>886</ele>
        <time>2010-06-13T09:44:15Z</time>
      </trkpt>
      <trkpt lat="45.75578" lon="6.1929">
        <ele>887</ele>
        <time>2010-06-13T09:44:25Z</time>
      </trkpt>
      <trkpt lat="45.75568" lon="6.19287">
        <ele>889</ele>
        <time>2010-06-13T09:44:35Z</time>
      </trkpt>
      <trkpt lat="45.7556" lon="6.19288">
        <ele>889</ele>
        <time>2010-06-13T09:44:44Z</time>
      </trkpt>
      <trkpt lat="45.75553" lon="6.19287">
        <ele>892</ele>
        <time>2010-06-13T09:44:52Z</time>
      </trkpt>
      <trkpt lat="45.75544" lon="6.19286">
        <ele>893</ele>
        <time>2010-06-13T09:45:02Z</time>
      </trkpt>
      <trkpt lat="45.75541" lon="6.19291">
        <ele>895</ele>
        <time>2010-06-13T09:45:11Z</time>
      </trkpt>
      <trkpt lat="45.75543" lon="6.19299">
        <ele>896</ele>
        <time>2010-06-13T09:45:19Z</time>
      </trkpt>
      <trkpt lat="45.75548" lon="6.19308">
        <ele>898</ele>
        <time>2010-06-13T09:45:29Z</time>
      </trkpt>
      <trkpt lat="45.75552" lon="6.19319">
        <ele>899</ele>
        <time>2010-06-13T09:45:37Z</time>
      </trkpt>
      <trkpt lat="45.75555" lon="6.19324">
        <ele>900</ele>
        <time>2010-06-13T09:45:44Z</time>
      </trkpt>
      <trkpt lat="45.75558" lon="6.19333">
        <ele>901</ele>
        <time>2010-06-13T09:45:53Z</time>
      </trkpt>
      <trkpt lat="45.75564" lon="6.19345">
        <ele>902</ele>
        <time>2010-06-13T09:46:03Z</time>
      </trkpt>
      <trkpt lat="45.75567" lon="6.1935">
        <ele>903</ele>
        <time>2010-06-13T09:46:09Z</time>
      </trkpt>
      <trkpt lat="45.75573" lon="6.19365">
        <ele>905</ele>
        <time>2010-06-13T09:46:20Z</time>
      </trkpt>
      <trkpt lat="45.75574" lon="6.19374">
        <ele>906</ele>
        <time>2010-06-13T09:46:27Z</time>
      </trkpt>
      <trkpt lat="45.75573" lon="6.19382">
        <ele>906</ele>
        <time>2010-06-13T09:46:33Z</time>
      </trkpt>
      <trkpt lat="45.75571" lon="6.19392">
        <ele>908</ele>
        <time>2010-06-13T09:46:41Z</time>
      </trkpt>
      <trkpt lat="45.7557" lon="6.19396">
        <ele>909</ele>
        <time>2010-06-13T09:46:46Z</time>
      </trkpt>
      <trkpt lat="45.75566" lon="6.19404">
        <ele>910</ele>
        <time>2010-06-13T09:46:52Z</time>
      </trkpt>
      <trkpt lat="45.7556" lon="6.19413">
        <ele>909</ele>
        <time>2010-06-13T09:46:59Z</time>
      </trkpt>
      <trkpt lat="45.75557" lon="6.19419">
        <ele>910</ele>
        <time>2010-06-13T09:47:04Z</time>
      </trkpt>
      <trkpt lat="45.75553" lon="6.19426">
        <ele>910</ele>
        <time>2010-06-13T09:47:11Z</time>
      </trkpt>
      <trkpt lat="45.75549" lon="6.19432">
        <ele>911</ele>
        <time>2010-06-13T09:47:17Z</time>
      </trkpt>
      <trkpt lat="45.75545" lon="6.19441">
        <ele>912</ele>
        <time>2010-06-13T09:47:25Z</time>
      </trkpt>
      <trkpt lat="45.75541" lon="6.19449">
        <ele>914</ele>
        <time>2010-06-13T09:47:32Z</time>
      </trkpt>
      <trkpt lat="45.75536" lon="6.19458">
        <ele>916</ele>
        <time>2010-06-13T09:47:42Z</time>
      </trkpt>
      <trkpt lat="45.75534" lon="6.19466">
        <ele>916</ele>
        <time>2010-06-13T09:47:49Z</time>
      </trkpt>
      <trkpt lat="45.75528" lon="6.19474">
        <ele>918</ele>
        <time>2010-06-13T09:47:56Z</time>
      </trkpt>
      <trkpt lat="45.75523" lon="6.19484">
        <ele>920</ele>
        <time>2010-06-13T09:48:05Z</time>
      </trkpt>
      <trkpt lat="45.75519" lon="6.19491">
        <ele>921</ele>
        <time>2010-06-13T09:48:12Z</time>
      </trkpt>
      <trkpt lat="45.75513" lon="6.195">
        <ele>921</ele>
        <time>2010-06-13T09:48:20Z</time>
      </trkpt>
      <trkpt lat="45.7551" lon="6.19505">
        <ele>922</ele>
        <time>2010-06-13T09:48:26Z</time>
      </trkpt>
      <trkpt lat="45.75506" lon="6.19514">
        <ele>923</ele>
        <time>2010-06-13T09:48:34Z</time>
      </trkpt>
      <trkpt lat="45.75499" lon="6.19523">
        <ele>924</ele>
        <time>2010-06-13T09:48:42Z</time>
      </trkpt>
      <trkpt lat="45.75495" lon="6.19531">
        <ele>926</ele>
        <time>2010-06-13T09:48:50Z</time>
      </trkpt>
      <trkpt lat="45.75489" lon="6.19539">
        <ele>927</ele>
        <time>2010-06-13T09:48:58Z</time>
      </trkpt>
      <trkpt lat="45.75483" lon="6.19543">
        <ele>928</ele>
        <time>2010-06-13T09:49:05Z</time>
      </trkpt>
      <trkpt lat="45.75472" lon="6.19551">
        <ele>929</ele>
        <time>2010-06-13T09:49:13Z</time>
      </trkpt>
      <trkpt lat="45.75467" lon="6.19558">
        <ele>930</ele>
        <time>2010-06-13T09:49:21Z</time>
      </trkpt>
      <trkpt lat="45.75463" lon="6.19566">
        <ele>932</ele>
        <time>2010-06-13T09:49:31Z</time>
      </trkpt>
      <trkpt lat="45.75456" lon="6.19572">
        <ele>934</ele>
        <time>2010-06-13T09:49:38Z</time>
      </trkpt>
      <trkpt lat="45.75451" lon="6.19577">
        <ele>933</ele>
        <time>2010-06-13T09:49:44Z</time>
      </trkpt>
      <trkpt lat="45.75447" lon="6.19582">
        <ele>934</ele>
        <time>2010-06-13T09:49:50Z</time>
      </trkpt>
      <trkpt lat="45.75446" lon="6.19585">
        <ele>935</ele>
        <time>2010-06-13T09:49:52Z</time>
      </trkpt>
      <trkpt lat="45.75442" lon="6.19592">
        <ele>936</ele>
        <time>2010-06-13T09:49:59Z</time>
      </trkpt>
      <trkpt lat="45.75436" lon="6.19598">
        <ele>937</ele>
        <time>2010-06-13T09:50:08Z</time>
      </trkpt>
      <trkpt lat="45.7543" lon="6.19608">
        <ele>938</ele>
        <time>2010-06-13T09:50:17Z</time>
      </trkpt>
      <trkpt lat="45.75427" lon="6.19618">
        <ele>939</ele>
        <time>2010-06-13T09:50:26Z</time>
      </trkpt>
      <trkpt lat="45.75421" lon="6.1963">
        <ele>940</ele>
        <time>2010-06-13T09:50:35Z</time>
      </trkpt>
      <trkpt lat="45.75416" lon="6.19639">
        <ele>941</ele>
        <time>2010-06-13T09:50:44Z</time>
      </trkpt>
      <trkpt lat="45.75413" lon="6.19647">
        <ele>942</ele>
        <time>2010-06-13T09:50:51Z</time>
      </trkpt>
      <trkpt lat="45.75408" lon="6.19654">
        <ele>943</ele>
        <time>2010-06-13T09:50:58Z</time>
      </trkpt>
      <trkpt lat="45.754" lon="6.1966">
        <ele>944</ele>
        <time>2010-06-13T09:51:06Z</time>
      </trkpt>
      <trkpt lat="45.75399" lon="6.19658">
        <ele>945</ele>
        <time>2010-06-13T09:51:11Z</time>
      </trkpt>
      <trkpt lat="45.75396" lon="6.19652">
        <ele>946</ele>
        <time>2010-06-13T09:51:18Z</time>
      </trkpt>
      <trkpt lat="45.75396" lon="6.19639">
        <ele>948</ele>
        <time>2010-06-13T09:51:28Z</time>
      </trkpt>
      <trkpt lat="45.75395" lon="6.19628">
        <ele>948</ele>
        <time>2010-06-13T09:51:36Z</time>
      </trkpt>
      <trkpt lat="45.75392" lon="6.19618">
        <ele>950</ele>
        <time>2010-06-13T09:51:45Z</time>
      </trkpt>
      <trkpt lat="45.75392" lon="6.19616">
        <ele>950</ele>
        <time>2010-06-13T09:51:46Z</time>
      </trkpt>
      <trkpt lat="45.75389" lon="6.1961">
        <ele>951</ele>
        <time>2010-06-13T09:51:53Z</time>
      </trkpt>
      <trkpt lat="45.7539" lon="6.19601">
        <ele>952</ele>
        <time>2010-06-13T09:52:01Z</time>
      </trkpt>
      <trkpt lat="45.75395" lon="6.19593">
        <ele>953</ele>
        <time>2010-06-13T09:52:09Z</time>
      </trkpt>
      <trkpt lat="45.75395" lon="6.19586">
        <ele>953</ele>
        <time>2010-06-13T09:52:15Z</time>
      </trkpt>
      <trkpt lat="45.75396" lon="6.19577">
        <ele>954</ele>
        <time>2010-06-13T09:52:22Z</time>
      </trkpt>
      <trkpt lat="45.75398" lon="6.19569">
        <ele>955</ele>
        <time>2010-06-13T09:52:28Z</time>
      </trkpt>
      <trkpt lat="45.754" lon="6.19561">
        <ele>956</ele>
        <time>2010-06-13T09:52:36Z</time>
      </trkpt>
      <trkpt lat="45.75404" lon="6.19554">
        <ele>957</ele>
        <time>2010-06-13T09:52:42Z</time>
      </trkpt>
      <trkpt lat="45.75407" lon="6.19547">
        <ele>958</ele>
        <time>2010-06-13T09:52:49Z</time>
      </trkpt>
      <trkpt lat="45.75412" lon="6.19542">
        <ele>959</ele>
        <time>2010-06-13T09:52:58Z</time>
      </trkpt>
      <trkpt lat="45.75416" lon="6.19525">
        <ele>960</ele>
        <time>2010-06-13T09:53:10Z</time>
      </trkpt>
      <trkpt lat="45.75417" lon="6.19509">
        <ele>961</ele>
        <time>2010-06-13T09:53:17Z</time>
      </trkpt>
      <trkpt lat="45.75417" lon="6.19498">
        <ele>963</ele>
        <time>2010-06-13T09:53:25Z</time>
      </trkpt>
      <trkpt lat="45.75413" lon="6.19488">
        <ele>964</ele>
        <time>2010-06-13T09:53:32Z</time>
      </trkpt>
      <trkpt lat="45.75411" lon="6.19478">
        <ele>965</ele>
        <time>2010-06-13T09:53:41Z</time>
      </trkpt>
      <trkpt lat="45.75411" lon="6.19463">
        <ele>966</ele>
        <time>2010-06-13T09:53:51Z</time>
      </trkpt>
      <trkpt lat="45.75407" lon="6.19451">
        <ele>967</ele>
        <time>2010-06-13T09:54:01Z</time>
      </trkpt>
      <trkpt lat="45.75403" lon="6.19442">
        <ele>968</ele>
        <time>2010-06-13T09:54:10Z</time>
      </trkpt>
      <trkpt lat="45.75397" lon="6.19434">
        <ele>970</ele>
        <time>2010-06-13T09:54:22Z</time>
      </trkpt>
      <trkpt lat="45.7539" lon="6.19428">
        <ele>970</ele>
        <time>2010-06-13T09:54:33Z</time>
      </trkpt>
      <trkpt lat="45.75387" lon="6.19427">
        <ele>971</ele>
        <time>2010-06-13T09:54:36Z</time>
      </trkpt>
      <trkpt lat="45.75376" lon="6.19426">
        <ele>973</ele>
        <time>2010-06-13T09:54:48Z</time>
      </trkpt>
      <trkpt lat="45.75369" lon="6.19428">
        <ele>975</ele>
        <time>2010-06-13T09:54:58Z</time>
      </trkpt>
      <trkpt lat="45.75369" lon="6.19432">
        <ele>976</ele>
        <time>2010-06-13T09:55:06Z</time>
      </trkpt>
      <trkpt lat="45.75378" lon="6.19438">
        <ele>977</ele>
        <time>2010-06-13T09:55:18Z</time>
      </trkpt>
      <trkpt lat="45.7538" lon="6.19447">
        <ele>977</ele>
        <time>2010-06-13T09:55:27Z</time>
      </trkpt>
      <trkpt lat="45.75383" lon="6.19453">
        <ele>979</ele>
        <time>2010-06-13T09:55:35Z</time>
      </trkpt>
      <trkpt lat="45.75387" lon="6.19462">
        <ele>979</ele>
        <time>2010-06-13T09:55:43Z</time>
      </trkpt>
      <trkpt lat="45.75388" lon="6.19475">
        <ele>981</ele>
        <time>2010-06-13T09:55:52Z</time>
      </trkpt>
      <trkpt lat="45.75385" lon="6.19486">
        <ele>982</ele>
        <time>2010-06-13T09:56:01Z</time>
      </trkpt>
      <trkpt lat="45.75382" lon="6.19496">
        <ele>983</ele>
        <time>2010-06-13T09:56:09Z</time>
      </trkpt>
      <trkpt lat="45.75374" lon="6.19503">
        <ele>984</ele>
        <time>2010-06-13T09:56:17Z</time>
      </trkpt>
      <trkpt lat="45.75368" lon="6.19509">
        <ele>985</ele>
        <time>2010-06-13T09:56:25Z</time>
      </trkpt>
      <trkpt lat="45.75364" lon="6.19511">
        <ele>986</ele>
        <time>2010-06-13T09:56:33Z</time>
      </trkpt>
      <trkpt lat="45.75361" lon="6.19498">
        <ele>988</ele>
        <time>2010-06-13T09:56:43Z</time>
      </trkpt>
      <trkpt lat="45.75359" lon="6.1949">
        <ele>989</ele>
        <time>2010-06-13T09:56:51Z</time>
      </trkpt>
      <trkpt lat="45.75354" lon="6.19482">
        <ele>990</ele>
        <time>2010-06-13T09:57:00Z</time>
      </trkpt>
      <trkpt lat="45.75347" lon="6.19482">
        <ele>991</ele>
        <time>2010-06-13T09:57:09Z</time>
      </trkpt>
      <trkpt lat="45.75343" lon="6.19489">
        <ele>991</ele>
        <time>2010-06-13T09:57:18Z</time>
      </trkpt>
      <trkpt lat="45.75344" lon="6.19502">
        <ele>992</ele>
        <time>2010-06-13T09:57:27Z</time>
      </trkpt>
      <trkpt lat="45.75343" lon="6.19508">
        <ele>993</ele>
        <time>2010-06-13T09:57:34Z</time>
      </trkpt>
      <trkpt lat="45.7534" lon="6.19518">
        <ele>994</ele>
        <time>2010-06-13T09:57:42Z</time>
      </trkpt>
      <trkpt lat="45.75336" lon="6.19526">
        <ele>996</ele>
        <time>2010-06-13T09:57:52Z</time>
      </trkpt>
      <trkpt lat="45.75329" lon="6.1952">
        <ele>998</ele>
        <time>2010-06-13T09:58:01Z</time>
      </trkpt>
      <trkpt lat="45.75325" lon="6.19516">
        <ele>999</ele>
        <time>2010-06-13T09:58:07Z</time>
      </trkpt>
      <trkpt lat="45.75316" lon="6.1951">
        <ele>1001</ele>
        <time>2010-06-13T09:58:18Z</time>
      </trkpt>
      <trkpt lat="45.75309" lon="6.19507">
        <ele>1002</ele>
        <time>2010-06-13T09:58:29Z</time>
      </trkpt>
      <trkpt lat="45.75305" lon="6.19508">
        <ele>1003</ele>
        <time>2010-06-13T09:58:38Z</time>
      </trkpt>
      <trkpt lat="45.75305" lon="6.19515">
        <ele>1005</ele>
        <time>2010-06-13T09:58:47Z</time>
      </trkpt>
      <trkpt lat="45.75304" lon="6.19522">
        <ele>1006</ele>
        <time>2010-06-13T09:58:55Z</time>
      </trkpt>
      <trkpt lat="45.75305" lon="6.1953">
        <ele>1007</ele>
        <time>2010-06-13T09:59:01Z</time>
      </trkpt>
      <trkpt lat="45.75305" lon="6.19538">
        <ele>1006</ele>
        <time>2010-06-13T09:59:05Z</time>
      </trkpt>
      <trkpt lat="45.75307" lon="6.19554">
        <ele>1007</ele>
        <time>2010-06-13T09:59:16Z</time>
      </trkpt>
      <trkpt lat="45.75304" lon="6.19557">
        <ele>1008</ele>
        <time>2010-06-13T09:59:22Z</time>
      </trkpt>
      <trkpt lat="45.75296" lon="6.19552">
        <ele>1010</ele>
        <time>2010-06-13T09:59:31Z</time>
      </trkpt>
      <trkpt lat="45.7529" lon="6.19549">
        <ele>1010</ele>
        <time>2010-06-13T09:59:41Z</time>
      </trkpt>
      <trkpt lat="45.75282" lon="6.19545">
        <ele>1011</ele>
        <time>2010-06-13T09:59:49Z</time>
      </trkpt>
      <trkpt lat="45.75278" lon="6.19539">
        <ele>1012</ele>
        <time>2010-06-13T09:59:55Z</time>
      </trkpt>
      <trkpt lat="45.75269" lon="6.19537">
        <ele>1013</ele>
        <time>2010-06-13T10:00:05Z</time>
      </trkpt>
      <trkpt lat="45.7526" lon="6.19536">
        <ele>1015</ele>
        <time>2010-06-13T10:00:15Z</time>
      </trkpt>
      <trkpt lat="45.75254" lon="6.19533">
        <ele>1016</ele>
        <time>2010-06-13T10:00:23Z</time>
      </trkpt>
      <trkpt lat="45.7525" lon="6.19531">
        <ele>1018</ele>
        <time>2010-06-13T10:00:30Z</time>
      </trkpt>
      <trkpt lat="45.75244" lon="6.1953">
        <ele>1018</ele>
        <time>2010-06-13T10:00:35Z</time>
      </trkpt>
      <trkpt lat="45.75228" lon="6.19528">
        <ele>1019</ele>
        <time>2010-06-13T10:00:46Z</time>
      </trkpt>
      <trkpt lat="45.75215" lon="6.19529">
        <ele>1020</ele>
        <time>2010-06-13T10:00:57Z</time>
      </trkpt>
      <trkpt lat="45.75208" lon="6.19527">
        <ele>1022</ele>
        <time>2010-06-13T10:01:05Z</time>
      </trkpt>
      <trkpt lat="45.75205" lon="6.19526">
        <ele>1022</ele>
        <time>2010-06-13T10:01:10Z</time>
      </trkpt>
      <trkpt lat="45.75201" lon="6.19527">
        <ele>1023</ele>
        <time>2010-06-13T10:01:16Z</time>
      </trkpt>
      <trkpt lat="45.75199" lon="6.19527">
        <ele>1025</ele>
        <time>2010-06-13T10:01:23Z</time>
      </trkpt>
      <trkpt lat="45.75192" lon="6.19527">
        <ele>1026</ele>
        <time>2010-06-13T10:01:31Z</time>
      </trkpt>
      <trkpt lat="45.75187" lon="6.19526">
        <ele>1027</ele>
        <time>2010-06-13T10:01:40Z</time>
      </trkpt>
      <trkpt lat="45.75178" lon="6.19523">
        <ele>1028</ele>
        <time>2010-06-13T10:01:49Z</time>
      </trkpt>
      <trkpt lat="45.75172" lon="6.19522">
        <ele>1029</ele>
        <time>2010-06-13T10:01:55Z</time>
      </trkpt>
      <trkpt lat="45.75155" lon="6.1952">
        <ele>1031</ele>
        <time>2010-06-13T10:02:07Z</time>
      </trkpt>
      <trkpt lat="45.75147" lon="6.19519">
        <ele>1032</ele>
        <time>2010-06-13T10:02:14Z</time>
      </trkpt>
      <trkpt lat="45.75145" lon="6.19519">
        <ele>1033</ele>
        <time>2010-06-13T10:02:21Z</time>
      </trkpt>
      <trkpt lat="45.75135" lon="6.19521">
        <ele>1033</ele>
        <time>2010-06-13T10:02:28Z</time>
      </trkpt>
      <trkpt lat="45.75127" lon="6.19519">
        <ele>1035</ele>
        <time>2010-06-13T10:02:35Z</time>
      </trkpt>
      <trkpt lat="45.75118" lon="6.19517">
        <ele>1035</ele>
        <time>2010-06-13T10:02:43Z</time>
      </trkpt>
      <trkpt lat="45.75109" lon="6.19518">
        <ele>1036</ele>
        <time>2010-06-13T10:02:51Z</time>
      </trkpt>
      <trkpt lat="45.75103" lon="6.19512">
        <ele>1037</ele>
        <time>2010-06-13T10:03:00Z</time>
      </trkpt>
      <trkpt lat="45.75097" lon="6.19503">
        <ele>1039</ele>
        <time>2010-06-13T10:03:09Z</time>
      </trkpt>
      <trkpt lat="45.75092" lon="6.19501">
        <ele>1040</ele>
        <time>2010-06-13T10:03:16Z</time>
      </trkpt>
      <trkpt lat="45.75089" lon="6.19497">
        <ele>1042</ele>
        <time>2010-06-13T10:03:21Z</time>
      </trkpt>
      <trkpt lat="45.75085" lon="6.1949">
        <ele>1044</ele>
        <time>2010-06-13T10:03:29Z</time>
      </trkpt>
      <trkpt lat="45.75077" lon="6.19486">
        <ele>1044</ele>
        <time>2010-06-13T10:03:38Z</time>
      </trkpt>
      <trkpt lat="45.75069" lon="6.19477">
        <ele>1046</ele>
        <time>2010-06-13T10:03:48Z</time>
      </trkpt>
      <trkpt lat="45.75065" lon="6.19473">
        <ele>1046</ele>
        <time>2010-06-13T10:03:54Z</time>
      </trkpt>
      <trkpt lat="45.75056" lon="6.19472">
        <ele>1048</ele>
        <time>2010-06-13T10:04:03Z</time>
      </trkpt>
      <trkpt lat="45.75055" lon="6.19477">
        <ele>1050</ele>
        <time>2010-06-13T10:04:10Z</time>
      </trkpt>
      <trkpt lat="45.7506" lon="6.19483">
        <ele>1052</ele>
        <time>2010-06-13T10:04:21Z</time>
      </trkpt>
      <trkpt lat="45.75063" lon="6.19492">
        <ele>1053</ele>
        <time>2010-06-13T10:04:29Z</time>
      </trkpt>
      <trkpt lat="45.75066" lon="6.19507">
        <ele>1054</ele>
        <time>2010-06-13T10:04:40Z</time>
      </trkpt>
      <trkpt lat="45.75068" lon="6.19517">
        <ele>1055</ele>
        <time>2010-06-13T10:04:47Z</time>
      </trkpt>
      <trkpt lat="45.75069" lon="6.19531">
        <ele>1057</ele>
        <time>2010-06-13T10:04:57Z</time>
      </trkpt>
      <trkpt lat="45.75072" lon="6.19538">
        <ele>1058</ele>
        <time>2010-06-13T10:05:05Z</time>
      </trkpt>
      <trkpt lat="45.75074" lon="6.19552">
        <ele>1059</ele>
        <time>2010-06-13T10:05:16Z</time>
      </trkpt>
      <trkpt lat="45.75075" lon="6.19564">
        <ele>1061</ele>
        <time>2010-06-13T10:05:27Z</time>
      </trkpt>
      <trkpt lat="45.75076" lon="6.19572">
        <ele>1062</ele>
        <time>2010-06-13T10:05:34Z</time>
      </trkpt>
      <trkpt lat="45.75077" lon="6.19581">
        <ele>1064</ele>
        <time>2010-06-13T10:05:40Z</time>
      </trkpt>
      <trkpt lat="45.75079" lon="6.1959">
        <ele>1065</ele>
        <time>2010-06-13T10:05:48Z</time>
      </trkpt>
      <trkpt lat="45.75079" lon="6.19599">
        <ele>1067</ele>
        <time>2010-06-13T10:05:56Z</time>
      </trkpt>
      <trkpt lat="45.75083" lon="6.19608">
        <ele>1068</ele>
        <time>2010-06-13T10:06:07Z</time>
      </trkpt>
      <trkpt lat="45.75087" lon="6.1961">
        <ele>1070</ele>
        <time>2010-06-13T10:06:17Z</time>
      </trkpt>
      <trkpt lat="45.75092" lon="6.19612">
        <ele>1072</ele>
        <time>2010-06-13T10:06:24Z</time>
      </trkpt>
      <trkpt lat="45.75097" lon="6.19614">
        <ele>1072</ele>
        <time>2010-06-13T10:06:30Z</time>
      </trkpt>
      <trkpt lat="45.75104" lon="6.19628">
        <ele>1073</ele>
        <time>2010-06-13T10:06:39Z</time>
      </trkpt>
      <trkpt lat="45.75106" lon="6.19643">
        <ele>1075</ele>
        <time>2010-06-13T10:06:48Z</time>
      </trkpt>
      <trkpt lat="45.75107" lon="6.19659">
        <ele>1076</ele>
        <time>2010-06-13T10:06:58Z</time>
      </trkpt>
      <trkpt lat="45.75102" lon="6.19672">
        <ele>1076</ele>
        <time>2010-06-13T10:07:07Z</time>
      </trkpt>
      <trkpt lat="45.75099" lon="6.19681">
        <ele>1078</ele>
        <time>2010-06-13T10:07:13Z</time>
      </trkpt>
      <trkpt lat="45.75092" lon="6.19693">
        <ele>1079</ele>
        <time>2010-06-13T10:07:23Z</time>
      </trkpt>
      <trkpt lat="45.75087" lon="6.197">
        <ele>1081</ele>
        <time>2010-06-13T10:07:31Z</time>
      </trkpt>
      <trkpt lat="45.75082" lon="6.1971">
        <ele>1082</ele>
        <time>2010-06-13T10:07:39Z</time>
      </trkpt>
      <trkpt lat="45.75078" lon="6.19725">
        <ele>1084</ele>
        <time>2010-06-13T10:07:50Z</time>
      </trkpt>
      <trkpt lat="45.75075" lon="6.19736">
        <ele>1085</ele>
        <time>2010-06-13T10:07:58Z</time>
      </trkpt>
      <trkpt lat="45.75073" lon="6.19746">
        <ele>1086</ele>
        <time>2010-06-13T10:08:07Z</time>
      </trkpt>
      <trkpt lat="45.75069" lon="6.19759">
        <ele>1087</ele>
        <time>2010-06-13T10:08:17Z</time>
      </trkpt>
      <trkpt lat="45.75067" lon="6.19765">
        <ele>1090</ele>
        <time>2010-06-13T10:08:24Z</time>
      </trkpt>
      <trkpt lat="45.75065" lon="6.19778">
        <ele>1092</ele>
        <time>2010-06-13T10:08:35Z</time>
      </trkpt>
      <trkpt lat="45.75061" lon="6.19782">
        <ele>1093</ele>
        <time>2010-06-13T10:08:43Z</time>
      </trkpt>
      <trkpt lat="45.75057" lon="6.1977">
        <ele>1094</ele>
        <time>2010-06-13T10:08:52Z</time>
      </trkpt>
      <trkpt lat="45.75054" lon="6.19758">
        <ele>1095</ele>
        <time>2010-06-13T10:09:03Z</time>
      </trkpt>
      <trkpt lat="45.75053" lon="6.19746">
        <ele>1097</ele>
        <time>2010-06-13T10:09:12Z</time>
      </trkpt>
      <trkpt lat="45.75049" lon="6.1973">
        <ele>1099</ele>
        <time>2010-06-13T10:09:23Z</time>
      </trkpt>
      <trkpt lat="45.75048" lon="6.19722">
        <ele>1099</ele>
        <time>2010-06-13T10:09:30Z</time>
      </trkpt>
      <trkpt lat="45.75041" lon="6.19718">
        <ele>1102</ele>
        <time>2010-06-13T10:09:41Z</time>
      </trkpt>
      <trkpt lat="45.75034" lon="6.1971">
        <ele>1103</ele>
        <time>2010-06-13T10:09:52Z</time>
      </trkpt>
      <trkpt lat="45.75025" lon="6.19708">
        <ele>1105</ele>
        <time>2010-06-13T10:10:03Z</time>
      </trkpt>
      <trkpt lat="45.75019" lon="6.19705">
        <ele>1107</ele>
        <time>2010-06-13T10:10:12Z</time>
      </trkpt>
      <trkpt lat="45.75014" lon="6.19698">
        <ele>1108</ele>
        <time>2010-06-13T10:10:21Z</time>
      </trkpt>
      <trkpt lat="45.75013" lon="6.19694">
        <ele>1109</ele>
        <time>2010-06-13T10:10:28Z</time>
      </trkpt>
      <trkpt lat="45.75012" lon="6.19698">
        <ele>1110</ele>
        <time>2010-06-13T10:10:34Z</time>
      </trkpt>
      <trkpt lat="45.75011" lon="6.19705">
        <ele>1111</ele>
        <time>2010-06-13T10:10:41Z</time>
      </trkpt>
      <trkpt lat="45.75014" lon="6.19712">
        <ele>1113</ele>
        <time>2010-06-13T10:10:49Z</time>
      </trkpt>
      <trkpt lat="45.75017" lon="6.19723">
        <ele>1114</ele>
        <time>2010-06-13T10:11:01Z</time>
      </trkpt>
      <trkpt lat="45.75021" lon="6.1973">
        <ele>1115</ele>
        <time>2010-06-13T10:11:09Z</time>
      </trkpt>
      <trkpt lat="45.75022" lon="6.19745">
        <ele>1116</ele>
        <time>2010-06-13T10:11:20Z</time>
      </trkpt>
      <trkpt lat="45.75023" lon="6.1976">
        <ele>1117</ele>
        <time>2010-06-13T10:11:31Z</time>
      </trkpt>
      <trkpt lat="45.75022" lon="6.1977">
        <ele>1119</ele>
        <time>2010-06-13T10:11:40Z</time>
      </trkpt>
      <trkpt lat="45.75021" lon="6.1978">
        <ele>1120</ele>
        <time>2010-06-13T10:11:49Z</time>
      </trkpt>
      <trkpt lat="45.75017" lon="6.19793">
        <ele>1122</ele>
        <time>2010-06-13T10:11:59Z</time>
      </trkpt>
      <trkpt lat="45.7501" lon="6.19806">
        <ele>1123</ele>
        <time>2010-06-13T10:12:11Z</time>
      </trkpt>
      <trkpt lat="45.75005" lon="6.1982">
        <ele>1126</ele>
        <time>2010-06-13T10:12:22Z</time>
      </trkpt>
      <trkpt lat="45.75004" lon="6.19822">
        <ele>1126</ele>
        <time>2010-06-13T10:12:24Z</time>
      </trkpt>
      <trkpt lat="45.75004" lon="6.19832">
        <ele>1127</ele>
        <time>2010-06-13T10:12:33Z</time>
      </trkpt>
      <trkpt lat="45.75" lon="6.19834">
        <ele>1128</ele>
        <time>2010-06-13T10:12:41Z</time>
      </trkpt>
      <trkpt lat="45.75" lon="6.19831">
        <ele>1130</ele>
        <time>2010-06-13T10:12:44Z</time>
      </trkpt>
      <trkpt lat="45.74996" lon="6.19819">
        <ele>1132</ele>
        <time>2010-06-13T10:12:53Z</time>
      </trkpt>
      <trkpt lat="45.74993" lon="6.1981">
        <ele>1132</ele>
        <time>2010-06-13T10:13:02Z</time>
      </trkpt>
      <trkpt lat="45.74991" lon="6.19797">
        <ele>1134</ele>
        <time>2010-06-13T10:13:12Z</time>
      </trkpt>
      <trkpt lat="45.74992" lon="6.19785">
        <ele>1134</ele>
        <time>2010-06-13T10:13:21Z</time>
      </trkpt>
      <trkpt lat="45.7499" lon="6.19774">
        <ele>1135</ele>
        <time>2010-06-13T10:13:29Z</time>
      </trkpt>
      <trkpt lat="45.74987" lon="6.19769">
        <ele>1136</ele>
        <time>2010-06-13T10:13:37Z</time>
      </trkpt>
      <trkpt lat="45.74982" lon="6.19764">
        <ele>1138</ele>
        <time>2010-06-13T10:13:45Z</time>
      </trkpt>
      <trkpt lat="45.74974" lon="6.19757">
        <ele>1138</ele>
        <time>2010-06-13T10:13:53Z</time>
      </trkpt>
      <trkpt lat="45.7497" lon="6.19754">
        <ele>1139</ele>
        <time>2010-06-13T10:14:01Z</time>
      </trkpt>
      <trkpt lat="45.74968" lon="6.1975">
        <ele>1141</ele>
        <time>2010-06-13T10:14:09Z</time>
      </trkpt>
      <trkpt lat="45.74966" lon="6.19749">
        <ele>1142</ele>
        <time>2010-06-13T10:14:11Z</time>
      </trkpt>
      <trkpt lat="45.74957" lon="6.1974">
        <ele>1144</ele>
        <time>2010-06-13T10:14:22Z</time>
      </trkpt>
      <trkpt lat="45.74952" lon="6.19733">
        <ele>1144</ele>
        <time>2010-06-13T10:14:30Z</time>
      </trkpt>
      <trkpt lat="45.74949" lon="6.19727">
        <ele>1145</ele>
        <time>2010-06-13T10:14:36Z</time>
      </trkpt>
      <trkpt lat="45.7495" lon="6.1972">
        <ele>1146</ele>
        <time>2010-06-13T10:14:43Z</time>
      </trkpt>
      <trkpt lat="45.74946" lon="6.19712">
        <ele>1146</ele>
        <time>2010-06-13T10:14:49Z</time>
      </trkpt>
      <trkpt lat="45.74938" lon="6.19704">
        <ele>1148</ele>
        <time>2010-06-13T10:14:58Z</time>
      </trkpt>
      <trkpt lat="45.74934" lon="6.19699">
        <ele>1149</ele>
        <time>2010-06-13T10:15:06Z</time>
      </trkpt>
      <trkpt lat="45.74929" lon="6.19693">
        <ele>1151</ele>
        <time>2010-06-13T10:15:14Z</time>
      </trkpt>
      <trkpt lat="45.74926" lon="6.19687">
        <ele>1153</ele>
        <time>2010-06-13T10:15:23Z</time>
      </trkpt>
      <trkpt lat="45.74922" lon="6.19686">
        <ele>1154</ele>
        <time>2010-06-13T10:15:31Z</time>
      </trkpt>
      <trkpt lat="45.7492" lon="6.19694">
        <ele>1156</ele>
        <time>2010-06-13T10:15:40Z</time>
      </trkpt>
      <trkpt lat="45.74921" lon="6.19699">
        <ele>1157</ele>
        <time>2010-06-13T10:15:46Z</time>
      </trkpt>
      <trkpt lat="45.74925" lon="6.19705">
        <ele>1158</ele>
        <time>2010-06-13T10:15:54Z</time>
      </trkpt>
      <trkpt lat="45.74925" lon="6.1972">
        <ele>1159</ele>
        <time>2010-06-13T10:16:03Z</time>
      </trkpt>
      <trkpt lat="45.74927" lon="6.19728">
        <ele>1159</ele>
        <time>2010-06-13T10:16:10Z</time>
      </trkpt>
      <trkpt lat="45.74931" lon="6.19735">
        <ele>1160</ele>
        <time>2010-06-13T10:16:17Z</time>
      </trkpt>
      <trkpt lat="45.74933" lon="6.19741">
        <ele>1161</ele>
        <time>2010-06-13T10:16:22Z</time>
      </trkpt>
      <trkpt lat="45.74932" lon="6.19755">
        <ele>1163</ele>
        <time>2010-06-13T10:16:31Z</time>
      </trkpt>
      <trkpt lat="45.74931" lon="6.19768">
        <ele>1164</ele>
        <time>2010-06-13T10:16:39Z</time>
      </trkpt>
      <trkpt lat="45.74929" lon="6.19781">
        <ele>1164</ele>
        <time>2010-06-13T10:16:49Z</time>
      </trkpt>
      <trkpt lat="45.74931" lon="6.19784">
        <ele>1165</ele>
        <time>2010-06-13T10:16:56Z</time>
      </trkpt>
      <trkpt lat="45.74935" lon="6.19793">
        <ele>1167</ele>
        <time>2010-06-13T10:17:03Z</time>
      </trkpt>
      <trkpt lat="45.74933" lon="6.19798">
        <ele>1168</ele>
        <time>2010-06-13T10:17:10Z</time>
      </trkpt>
      <trkpt lat="45.74929" lon="6.19797">
        <ele>1169</ele>
        <time>2010-06-13T10:17:16Z</time>
      </trkpt>
      <trkpt lat="45.74925" lon="6.19797">
        <ele>1171</ele>
        <time>2010-06-13T10:17:23Z</time>
      </trkpt>
      <trkpt lat="45.74917" lon="6.19792">
        <ele>1172</ele>
        <time>2010-06-13T10:17:29Z</time>
      </trkpt>
      <trkpt lat="45.74909" lon="6.19785">
        <ele>1173</ele>
        <time>2010-06-13T10:17:37Z</time>
      </trkpt>
      <trkpt lat="45.74905" lon="6.19778">
        <ele>1174</ele>
        <time>2010-06-13T10:17:46Z</time>
      </trkpt>
      <trkpt lat="45.74903" lon="6.19768">
        <ele>1175</ele>
        <time>2010-06-13T10:17:53Z</time>
      </trkpt>
      <trkpt lat="45.74902" lon="6.19761">
        <ele>1176</ele>
        <time>2010-06-13T10:18:00Z</time>
      </trkpt>
      <trkpt lat="45.74899" lon="6.19753">
        <ele>1177</ele>
        <time>2010-06-13T10:18:08Z</time>
      </trkpt>
      <trkpt lat="45.74893" lon="6.19742">
        <ele>1179</ele>
        <time>2010-06-13T10:18:16Z</time>
      </trkpt>
      <trkpt lat="45.74889" lon="6.19731">
        <ele>1180</ele>
        <time>2010-06-13T10:18:25Z</time>
      </trkpt>
      <trkpt lat="45.74883" lon="6.19722">
        <ele>1180</ele>
        <time>2010-06-13T10:18:34Z</time>
      </trkpt>
      <trkpt lat="45.74879" lon="6.19719">
        <ele>1182</ele>
        <time>2010-06-13T10:18:41Z</time>
      </trkpt>
      <trkpt lat="45.74874" lon="6.19712">
        <ele>1183</ele>
        <time>2010-06-13T10:18:49Z</time>
      </trkpt>
      <trkpt lat="45.74867" lon="6.19706">
        <ele>1184</ele>
        <time>2010-06-13T10:18:57Z</time>
      </trkpt>
      <trkpt lat="45.74864" lon="6.19699">
        <ele>1184</ele>
        <time>2010-06-13T10:19:05Z</time>
      </trkpt>
      <trkpt lat="45.74859" lon="6.19693">
        <ele>1185</ele>
        <time>2010-06-13T10:19:13Z</time>
      </trkpt>
      <trkpt lat="45.74855" lon="6.19688">
        <ele>1186</ele>
        <time>2010-06-13T10:19:20Z</time>
      </trkpt>
      <trkpt lat="45.7485" lon="6.19682">
        <ele>1187</ele>
        <time>2010-06-13T10:19:27Z</time>
      </trkpt>
      <trkpt lat="45.74844" lon="6.19676">
        <ele>1188</ele>
        <time>2010-06-13T10:19:36Z</time>
      </trkpt>
      <trkpt lat="45.74839" lon="6.19673">
        <ele>1189</ele>
        <time>2010-06-13T10:19:41Z</time>
      </trkpt>
      <trkpt lat="45.74832" lon="6.1967">
        <ele>1190</ele>
        <time>2010-06-13T10:19:49Z</time>
      </trkpt>
      <trkpt lat="45.74824" lon="6.19667">
        <ele>1191</ele>
        <time>2010-06-13T10:19:57Z</time>
      </trkpt>
      <trkpt lat="45.74817" lon="6.19662">
        <ele>1193</ele>
        <time>2010-06-13T10:20:05Z</time>
      </trkpt>
      <trkpt lat="45.74811" lon="6.19658">
        <ele>1194</ele>
        <time>2010-06-13T10:20:12Z</time>
      </trkpt>
      <trkpt lat="45.74807" lon="6.19656">
        <ele>1195</ele>
        <time>2010-06-13T10:20:17Z</time>
      </trkpt>
      <trkpt lat="45.74804" lon="6.1966">
        <ele>1196</ele>
        <time>2010-06-13T10:20:25Z</time>
      </trkpt>
      <trkpt lat="45.74808" lon="6.19671">
        <ele>1198</ele>
        <time>2010-06-13T10:20:35Z</time>
      </trkpt>
      <trkpt lat="45.74809" lon="6.19681">
        <ele>1199</ele>
        <time>2010-06-13T10:20:44Z</time>
      </trkpt>
      <trkpt lat="45.74813" lon="6.19685">
        <ele>1199</ele>
        <time>2010-06-13T10:20:52Z</time>
      </trkpt>
      <trkpt lat="45.74817" lon="6.1969">
        <ele>1200</ele>
        <time>2010-06-13T10:20:59Z</time>
      </trkpt>
      <trkpt lat="45.74822" lon="6.19694">
        <ele>1201</ele>
        <time>2010-06-13T10:21:07Z</time>
      </trkpt>
      <trkpt lat="45.74826" lon="6.19701">
        <ele>1203</ele>
        <time>2010-06-13T10:21:17Z</time>
      </trkpt>
      <trkpt lat="45.74831" lon="6.19711">
        <ele>1204</ele>
        <time>2010-06-13T10:21:27Z</time>
      </trkpt>
      <trkpt lat="45.74833" lon="6.19717">
        <ele>1204</ele>
        <time>2010-06-13T10:21:33Z</time>
      </trkpt>
      <trkpt lat="45.74836" lon="6.19725">
        <ele>1205</ele>
        <time>2010-06-13T10:21:38Z</time>
      </trkpt>
      <trkpt lat="45.74837" lon="6.1973">
        <ele>1206</ele>
        <time>2010-06-13T10:21:41Z</time>
      </trkpt>
      <trkpt lat="45.7484" lon="6.19745">
        <ele>1209</ele>
        <time>2010-06-13T10:21:52Z</time>
      </trkpt>
      <trkpt lat="45.74841" lon="6.19755">
        <ele>1210</ele>
        <time>2010-06-13T10:22:02Z</time>
      </trkpt>
      <trkpt lat="45.74843" lon="6.19765">
        <ele>1211</ele>
        <time>2010-06-13T10:22:11Z</time>
      </trkpt>
      <trkpt lat="45.74847" lon="6.19779">
        <ele>1212</ele>
        <time>2010-06-13T10:22:22Z</time>
      </trkpt>
      <trkpt lat="45.74849" lon="6.19789">
        <ele>1213</ele>
        <time>2010-06-13T10:22:30Z</time>
      </trkpt>
      <trkpt lat="45.74849" lon="6.19802">
        <ele>1215</ele>
        <time>2010-06-13T10:22:40Z</time>
      </trkpt>
      <trkpt lat="45.74852" lon="6.19811">
        <ele>1215</ele>
        <time>2010-06-13T10:22:49Z</time>
      </trkpt>
      <trkpt lat="45.74849" lon="6.19811">
        <ele>1216</ele>
        <time>2010-06-13T10:22:55Z</time>
      </trkpt>
      <trkpt lat="45.74843" lon="6.19805">
        <ele>1218</ele>
        <time>2010-06-13T10:23:04Z</time>
      </trkpt>
      <trkpt lat="45.7484" lon="6.19806">
        <ele>1220</ele>
        <time>2010-06-13T10:23:11Z</time>
      </trkpt>
      <trkpt lat="45.74835" lon="6.19799">
        <ele>1220</ele>
        <time>2010-06-13T10:23:20Z</time>
      </trkpt>
      <trkpt lat="45.7483" lon="6.1979">
        <ele>1221</ele>
        <time>2010-06-13T10:23:29Z</time>
      </trkpt>
      <trkpt lat="45.74823" lon="6.19782">
        <ele>1223</ele>
        <time>2010-06-13T10:23:38Z</time>
      </trkpt>
      <trkpt lat="45.74818" lon="6.19773">
        <ele>1224</ele>
        <time>2010-06-13T10:23:47Z</time>
      </trkpt>
      <trkpt lat="45.74812" lon="6.19765">
        <ele>1225</ele>
        <time>2010-06-13T10:23:56Z</time>
      </trkpt>
      <trkpt lat="45.74806" lon="6.19761">
        <ele>1226</ele>
        <time>2010-06-13T10:24:03Z</time>
      </trkpt>
      <trkpt lat="45.74797" lon="6.19756">
        <ele>1227</ele>
        <time>2010-06-13T10:24:12Z</time>
      </trkpt>
      <trkpt lat="45.74793" lon="6.19753">
        <ele>1227</ele>
        <time>2010-06-13T10:24:20Z</time>
      </trkpt>
      <trkpt lat="45.74786" lon="6.19754">
        <ele>1229</ele>
        <time>2010-06-13T10:24:29Z</time>
      </trkpt>
      <trkpt lat="45.74781" lon="6.19749">
        <ele>1230</ele>
        <time>2010-06-13T10:24:37Z</time>
      </trkpt>
      <trkpt lat="45.74777" lon="6.19743">
        <ele>1230</ele>
        <time>2010-06-13T10:24:44Z</time>
      </trkpt>
      <trkpt lat="45.74772" lon="6.19738">
        <ele>1231</ele>
        <time>2010-06-13T10:24:50Z</time>
      </trkpt>
      <trkpt lat="45.74771" lon="6.19737">
        <ele>1231</ele>
        <time>2010-06-13T10:24:52Z</time>
      </trkpt>
      <trkpt lat="45.74765" lon="6.19729">
        <ele>1233</ele>
        <time>2010-06-13T10:25:02Z</time>
      </trkpt>
      <trkpt lat="45.74761" lon="6.19727">
        <ele>1234</ele>
        <time>2010-06-13T10:25:12Z</time>
      </trkpt>
      <trkpt lat="45.74755" lon="6.19728">
        <ele>1235</ele>
        <time>2010-06-13T10:25:19Z</time>
      </trkpt>
      <trkpt lat="45.74746" lon="6.19726">
        <ele>1236</ele>
        <time>2010-06-13T10:25:26Z</time>
      </trkpt>
      <trkpt lat="45.74741" lon="6.19723">
        <ele>1238</ele>
        <time>2010-06-13T10:25:34Z</time>
      </trkpt>
      <trkpt lat="45.74723" lon="6.1972">
        <ele>1239</ele>
        <time>2010-06-13T10:25:44Z</time>
      </trkpt>
      <trkpt lat="45.74717" lon="6.19711">
        <ele>1240</ele>
        <time>2010-06-13T10:25:53Z</time>
      </trkpt>
      <trkpt lat="45.74715" lon="6.19707">
        <ele>1240</ele>
        <time>2010-06-13T10:25:59Z</time>
      </trkpt>
      <trkpt lat="45.74713" lon="6.19704">
        <ele>1243</ele>
        <time>2010-06-13T10:26:07Z</time>
      </trkpt>
      <trkpt lat="45.74709" lon="6.19701">
        <ele>1243</ele>
        <time>2010-06-13T10:26:14Z</time>
      </trkpt>
      <trkpt lat="45.74702" lon="6.19698">
        <ele>1244</ele>
        <time>2010-06-13T10:26:22Z</time>
      </trkpt>
      <trkpt lat="45.74696" lon="6.19695">
        <ele>1245</ele>
        <time>2010-06-13T10:26:29Z</time>
      </trkpt>
      <trkpt lat="45.74692" lon="6.19691">
        <ele>1246</ele>
        <time>2010-06-13T10:26:36Z</time>
      </trkpt>
      <trkpt lat="45.74687" lon="6.19685">
        <ele>1246</ele>
        <time>2010-06-13T10:26:43Z</time>
      </trkpt>
      <trkpt lat="45.74683" lon="6.19682">
        <ele>1246</ele>
        <time>2010-06-13T10:26:49Z</time>
      </trkpt>
      <trkpt lat="45.74676" lon="6.19675">
        <ele>1247</ele>
        <time>2010-06-13T10:26:57Z</time>
      </trkpt>
      <trkpt lat="45.7467" lon="6.19671">
        <ele>1248</ele>
        <time>2010-06-13T10:27:03Z</time>
      </trkpt>
      <trkpt lat="45.74662" lon="6.19666">
        <ele>1250</ele>
        <time>2010-06-13T10:27:11Z</time>
      </trkpt>
      <trkpt lat="45.74658" lon="6.19662">
        <ele>1251</ele>
        <time>2010-06-13T10:27:18Z</time>
      </trkpt>
      <trkpt lat="45.74652" lon="6.1966">
        <ele>1253</ele>
        <time>2010-06-13T10:27:27Z</time>
      </trkpt>
      <trkpt lat="45.74658" lon="6.19658">
        <ele>1254</ele>
        <time>2010-06-13T10:27:38Z</time>
      </trkpt>
      <trkpt lat="45.74667" lon="6.19663">
        <ele>1254</ele>
        <time>2010-06-13T10:27:50Z</time>
      </trkpt>
      <trkpt lat="45.7467" lon="6.19672">
        <ele>1255</ele>
        <time>2010-06-13T10:27:58Z</time>
      </trkpt>
      <trkpt lat="45.74671" lon="6.1968">
        <ele>1256</ele>
        <time>2010-06-13T10:28:05Z</time>
      </trkpt>
      <trkpt lat="45.74675" lon="6.19687">
        <ele>1258</ele>
        <time>2010-06-13T10:28:13Z</time>
      </trkpt>
      <trkpt lat="45.74679" lon="6.19695">
        <ele>1258</ele>
        <time>2010-06-13T10:28:19Z</time>
      </trkpt>
      <trkpt lat="45.74682" lon="6.19701">
        <ele>1259</ele>
        <time>2010-06-13T10:28:26Z</time>
      </trkpt>
      <trkpt lat="45.74686" lon="6.19705">
        <ele>1261</ele>
        <time>2010-06-13T10:28:31Z</time>
      </trkpt>
      <trkpt lat="45.74693" lon="6.19713">
        <ele>1262</ele>
        <time>2010-06-13T10:28:42Z</time>
      </trkpt>
      <trkpt lat="45.74699" lon="6.19725">
        <ele>1263</ele>
        <time>2010-06-13T10:28:52Z</time>
      </trkpt>
      <trkpt lat="45.747" lon="6.19738">
        <ele>1264</ele>
        <time>2010-06-13T10:28:59Z</time>
      </trkpt>
      <trkpt lat="45.74704" lon="6.1975">
        <ele>1265</ele>
        <time>2010-06-13T10:29:07Z</time>
      </trkpt>
      <trkpt lat="45.74709" lon="6.19756">
        <ele>1266</ele>
        <time>2010-06-13T10:29:14Z</time>
      </trkpt>
      <trkpt lat="45.74718" lon="6.19765">
        <ele>1268</ele>
        <time>2010-06-13T10:29:28Z</time>
      </trkpt>
      <trkpt lat="45.74722" lon="6.19773">
        <ele>1269</ele>
        <time>2010-06-13T10:29:37Z</time>
      </trkpt>
      <trkpt lat="45.74726" lon="6.19781">
        <ele>1270</ele>
        <time>2010-06-13T10:29:47Z</time>
      </trkpt>
      <trkpt lat="45.74731" lon="6.19783">
        <ele>1271</ele>
        <time>2010-06-13T10:29:59Z</time>
      </trkpt>
      <trkpt lat="45.74738" lon="6.19792">
        <ele>1272</ele>
        <time>2010-06-13T10:30:07Z</time>
      </trkpt>
      <trkpt lat="45.74742" lon="6.19805">
        <ele>1273</ele>
        <time>2010-06-13T10:30:16Z</time>
      </trkpt>
      <trkpt lat="45.74745" lon="6.19815">
        <ele>1275</ele>
        <time>2010-06-13T10:30:24Z</time>
      </trkpt>
      <trkpt lat="45.74744" lon="6.19822">
        <ele>1276</ele>
        <time>2010-06-13T10:30:32Z</time>
      </trkpt>
      <trkpt lat="45.74745" lon="6.19821">
        <ele>1277</ele>
        <time>2010-06-13T10:30:39Z</time>
      </trkpt>
      <trkpt lat="45.74742" lon="6.19815">
        <ele>1279</ele>
        <time>2010-06-13T10:30:48Z</time>
      </trkpt>
      <trkpt lat="45.74737" lon="6.19813">
        <ele>1280</ele>
        <time>2010-06-13T10:30:56Z</time>
      </trkpt>
      <trkpt lat="45.74733" lon="6.19809">
        <ele>1281</ele>
        <time>2010-06-13T10:31:03Z</time>
      </trkpt>
      <trkpt lat="45.74727" lon="6.19809">
        <ele>1282</ele>
        <time>2010-06-13T10:31:10Z</time>
      </trkpt>
      <trkpt lat="45.74716" lon="6.19808">
        <ele>1282</ele>
        <time>2010-06-13T10:31:18Z</time>
      </trkpt>
      <trkpt lat="45.74712" lon="6.19806">
        <ele>1283</ele>
        <time>2010-06-13T10:31:25Z</time>
      </trkpt>
      <trkpt lat="45.74705" lon="6.19802">
        <ele>1284</ele>
        <time>2010-06-13T10:31:33Z</time>
      </trkpt>
      <trkpt lat="45.74702" lon="6.198">
        <ele>1285</ele>
        <time>2010-06-13T10:31:38Z</time>
      </trkpt>
      <trkpt lat="45.74697" lon="6.19797">
        <ele>1287</ele>
        <time>2010-06-13T10:31:46Z</time>
      </trkpt>
      <trkpt lat="45.74688" lon="6.19793">
        <ele>1286</ele>
        <time>2010-06-13T10:31:52Z</time>
      </trkpt>
      <trkpt lat="45.74682" lon="6.19785">
        <ele>1287</ele>
        <time>2010-06-13T10:31:59Z</time>
      </trkpt>
      <trkpt lat="45.74677" lon="6.19781">
        <ele>1288</ele>
        <time>2010-06-13T10:32:06Z</time>
      </trkpt>
      <trkpt lat="45.7467" lon="6.19778">
        <ele>1290</ele>
        <time>2010-06-13T10:32:12Z</time>
      </trkpt>
      <trkpt lat="45.74665" lon="6.19773">
        <ele>1291</ele>
        <time>2010-06-13T10:32:18Z</time>
      </trkpt>
      <trkpt lat="45.74658" lon="6.19768">
        <ele>1291</ele>
        <time>2010-06-13T10:32:25Z</time>
      </trkpt>
      <trkpt lat="45.74654" lon="6.19764">
        <ele>1292</ele>
        <time>2010-06-13T10:32:31Z</time>
      </trkpt>
      <trkpt lat="45.74647" lon="6.19756">
        <ele>1294</ele>
        <time>2010-06-13T10:32:45Z</time>
      </trkpt>
      <trkpt lat="45.74643" lon="6.19757">
        <ele>1296</ele>
        <time>2010-06-13T10:32:54Z</time>
      </trkpt>
      <trkpt lat="45.74643" lon="6.19757">
        <ele>1297</ele>
        <time>2010-06-13T10:33:01Z</time>
      </trkpt>
      <trkpt lat="45.74647" lon="6.19765">
        <ele>1298</ele>
        <time>2010-06-13T10:33:14Z</time>
      </trkpt>
      <trkpt lat="45.74654" lon="6.19773">
        <ele>1299</ele>
        <time>2010-06-13T10:33:22Z</time>
      </trkpt>
      <trkpt lat="45.74657" lon="6.19786">
        <ele>1300</ele>
        <time>2010-06-13T10:33:31Z</time>
      </trkpt>
      <trkpt lat="45.74658" lon="6.19789">
        <ele>1301</ele>
        <time>2010-06-13T10:33:33Z</time>
      </trkpt>
      <trkpt lat="45.7466" lon="6.19794">
        <ele>1302</ele>
        <time>2010-06-13T10:33:39Z</time>
      </trkpt>
      <trkpt lat="45.74663" lon="6.19804">
        <ele>1302</ele>
        <time>2010-06-13T10:33:48Z</time>
      </trkpt>
      <trkpt lat="45.74665" lon="6.19811">
        <ele>1304</ele>
        <time>2010-06-13T10:33:55Z</time>
      </trkpt>
      <trkpt lat="45.7467" lon="6.19816">
        <ele>1304</ele>
        <time>2010-06-13T10:34:01Z</time>
      </trkpt>
      <trkpt lat="45.74672" lon="6.19824">
        <ele>1305</ele>
        <time>2010-06-13T10:34:11Z</time>
      </trkpt>
      <trkpt lat="45.74677" lon="6.19835">
        <ele>1307</ele>
        <time>2010-06-13T10:34:19Z</time>
      </trkpt>
      <trkpt lat="45.74688" lon="6.19843">
        <ele>1308</ele>
        <time>2010-06-13T10:34:31Z</time>
      </trkpt>
      <trkpt lat="45.74692" lon="6.1985">
        <ele>1309</ele>
        <time>2010-06-13T10:34:40Z</time>
      </trkpt>
      <trkpt lat="45.74705" lon="6.1987">
        <ele>1312</ele>
        <time>2010-06-13T10:34:57Z</time>
      </trkpt>
      <trkpt lat="45.74706" lon="6.19879">
        <ele>1312</ele>
        <time>2010-06-13T10:35:03Z</time>
      </trkpt>
      <trkpt lat="45.7471" lon="6.1989">
        <ele>1314</ele>
        <time>2010-06-13T10:35:16Z</time>
      </trkpt>
      <trkpt lat="45.74708" lon="6.19891">
        <ele>1316</ele>
        <time>2010-06-13T10:35:24Z</time>
      </trkpt>
      <trkpt lat="45.74703" lon="6.19891">
        <ele>1317</ele>
        <time>2010-06-13T10:35:30Z</time>
      </trkpt>
      <trkpt lat="45.74699" lon="6.19888">
        <ele>1318</ele>
        <time>2010-06-13T10:35:39Z</time>
      </trkpt>
      <trkpt lat="45.74691" lon="6.19884">
        <ele>1320</ele>
        <time>2010-06-13T10:35:53Z</time>
      </trkpt>
      <trkpt lat="45.74685" lon="6.1988">
        <ele>1321</ele>
        <time>2010-06-13T10:36:00Z</time>
      </trkpt>
      <trkpt lat="45.74679" lon="6.19877">
        <ele>1321</ele>
        <time>2010-06-13T10:36:07Z</time>
      </trkpt>
      <trkpt lat="45.74664" lon="6.19863">
        <ele>1325</ele>
        <time>2010-06-13T10:36:28Z</time>
      </trkpt>
      <trkpt lat="45.7465" lon="6.19852">
        <ele>1326</ele>
        <time>2010-06-13T10:36:40Z</time>
      </trkpt>
      <trkpt lat="45.74647" lon="6.19847">
        <ele>1328</ele>
        <time>2010-06-13T10:36:46Z</time>
      </trkpt>
      <trkpt lat="45.74639" lon="6.19846">
        <ele>1329</ele>
        <time>2010-06-13T10:36:53Z</time>
      </trkpt>
      <trkpt lat="45.74635" lon="6.19843">
        <ele>1329</ele>
        <time>2010-06-13T10:36:59Z</time>
      </trkpt>
      <trkpt lat="45.74629" lon="6.19838">
        <ele>1330</ele>
        <time>2010-06-13T10:37:06Z</time>
      </trkpt>
      <trkpt lat="45.74623" lon="6.19833">
        <ele>1331</ele>
        <time>2010-06-13T10:37:15Z</time>
      </trkpt>
      <trkpt lat="45.74616" lon="6.1983">
        <ele>1332</ele>
        <time>2010-06-13T10:37:23Z</time>
      </trkpt>
      <trkpt lat="45.74608" lon="6.19826">
        <ele>1333</ele>
        <time>2010-06-13T10:37:31Z</time>
      </trkpt>
      <trkpt lat="45.74603" lon="6.19823">
        <ele>1335</ele>
        <time>2010-06-13T10:37:41Z</time>
      </trkpt>
      <trkpt lat="45.74609" lon="6.19826">
        <ele>1336</ele>
        <time>2010-06-13T10:37:52Z</time>
      </trkpt>
      <trkpt lat="45.74612" lon="6.19833">
        <ele>1338</ele>
        <time>2010-06-13T10:37:59Z</time>
      </trkpt>
      <trkpt lat="45.7462" lon="6.19845">
        <ele>1340</ele>
        <time>2010-06-13T10:38:13Z</time>
      </trkpt>
      <trkpt lat="45.74626" lon="6.19851">
        <ele>1340</ele>
        <time>2010-06-13T10:38:20Z</time>
      </trkpt>
      <trkpt lat="45.74628" lon="6.19859">
        <ele>1342</ele>
        <time>2010-06-13T10:38:26Z</time>
      </trkpt>
      <trkpt lat="45.74629" lon="6.19868">
        <ele>1342</ele>
        <time>2010-06-13T10:38:31Z</time>
      </trkpt>
      <trkpt lat="45.74631" lon="6.19878">
        <ele>1342</ele>
        <time>2010-06-13T10:38:37Z</time>
      </trkpt>
      <trkpt lat="45.74635" lon="6.19887">
        <ele>1344</ele>
        <time>2010-06-13T10:38:45Z</time>
      </trkpt>
      <trkpt lat="45.74639" lon="6.19892">
        <ele>1346</ele>
        <time>2010-06-13T10:38:56Z</time>
      </trkpt>
      <trkpt lat="45.74648" lon="6.19898">
        <ele>1347</ele>
        <time>2010-06-13T10:39:08Z</time>
      </trkpt>
      <trkpt lat="45.74653" lon="6.19907">
        <ele>1348</ele>
        <time>2010-06-13T10:39:16Z</time>
      </trkpt>
      <trkpt lat="45.74659" lon="6.19915">
        <ele>1349</ele>
        <time>2010-06-13T10:39:24Z</time>
      </trkpt>
      <trkpt lat="45.74663" lon="6.19921">
        <ele>1350</ele>
        <time>2010-06-13T10:39:31Z</time>
      </trkpt>
      <trkpt lat="45.74666" lon="6.19928">
        <ele>1351</ele>
        <time>2010-06-13T10:39:40Z</time>
      </trkpt>
      <trkpt lat="45.74672" lon="6.19935">
        <ele>1352</ele>
        <time>2010-06-13T10:39:47Z</time>
      </trkpt>
      <trkpt lat="45.74673" lon="6.19944">
        <ele>1353</ele>
        <time>2010-06-13T10:39:54Z</time>
      </trkpt>
      <trkpt lat="45.74672" lon="6.19949">
        <ele>1355</ele>
        <time>2010-06-13T10:40:01Z</time>
      </trkpt>
      <trkpt lat="45.74665" lon="6.1995">
        <ele>1356</ele>
        <time>2010-06-13T10:40:09Z</time>
      </trkpt>
      <trkpt lat="45.74656" lon="6.19948">
        <ele>1357</ele>
        <time>2010-06-13T10:40:18Z</time>
      </trkpt>
      <trkpt lat="45.7465" lon="6.19945">
        <ele>1358</ele>
        <time>2010-06-13T10:40:26Z</time>
      </trkpt>
      <trkpt lat="45.74644" lon="6.19939">
        <ele>1358</ele>
        <time>2010-06-13T10:40:34Z</time>
      </trkpt>
      <trkpt lat="45.74641" lon="6.19935">
        <ele>1359</ele>
        <time>2010-06-13T10:40:41Z</time>
      </trkpt>
      <trkpt lat="45.74635" lon="6.19931">
        <ele>1361</ele>
        <time>2010-06-13T10:40:50Z</time>
      </trkpt>
      <trkpt lat="45.7463" lon="6.19926">
        <ele>1361</ele>
        <time>2010-06-13T10:40:57Z</time>
      </trkpt>
      <trkpt lat="45.74625" lon="6.19922">
        <ele>1363</ele>
        <time>2010-06-13T10:41:06Z</time>
      </trkpt>
      <trkpt lat="45.74621" lon="6.19919">
        <ele>1363</ele>
        <time>2010-06-13T10:41:11Z</time>
      </trkpt>
      <trkpt lat="45.74618" lon="6.19916">
        <ele>1364</ele>
        <time>2010-06-13T10:41:16Z</time>
      </trkpt>
      <trkpt lat="45.74613" lon="6.19912">
        <ele>1365</ele>
        <time>2010-06-13T10:41:22Z</time>
      </trkpt>
      <trkpt lat="45.74609" lon="6.19909">
        <ele>1365</ele>
        <time>2010-06-13T10:41:27Z</time>
      </trkpt>
      <trkpt lat="45.74602" lon="6.19903">
        <ele>1367</ele>
        <time>2010-06-13T10:41:35Z</time>
      </trkpt>
      <trkpt lat="45.74598" lon="6.19903">
        <ele>1368</ele>
        <time>2010-06-13T10:41:41Z</time>
      </trkpt>
      <trkpt lat="45.74598" lon="6.19907">
        <ele>1369</ele>
        <time>2010-06-13T10:41:49Z</time>
      </trkpt>
      <trkpt lat="45.74597" lon="6.19916">
        <ele>1370</ele>
        <time>2010-06-13T10:41:58Z</time>
      </trkpt>
      <trkpt lat="45.74599" lon="6.1992">
        <ele>1372</ele>
        <time>2010-06-13T10:42:07Z</time>
      </trkpt>
      <trkpt lat="45.74601" lon="6.19924">
        <ele>1373</ele>
        <time>2010-06-13T10:42:14Z</time>
      </trkpt>
      <trkpt lat="45.746" lon="6.19928">
        <ele>1375</ele>
        <time>2010-06-13T10:42:21Z</time>
      </trkpt>
      <trkpt lat="45.74606" lon="6.19935">
        <ele>1376</ele>
        <time>2010-06-13T10:42:30Z</time>
      </trkpt>
      <trkpt lat="45.7461" lon="6.19942">
        <ele>1378</ele>
        <time>2010-06-13T10:42:38Z</time>
      </trkpt>
      <trkpt lat="45.74613" lon="6.19948">
        <ele>1379</ele>
        <time>2010-06-13T10:42:46Z</time>
      </trkpt>
      <trkpt lat="45.74615" lon="6.19956">
        <ele>1382</ele>
        <time>2010-06-13T10:42:54Z</time>
      </trkpt>
      <trkpt lat="45.74616" lon="6.19961">
        <ele>1383</ele>
        <time>2010-06-13T10:43:00Z</time>
      </trkpt>
      <trkpt lat="45.74619" lon="6.1997">
        <ele>1385</ele>
        <time>2010-06-13T10:43:10Z</time>
      </trkpt>
      <trkpt lat="45.74621" lon="6.1998">
        <ele>1387</ele>
        <time>2010-06-13T10:43:20Z</time>
      </trkpt>
      <trkpt lat="45.74627" lon="6.19984">
        <ele>1388</ele>
        <time>2010-06-13T10:43:29Z</time>
      </trkpt>
      <trkpt lat="45.74629" lon="6.19991">
        <ele>1390</ele>
        <time>2010-06-13T10:43:37Z</time>
      </trkpt>
      <trkpt lat="45.74631" lon="6.19997">
        <ele>1391</ele>
        <time>2010-06-13T10:43:46Z</time>
      </trkpt>
      <trkpt lat="45.74633" lon="6.20003">
        <ele>1393</ele>
        <time>2010-06-13T10:43:55Z</time>
      </trkpt>
      <trkpt lat="45.74635" lon="6.20012">
        <ele>1395</ele>
        <time>2010-06-13T10:44:05Z</time>
      </trkpt>
      <trkpt lat="45.74636" lon="6.20015">
        <ele>1397</ele>
        <time>2010-06-13T10:44:14Z</time>
      </trkpt>
      <trkpt lat="45.74636" lon="6.20018">
        <ele>1398</ele>
        <time>2010-06-13T10:44:22Z</time>
      </trkpt>
      <trkpt lat="45.74637" lon="6.2002">
        <ele>1400</ele>
        <time>2010-06-13T10:44:34Z</time>
      </trkpt>
      <trkpt lat="45.7463" lon="6.2002">
        <ele>1403</ele>
        <time>2010-06-13T10:44:45Z</time>
      </trkpt>
      <trkpt lat="45.74627" lon="6.2002">
        <ele>1404</ele>
        <time>2010-06-13T10:44:53Z</time>
      </trkpt>
      <trkpt lat="45.74623" lon="6.20019">
        <ele>1406</ele>
        <time>2010-06-13T10:45:00Z</time>
      </trkpt>
      <trkpt lat="45.74619" lon="6.2002">
        <ele>1407</ele>
        <time>2010-06-13T10:45:06Z</time>
      </trkpt>
      <trkpt lat="45.74618" lon="6.2002">
        <ele>1408</ele>
        <time>2010-06-13T10:45:13Z</time>
      </trkpt>
      <trkpt lat="45.74626" lon="6.2002">
        <ele>1411</ele>
        <time>2010-06-13T10:45:32Z</time>
      </trkpt>
      <trkpt lat="45.7463" lon="6.20029">
        <ele>1415</ele>
        <time>2010-06-13T10:45:44Z</time>
      </trkpt>
      <trkpt lat="45.74634" lon="6.20035">
        <ele>1418</ele>
        <time>2010-06-13T10:45:56Z</time>
      </trkpt>
      <trkpt lat="45.74634" lon="6.20044">
        <ele>1420</ele>
        <time>2010-06-13T10:46:04Z</time>
      </trkpt>
      <trkpt lat="45.74631" lon="6.20047">
        <ele>1420</ele>
        <time>2010-06-13T10:46:10Z</time>
      </trkpt>
      <trkpt lat="45.74629" lon="6.20049">
        <ele>1421</ele>
        <time>2010-06-13T10:46:19Z</time>
      </trkpt>
      <trkpt lat="45.7463" lon="6.20059">
        <ele>1425</ele>
        <time>2010-06-13T10:46:34Z</time>
      </trkpt>
      <trkpt lat="45.74631" lon="6.20064">
        <ele>1426</ele>
        <time>2010-06-13T10:46:42Z</time>
      </trkpt>
      <trkpt lat="45.74634" lon="6.20068">
        <ele>1429</ele>
        <time>2010-06-13T10:46:53Z</time>
      </trkpt>
      <trkpt lat="45.74626" lon="6.20069">
        <ele>1432</ele>
        <time>2010-06-13T10:47:12Z</time>
      </trkpt>
      <trkpt lat="45.74622" lon="6.20062">
        <ele>1433</ele>
        <time>2010-06-13T10:47:18Z</time>
      </trkpt>
      <trkpt lat="45.74618" lon="6.20057">
        <ele>1433</ele>
        <time>2010-06-13T10:47:24Z</time>
      </trkpt>
      <trkpt lat="45.74614" lon="6.20057">
        <ele>1436</ele>
        <time>2010-06-13T10:47:30Z</time>
      </trkpt>
      <trkpt lat="45.74613" lon="6.20049">
        <ele>1437</ele>
        <time>2010-06-13T10:47:35Z</time>
      </trkpt>
      <trkpt lat="45.74614" lon="6.20041">
        <ele>1437</ele>
        <time>2010-06-13T10:47:37Z</time>
      </trkpt>
      <trkpt lat="45.7461" lon="6.20037">
        <ele>1439</ele>
        <time>2010-06-13T10:47:45Z</time>
      </trkpt>
      <trkpt lat="45.74611" lon="6.20028">
        <ele>1440</ele>
        <time>2010-06-13T10:47:50Z</time>
      </trkpt>
      <trkpt lat="45.74608" lon="6.20019">
        <ele>1442</ele>
        <time>2010-06-13T10:47:57Z</time>
      </trkpt>
      <trkpt lat="45.74606" lon="6.20018">
        <ele>1444</ele>
        <time>2010-06-13T10:48:03Z</time>
      </trkpt>
      <trkpt lat="45.7461" lon="6.20016">
        <ele>1445</ele>
        <time>2010-06-13T10:48:10Z</time>
      </trkpt>
      <trkpt lat="45.74609" lon="6.20022">
        <ele>1448</ele>
        <time>2010-06-13T10:48:21Z</time>
      </trkpt>
      <trkpt lat="45.74591" lon="6.20041">
        <ele>1451</ele>
        <time>2010-06-13T10:48:44Z</time>
      </trkpt>
      <trkpt lat="45.7459" lon="6.20046">
        <ele>1453</ele>
        <time>2010-06-13T10:48:51Z</time>
      </trkpt>
      <trkpt lat="45.74588" lon="6.20047">
        <ele>1455</ele>
        <time>2010-06-13T10:48:59Z</time>
      </trkpt>
      <trkpt lat="45.74587" lon="6.20043">
        <ele>1456</ele>
        <time>2010-06-13T10:49:07Z</time>
      </trkpt>
      <trkpt lat="45.74587" lon="6.20039">
        <ele>1457</ele>
        <time>2010-06-13T10:49:14Z</time>
      </trkpt>
      <trkpt lat="45.74583" lon="6.20037">
        <ele>1457</ele>
        <time>2010-06-13T10:49:24Z</time>
      </trkpt>
      <trkpt lat="45.74579" lon="6.20037">
        <ele>1460</ele>
        <time>2010-06-13T10:49:32Z</time>
      </trkpt>
      <trkpt lat="45.74574" lon="6.20031">
        <ele>1462</ele>
        <time>2010-06-13T10:49:44Z</time>
      </trkpt>
      <trkpt lat="45.74568" lon="6.20027">
        <ele>1464</ele>
        <time>2010-06-13T10:49:55Z</time>
      </trkpt>
      <trkpt lat="45.74561" lon="6.20022">
        <ele>1465</ele>
        <time>2010-06-13T10:50:06Z</time>
      </trkpt>
      <trkpt lat="45.74562" lon="6.20027">
        <ele>1467</ele>
        <time>2010-06-13T10:50:13Z</time>
      </trkpt>
      <trkpt lat="45.74563" lon="6.20035">
        <ele>1469</ele>
        <time>2010-06-13T10:50:21Z</time>
      </trkpt>
      <trkpt lat="45.74566" lon="6.20037">
        <ele>1471</ele>
        <time>2010-06-13T10:50:32Z</time>
      </trkpt>
      <trkpt lat="45.7457" lon="6.20033">
        <ele>1473</ele>
        <time>2010-06-13T10:50:50Z</time>
      </trkpt>
      <trkpt lat="45.74575" lon="6.20034">
        <ele>1477</ele>
        <time>2010-06-13T10:51:09Z</time>
      </trkpt>
      <trkpt lat="45.74578" lon="6.20031">
        <ele>1480</ele>
        <time>2010-06-13T10:51:21Z</time>
      </trkpt>
      <trkpt lat="45.74592" lon="6.20068">
        <ele>1483</ele>
        <time>2010-06-13T10:51:37Z</time>
      </trkpt>
      <trkpt lat="45.74595" lon="6.20076">
        <ele>1483</ele>
        <time>2010-06-13T10:51:46Z</time>
      </trkpt>
      <trkpt lat="45.74603" lon="6.20079">
        <ele>1484</ele>
        <time>2010-06-13T10:51:58Z</time>
      </trkpt>
      <trkpt lat="45.74609" lon="6.20084">
        <ele>1485</ele>
        <time>2010-06-13T10:52:06Z</time>
      </trkpt>
      <trkpt lat="45.74615" lon="6.20086">
        <ele>1487</ele>
        <time>2010-06-13T10:52:13Z</time>
      </trkpt>
      <trkpt lat="45.7462" lon="6.20093">
        <ele>1488</ele>
        <time>2010-06-13T10:52:19Z</time>
      </trkpt>
      <trkpt lat="45.74624" lon="6.20102">
        <ele>1489</ele>
        <time>2010-06-13T10:52:29Z</time>
      </trkpt>
      <trkpt lat="45.74629" lon="6.20104">
        <ele>1491</ele>
        <time>2010-06-13T10:52:39Z</time>
      </trkpt>
      <trkpt lat="45.7463" lon="6.20105">
        <ele>1493</ele>
        <time>2010-06-13T10:52:42Z</time>
      </trkpt>
      <trkpt lat="45.74637" lon="6.20109">
        <ele>1494</ele>
        <time>2010-06-13T10:52:52Z</time>
      </trkpt>
      <trkpt lat="45.74642" lon="6.20113">
        <ele>1495</ele>
        <time>2010-06-13T10:53:00Z</time>
      </trkpt>
      <trkpt lat="45.74647" lon="6.20117">
        <ele>1498</ele>
        <time>2010-06-13T10:53:09Z</time>
      </trkpt>
      <trkpt lat="45.74653" lon="6.20119">
        <ele>1499</ele>
        <time>2010-06-13T10:53:18Z</time>
      </trkpt>
      <trkpt lat="45.74661" lon="6.20125">
        <ele>1500</ele>
        <time>2010-06-13T10:53:30Z</time>
      </trkpt>
      <trkpt lat="45.74665" lon="6.20131">
        <ele>1502</ele>
        <time>2010-06-13T10:53:39Z</time>
      </trkpt>
      <trkpt lat="45.7467" lon="6.20135">
        <ele>1503</ele>
        <time>2010-06-13T10:53:48Z</time>
      </trkpt>
      <trkpt lat="45.74672" lon="6.20143">
        <ele>1505</ele>
        <time>2010-06-13T10:53:58Z</time>
      </trkpt>
      <trkpt lat="45.74672" lon="6.20151">
        <ele>1507</ele>
        <time>2010-06-13T10:54:07Z</time>
      </trkpt>
      <trkpt lat="45.74673" lon="6.20157">
        <ele>1508</ele>
        <time>2010-06-13T10:54:16Z</time>
      </trkpt>
      <trkpt lat="45.74674" lon="6.20164">
        <ele>1511</ele>
        <time>2010-06-13T10:54:26Z</time>
      </trkpt>
      <trkpt lat="45.74676" lon="6.20172">
        <ele>1513</ele>
        <time>2010-06-13T10:54:35Z</time>
      </trkpt>
      <trkpt lat="45.74678" lon="6.20179">
        <ele>1515</ele>
        <time>2010-06-13T10:54:42Z</time>
      </trkpt>
      <trkpt lat="45.7468" lon="6.20186">
        <ele>1518</ele>
        <time>2010-06-13T10:54:52Z</time>
      </trkpt>
      <trkpt lat="45.74684" lon="6.20192">
        <ele>1519</ele>
        <time>2010-06-13T10:55:02Z</time>
      </trkpt>
      <trkpt lat="45.74686" lon="6.20198">
        <ele>1521</ele>
        <time>2010-06-13T10:55:10Z</time>
      </trkpt>
      <trkpt lat="45.74689" lon="6.20205">
        <ele>1522</ele>
        <time>2010-06-13T10:55:20Z</time>
      </trkpt>
      <trkpt lat="45.74691" lon="6.20212">
        <ele>1523</ele>
        <time>2010-06-13T10:55:28Z</time>
      </trkpt>
      <trkpt lat="45.74692" lon="6.20221">
        <ele>1524</ele>
        <time>2010-06-13T10:55:36Z</time>
      </trkpt>
      <trkpt lat="45.74692" lon="6.20227">
        <ele>1525</ele>
        <time>2010-06-13T10:55:41Z</time>
      </trkpt>
      <trkpt lat="45.74691" lon="6.20235">
        <ele>1525</ele>
        <time>2010-06-13T10:55:49Z</time>
      </trkpt>
      <trkpt lat="45.74692" lon="6.20246">
        <ele>1525</ele>
        <time>2010-06-13T10:55:57Z</time>
      </trkpt>
      <trkpt lat="45.74691" lon="6.20259">
        <ele>1525</ele>
        <time>2010-06-13T10:56:05Z</time>
      </trkpt>
      <trkpt lat="45.74691" lon="6.20274">
        <ele>1525</ele>
        <time>2010-06-13T10:56:14Z</time>
      </trkpt>
      <trkpt lat="45.74685" lon="6.20285">
        <ele>1526</ele>
        <time>2010-06-13T10:56:24Z</time>
      </trkpt>
      <trkpt lat="45.74684" lon="6.20293">
        <ele>1527</ele>
        <time>2010-06-13T10:56:31Z</time>
      </trkpt>
      <trkpt lat="45.74681" lon="6.20295">
        <ele>1528</ele>
        <time>2010-06-13T10:56:37Z</time>
      </trkpt>
      <trkpt lat="45.7468" lon="6.20298">
        <ele>1528</ele>
        <time>2010-06-13T10:56:40Z</time>
      </trkpt>
      <trkpt lat="45.74674" lon="6.20306">
        <ele>1528</ele>
        <time>2010-06-13T10:56:49Z</time>
      </trkpt>
      <trkpt lat="45.74673" lon="6.20306">
        <ele>1527</ele>
        <time>2010-06-13T10:56:50Z</time>
      </trkpt>
      <trkpt lat="45.74664" lon="6.2031">
        <ele>1527</ele>
        <time>2010-06-13T10:56:59Z</time>
      </trkpt>
      <trkpt lat="45.74662" lon="6.20311">
        <ele>1527</ele>
        <time>2010-06-13T10:57:01Z</time>
      </trkpt>
      <trkpt lat="45.74651" lon="6.2032">
        <ele>1528</ele>
        <time>2010-06-13T10:57:12Z</time>
      </trkpt>
      <trkpt lat="45.74645" lon="6.20325">
        <ele>1528</ele>
        <time>2010-06-13T10:57:20Z</time>
      </trkpt>
      <trkpt lat="45.74636" lon="6.20326">
        <ele>1528</ele>
        <time>2010-06-13T10:57:27Z</time>
      </trkpt>
      <trkpt lat="45.74623" lon="6.20323">
        <ele>1528</ele>
        <time>2010-06-13T10:57:36Z</time>
      </trkpt>
      <trkpt lat="45.74618" lon="6.20323">
        <ele>1527</ele>
        <time>2010-06-13T10:57:42Z</time>
      </trkpt>
      <trkpt lat="45.74607" lon="6.20327">
        <ele>1526</ele>
        <time>2010-06-13T10:57:51Z</time>
      </trkpt>
      <trkpt lat="45.74599" lon="6.20329">
        <ele>1525</ele>
        <time>2010-06-13T10:57:59Z</time>
      </trkpt>
      <trkpt lat="45.74594" lon="6.20329">
        <ele>1524</ele>
        <time>2010-06-13T10:58:03Z</time>
      </trkpt>
      <trkpt lat="45.74579" lon="6.20331">
        <ele>1523</ele>
        <time>2010-06-13T10:58:14Z</time>
      </trkpt>
      <trkpt lat="45.74568" lon="6.20337">
        <ele>1523</ele>
        <time>2010-06-13T10:58:24Z</time>
      </trkpt>
      <trkpt lat="45.74567" lon="6.20338">
        <ele>1523</ele>
        <time>2010-06-13T10:58:25Z</time>
      </trkpt>
      <trkpt lat="45.74561" lon="6.20354">
        <ele>1522</ele>
        <time>2010-06-13T10:58:36Z</time>
      </trkpt>
      <trkpt lat="45.7456" lon="6.20362">
        <ele>1522</ele>
        <time>2010-06-13T10:58:42Z</time>
      </trkpt>
      <trkpt lat="45.74551" lon="6.20367">
        <ele>1522</ele>
        <time>2010-06-13T10:58:53Z</time>
      </trkpt>
      <trkpt lat="45.74546" lon="6.20369">
        <ele>1523</ele>
        <time>2010-06-13T10:59:01Z</time>
      </trkpt>
      <trkpt lat="45.74538" lon="6.20368">
        <ele>1525</ele>
        <time>2010-06-13T10:59:10Z</time>
      </trkpt>
      <trkpt lat="45.74535" lon="6.20375">
        <ele>1526</ele>
        <time>2010-06-13T10:59:19Z</time>
      </trkpt>
      <trkpt lat="45.74527" lon="6.20375">
        <ele>1527</ele>
        <time>2010-06-13T10:59:27Z</time>
      </trkpt>
      <trkpt lat="45.74518" lon="6.20379">
        <ele>1527</ele>
        <time>2010-06-13T10:59:37Z</time>
      </trkpt>
      <trkpt lat="45.7451" lon="6.20381">
        <ele>1529</ele>
        <time>2010-06-13T10:59:45Z</time>
      </trkpt>
      <trkpt lat="45.74502" lon="6.20385">
        <ele>1530</ele>
        <time>2010-06-13T10:59:55Z</time>
      </trkpt>
      <trkpt lat="45.74498" lon="6.20388">
        <ele>1532</ele>
        <time>2010-06-13T11:00:05Z</time>
      </trkpt>
      <trkpt lat="45.74499" lon="6.2039">
        <ele>1533</ele>
        <time>2010-06-13T11:00:13Z</time>
      </trkpt>
      <trkpt lat="45.74503" lon="6.20392">
        <ele>1536</ele>
        <time>2010-06-13T11:00:22Z</time>
      </trkpt>
      <trkpt lat="45.745" lon="6.20399">
        <ele>1538</ele>
        <time>2010-06-13T11:00:29Z</time>
      </trkpt>
      <trkpt lat="45.74497" lon="6.20404">
        <ele>1538</ele>
        <time>2010-06-13T11:00:33Z</time>
      </trkpt>
      <trkpt lat="45.74491" lon="6.20416">
        <ele>1539</ele>
        <time>2010-06-13T11:00:42Z</time>
      </trkpt>
      <trkpt lat="45.74486" lon="6.20422">
        <ele>1540</ele>
        <time>2010-06-13T11:00:50Z</time>
      </trkpt>
      <trkpt lat="45.74479" lon="6.20423">
        <ele>1540</ele>
        <time>2010-06-13T11:00:56Z</time>
      </trkpt>
      <trkpt lat="45.74463" lon="6.20421">
        <ele>1541</ele>
        <time>2010-06-13T11:01:09Z</time>
      </trkpt>
      <trkpt lat="45.74459" lon="6.20419">
        <ele>1542</ele>
        <time>2010-06-13T11:01:13Z</time>
      </trkpt>
      <trkpt lat="45.74445" lon="6.20411">
        <ele>1542</ele>
        <time>2010-06-13T11:01:25Z</time>
      </trkpt>
      <trkpt lat="45.74436" lon="6.20405">
        <ele>1543</ele>
        <time>2010-06-13T11:01:34Z</time>
      </trkpt>
      <trkpt lat="45.74426" lon="6.20402">
        <ele>1543</ele>
        <time>2010-06-13T11:01:43Z</time>
      </trkpt>
      <trkpt lat="45.74415" lon="6.20403">
        <ele>1544</ele>
        <time>2010-06-13T11:01:53Z</time>
      </trkpt>
      <trkpt lat="45.74402" lon="6.20407">
        <ele>1545</ele>
        <time>2010-06-13T11:02:05Z</time>
      </trkpt>
      <trkpt lat="45.74391" lon="6.20403">
        <ele>1547</ele>
        <time>2010-06-13T11:02:16Z</time>
      </trkpt>
      <trkpt lat="45.7438" lon="6.20405">
        <ele>1549</ele>
        <time>2010-06-13T11:02:27Z</time>
      </trkpt>
      <trkpt lat="45.74373" lon="6.20404">
        <ele>1550</ele>
        <time>2010-06-13T11:02:36Z</time>
      </trkpt>
      <trkpt lat="45.74364" lon="6.20402">
        <ele>1551</ele>
        <time>2010-06-13T11:02:45Z</time>
      </trkpt>
      <trkpt lat="45.74353" lon="6.20402">
        <ele>1552</ele>
        <time>2010-06-13T11:02:56Z</time>
      </trkpt>
      <trkpt lat="45.74346" lon="6.20407">
        <ele>1553</ele>
        <time>2010-06-13T11:03:05Z</time>
      </trkpt>
      <trkpt lat="45.74344" lon="6.20412">
        <ele>1553</ele>
        <time>2010-06-13T11:03:10Z</time>
      </trkpt>
      <trkpt lat="45.74337" lon="6.2042">
        <ele>1554</ele>
        <time>2010-06-13T11:03:21Z</time>
      </trkpt>
      <trkpt lat="45.74336" lon="6.2042">
        <ele>1554</ele>
        <time>2010-06-13T11:03:27Z</time>
      </trkpt>
      <trkpt lat="45.74323" lon="6.20417">
        <ele>1555</ele>
        <time>2010-06-13T11:03:39Z</time>
      </trkpt>
      <trkpt lat="45.74308" lon="6.20409">
        <ele>1555</ele>
        <time>2010-06-13T11:03:52Z</time>
      </trkpt>
      <trkpt lat="45.74294" lon="6.20401">
        <ele>1555</ele>
        <time>2010-06-13T11:04:05Z</time>
      </trkpt>
      <trkpt lat="45.74278" lon="6.204">
        <ele>1555</ele>
        <time>2010-06-13T11:04:19Z</time>
      </trkpt>
      <trkpt lat="45.74267" lon="6.20407">
        <ele>1556</ele>
        <time>2010-06-13T11:04:29Z</time>
      </trkpt>
      <trkpt lat="45.74256" lon="6.20412">
        <ele>1557</ele>
        <time>2010-06-13T11:04:40Z</time>
      </trkpt>
      <trkpt lat="45.74245" lon="6.20423">
        <ele>1558</ele>
        <time>2010-06-13T11:04:52Z</time>
      </trkpt>
      <trkpt lat="45.74235" lon="6.20429">
        <ele>1560</ele>
        <time>2010-06-13T11:05:04Z</time>
      </trkpt>
      <trkpt lat="45.74222" lon="6.20435">
        <ele>1563</ele>
        <time>2010-06-13T11:05:18Z</time>
      </trkpt>
      <trkpt lat="45.7421" lon="6.20446">
        <ele>1564</ele>
        <time>2010-06-13T11:05:31Z</time>
      </trkpt>
      <trkpt lat="45.74197" lon="6.20455">
        <ele>1565</ele>
        <time>2010-06-13T11:05:44Z</time>
      </trkpt>
      <trkpt lat="45.74187" lon="6.20459">
        <ele>1567</ele>
        <time>2010-06-13T11:05:55Z</time>
      </trkpt>
      <trkpt lat="45.74177" lon="6.20465">
        <ele>1569</ele>
        <time>2010-06-13T11:06:08Z</time>
      </trkpt>
      <trkpt lat="45.74171" lon="6.20471">
        <ele>1571</ele>
        <time>2010-06-13T11:06:17Z</time>
      </trkpt>
      <trkpt lat="45.74162" lon="6.20476">
        <ele>1572</ele>
        <time>2010-06-13T11:06:28Z</time>
      </trkpt>
      <trkpt lat="45.74159" lon="6.20479">
        <ele>1572</ele>
        <time>2010-06-13T11:06:37Z</time>
      </trkpt>
      <trkpt lat="45.74148" lon="6.20485">
        <ele>1573</ele>
        <time>2010-06-13T11:14:08Z</time>
      </trkpt>
      <trkpt lat="45.74133" lon="6.20495">
        <ele>1574</ele>
        <time>2010-06-13T11:14:22Z</time>
      </trkpt>
      <trkpt lat="45.74121" lon="6.20505">
        <ele>1575</ele>
        <time>2010-06-13T11:14:33Z</time>
      </trkpt>
      <trkpt lat="45.74107" lon="6.20511">
        <ele>1576</ele>
        <time>2010-06-13T11:14:45Z</time>
      </trkpt>
      <trkpt lat="45.74093" lon="6.20512">
        <ele>1578</ele>
        <time>2010-06-13T11:14:56Z</time>
      </trkpt>
      <trkpt lat="45.74078" lon="6.20517">
        <ele>1579</ele>
        <time>2010-06-13T11:15:09Z</time>
      </trkpt>
      <trkpt lat="45.74063" lon="6.20524">
        <ele>1579</ele>
        <time>2010-06-13T11:15:23Z</time>
      </trkpt>
      <trkpt lat="45.7405" lon="6.20531">
        <ele>1579</ele>
        <time>2010-06-13T11:15:37Z</time>
      </trkpt>
      <trkpt lat="45.74032" lon="6.20536">
        <ele>1579</ele>
        <time>2010-06-13T11:15:53Z</time>
      </trkpt>
      <trkpt lat="45.74018" lon="6.20538">
        <ele>1578</ele>
        <time>2010-06-13T11:16:05Z</time>
      </trkpt>
      <trkpt lat="45.74003" lon="6.2054">
        <ele>1576</ele>
        <time>2010-06-13T11:16:17Z</time>
      </trkpt>
      <trkpt lat="45.73989" lon="6.20538">
        <ele>1575</ele>
        <time>2010-06-13T11:16:28Z</time>
      </trkpt>
      <trkpt lat="45.73983" lon="6.20538">
        <ele>1575</ele>
        <time>2010-06-13T11:16:36Z</time>
      </trkpt>
      <trkpt lat="45.7397" lon="6.20537">
        <ele>1574</ele>
        <time>2010-06-13T11:16:48Z</time>
      </trkpt>
      <trkpt lat="45.73955" lon="6.20536">
        <ele>1573</ele>
        <time>2010-06-13T11:17:00Z</time>
      </trkpt>
      <trkpt lat="45.73936" lon="6.20538">
        <ele>1573</ele>
        <time>2010-06-13T11:17:15Z</time>
      </trkpt>
      <trkpt lat="45.73922" lon="6.20545">
        <ele>1572</ele>
        <time>2010-06-13T11:17:28Z</time>
      </trkpt>
      <trkpt lat="45.73916" lon="6.20547">
        <ele>1572</ele>
        <time>2010-06-13T11:17:37Z</time>
      </trkpt>
      <trkpt lat="45.73907" lon="6.20542">
        <ele>1572</ele>
        <time>2010-06-13T11:17:46Z</time>
      </trkpt>
      <trkpt lat="45.73895" lon="6.20532">
        <ele>1574</ele>
        <time>2010-06-13T11:17:58Z</time>
      </trkpt>
      <trkpt lat="45.73884" lon="6.20525">
        <ele>1575</ele>
        <time>2010-06-13T11:18:09Z</time>
      </trkpt>
      <trkpt lat="45.73872" lon="6.20517">
        <ele>1577</ele>
        <time>2010-06-13T11:18:21Z</time>
      </trkpt>
      <trkpt lat="45.73859" lon="6.20511">
        <ele>1579</ele>
        <time>2010-06-13T11:18:33Z</time>
      </trkpt>
      <trkpt lat="45.73855" lon="6.20509">
        <ele>1580</ele>
        <time>2010-06-13T11:18:37Z</time>
      </trkpt>
      <trkpt lat="45.7384" lon="6.20504">
        <ele>1580</ele>
        <time>2010-06-13T11:18:50Z</time>
      </trkpt>
      <trkpt lat="45.73825" lon="6.205">
        <ele>1580</ele>
        <time>2010-06-13T11:19:03Z</time>
      </trkpt>
      <trkpt lat="45.73811" lon="6.20495">
        <ele>1580</ele>
        <time>2010-06-13T11:19:14Z</time>
      </trkpt>
      <trkpt lat="45.73799" lon="6.20493">
        <ele>1582</ele>
        <time>2010-06-13T11:19:25Z</time>
      </trkpt>
      <trkpt lat="45.73793" lon="6.20492">
        <ele>1583</ele>
        <time>2010-06-13T11:19:34Z</time>
      </trkpt>
      <trkpt lat="45.73787" lon="6.20488">
        <ele>1584</ele>
        <time>2010-06-13T11:19:42Z</time>
      </trkpt>
      <trkpt lat="45.73776" lon="6.20487">
        <ele>1585</ele>
        <time>2010-06-13T11:19:53Z</time>
      </trkpt>
      <trkpt lat="45.73767" lon="6.20487">
        <ele>1588</ele>
        <time>2010-06-13T11:20:02Z</time>
      </trkpt>
      <trkpt lat="45.73754" lon="6.20489">
        <ele>1590</ele>
        <time>2010-06-13T11:20:15Z</time>
      </trkpt>
      <trkpt lat="45.73743" lon="6.20487">
        <ele>1590</ele>
        <time>2010-06-13T11:20:24Z</time>
      </trkpt>
      <trkpt lat="45.73729" lon="6.20484">
        <ele>1591</ele>
        <time>2010-06-13T11:20:36Z</time>
      </trkpt>
      <trkpt lat="45.73719" lon="6.20481">
        <ele>1592</ele>
        <time>2010-06-13T11:20:47Z</time>
      </trkpt>
      <trkpt lat="45.73706" lon="6.20478">
        <ele>1593</ele>
        <time>2010-06-13T11:20:58Z</time>
      </trkpt>
      <trkpt lat="45.73694" lon="6.20474">
        <ele>1594</ele>
        <time>2010-06-13T11:21:10Z</time>
      </trkpt>
      <trkpt lat="45.73681" lon="6.20469">
        <ele>1596</ele>
        <time>2010-06-13T11:21:22Z</time>
      </trkpt>
      <trkpt lat="45.73668" lon="6.20463">
        <ele>1597</ele>
        <time>2010-06-13T11:21:35Z</time>
      </trkpt>
      <trkpt lat="45.7366" lon="6.20455">
        <ele>1598</ele>
        <time>2010-06-13T11:21:44Z</time>
      </trkpt>
      <trkpt lat="45.73648" lon="6.20443">
        <ele>1600</ele>
        <time>2010-06-13T11:21:57Z</time>
      </trkpt>
      <trkpt lat="45.73637" lon="6.20435">
        <ele>1600</ele>
        <time>2010-06-13T11:22:08Z</time>
      </trkpt>
      <trkpt lat="45.73624" lon="6.20428">
        <ele>1601</ele>
        <time>2010-06-13T11:22:19Z</time>
      </trkpt>
      <trkpt lat="45.73613" lon="6.20422">
        <ele>1601</ele>
        <time>2010-06-13T11:22:29Z</time>
      </trkpt>
      <trkpt lat="45.73601" lon="6.20413">
        <ele>1604</ele>
        <time>2010-06-13T11:22:42Z</time>
      </trkpt>
      <trkpt lat="45.73592" lon="6.20404">
        <ele>1605</ele>
        <time>2010-06-13T11:22:52Z</time>
      </trkpt>
      <trkpt lat="45.73578" lon="6.2039">
        <ele>1606</ele>
        <time>2010-06-13T11:23:06Z</time>
      </trkpt>
      <trkpt lat="45.73564" lon="6.2038">
        <ele>1606</ele>
        <time>2010-06-13T11:23:19Z</time>
      </trkpt>
      <trkpt lat="45.73553" lon="6.20371">
        <ele>1607</ele>
        <time>2010-06-13T11:23:31Z</time>
      </trkpt>
      <trkpt lat="45.73542" lon="6.20362">
        <ele>1609</ele>
        <time>2010-06-13T11:23:43Z</time>
      </trkpt>
      <trkpt lat="45.73537" lon="6.20357">
        <ele>1610</ele>
        <time>2010-06-13T11:23:52Z</time>
      </trkpt>
      <trkpt lat="45.73532" lon="6.20349">
        <ele>1614</ele>
        <time>2010-06-13T11:24:02Z</time>
      </trkpt>
      <trkpt lat="45.73525" lon="6.20345">
        <ele>1616</ele>
        <time>2010-06-13T11:24:13Z</time>
      </trkpt>
      <trkpt lat="45.73521" lon="6.2034">
        <ele>1619</ele>
        <time>2010-06-13T11:24:22Z</time>
      </trkpt>
      <trkpt lat="45.73518" lon="6.20334">
        <ele>1619</ele>
        <time>2010-06-13T11:24:30Z</time>
      </trkpt>
      <trkpt lat="45.73511" lon="6.20331">
        <ele>1622</ele>
        <time>2010-06-13T11:24:41Z</time>
      </trkpt>
      <trkpt lat="45.73506" lon="6.20326">
        <ele>1625</ele>
        <time>2010-06-13T11:24:51Z</time>
      </trkpt>
      <trkpt lat="45.73506" lon="6.20322">
        <ele>1625</ele>
        <time>2010-06-13T11:24:54Z</time>
      </trkpt>
      <trkpt lat="45.73502" lon="6.20309">
        <ele>1625</ele>
        <time>2010-06-13T11:25:05Z</time>
      </trkpt>
      <trkpt lat="45.73495" lon="6.20301">
        <ele>1627</ele>
        <time>2010-06-13T11:25:16Z</time>
      </trkpt>
      <trkpt lat="45.73489" lon="6.20294">
        <ele>1630</ele>
        <time>2010-06-13T11:25:28Z</time>
      </trkpt>
      <trkpt lat="45.73485" lon="6.2029">
        <ele>1631</ele>
        <time>2010-06-13T11:25:33Z</time>
      </trkpt>
      <trkpt lat="45.73481" lon="6.20281">
        <ele>1633</ele>
        <time>2010-06-13T11:25:43Z</time>
      </trkpt>
      <trkpt lat="45.73478" lon="6.20274">
        <ele>1636</ele>
        <time>2010-06-13T11:25:51Z</time>
      </trkpt>
      <trkpt lat="45.73475" lon="6.20262">
        <ele>1638</ele>
        <time>2010-06-13T11:26:02Z</time>
      </trkpt>
      <trkpt lat="45.7347" lon="6.20249">
        <ele>1640</ele>
        <time>2010-06-13T11:26:13Z</time>
      </trkpt>
      <trkpt lat="45.73465" lon="6.20243">
        <ele>1643</ele>
        <time>2010-06-13T11:26:22Z</time>
      </trkpt>
      <trkpt lat="45.73457" lon="6.20235">
        <ele>1645</ele>
        <time>2010-06-13T11:26:33Z</time>
      </trkpt>
      <trkpt lat="45.73452" lon="6.20226">
        <ele>1647</ele>
        <time>2010-06-13T11:26:43Z</time>
      </trkpt>
      <trkpt lat="45.73448" lon="6.20218">
        <ele>1649</ele>
        <time>2010-06-13T11:26:54Z</time>
      </trkpt>
      <trkpt lat="45.73444" lon="6.20214">
        <ele>1652</ele>
        <time>2010-06-13T11:27:02Z</time>
      </trkpt>
      <trkpt lat="45.73439" lon="6.20206">
        <ele>1654</ele>
        <time>2010-06-13T11:27:11Z</time>
      </trkpt>
      <trkpt lat="45.73433" lon="6.20199">
        <ele>1656</ele>
        <time>2010-06-13T11:27:20Z</time>
      </trkpt>
      <trkpt lat="45.7343" lon="6.20198">
        <ele>1658</ele>
        <time>2010-06-13T11:27:25Z</time>
      </trkpt>
      <trkpt lat="45.73426" lon="6.20196">
        <ele>1658</ele>
        <time>2010-06-13T11:27:30Z</time>
      </trkpt>
      <trkpt lat="45.73422" lon="6.2019">
        <ele>1662</ele>
        <time>2010-06-13T11:27:39Z</time>
      </trkpt>
      <trkpt lat="45.73419" lon="6.20185">
        <ele>1663</ele>
        <time>2010-06-13T11:27:47Z</time>
      </trkpt>
      <trkpt lat="45.73417" lon="6.20179">
        <ele>1665</ele>
        <time>2010-06-13T11:27:54Z</time>
      </trkpt>
      <trkpt lat="45.73415" lon="6.20172">
        <ele>1667</ele>
        <time>2010-06-13T11:28:02Z</time>
      </trkpt>
      <trkpt lat="45.7341" lon="6.20171">
        <ele>1669</ele>
        <time>2010-06-13T11:28:10Z</time>
      </trkpt>
      <trkpt lat="45.73408" lon="6.20166">
        <ele>1671</ele>
        <time>2010-06-13T11:28:18Z</time>
      </trkpt>
      <trkpt lat="45.73403" lon="6.20159">
        <ele>1674</ele>
        <time>2010-06-13T11:28:28Z</time>
      </trkpt>
      <trkpt lat="45.73401" lon="6.20165">
        <ele>1675</ele>
        <time>2010-06-13T11:28:35Z</time>
      </trkpt>
      <trkpt lat="45.73399" lon="6.2016">
        <ele>1677</ele>
        <time>2010-06-13T11:28:41Z</time>
      </trkpt>
      <trkpt lat="45.73395" lon="6.20156">
        <ele>1680</ele>
        <time>2010-06-13T11:28:51Z</time>
      </trkpt>
      <trkpt lat="45.73393" lon="6.20158">
        <ele>1681</ele>
        <time>2010-06-13T11:28:58Z</time>
      </trkpt>
      <trkpt lat="45.73393" lon="6.20165">
        <ele>1682</ele>
        <time>2010-06-13T11:29:05Z</time>
      </trkpt>
      <trkpt lat="45.73391" lon="6.20174">
        <ele>1684</ele>
        <time>2010-06-13T11:29:14Z</time>
      </trkpt>
      <trkpt lat="45.73389" lon="6.20166">
        <ele>1687</ele>
        <time>2010-06-13T11:29:23Z</time>
      </trkpt>
      <trkpt lat="45.73385" lon="6.20159">
        <ele>1689</ele>
        <time>2010-06-13T11:29:34Z</time>
      </trkpt>
      <trkpt lat="45.73383" lon="6.20166">
        <ele>1691</ele>
        <time>2010-06-13T11:29:42Z</time>
      </trkpt>
      <trkpt lat="45.73379" lon="6.20169">
        <ele>1693</ele>
        <time>2010-06-13T11:29:51Z</time>
      </trkpt>
      <trkpt lat="45.73377" lon="6.2016">
        <ele>1694</ele>
        <time>2010-06-13T11:30:01Z</time>
      </trkpt>
      <trkpt lat="45.73369" lon="6.20161">
        <ele>1695</ele>
        <time>2010-06-13T11:30:11Z</time>
      </trkpt>
      <trkpt lat="45.73363" lon="6.20161">
        <ele>1696</ele>
        <time>2010-06-13T11:30:20Z</time>
      </trkpt>
      <trkpt lat="45.73359" lon="6.20162">
        <ele>1697</ele>
        <time>2010-06-13T11:30:28Z</time>
      </trkpt>
      <trkpt lat="45.73356" lon="6.20161">
        <ele>1698</ele>
        <time>2010-06-13T11:30:45Z</time>
      </trkpt>
      <trkpt lat="45.73349" lon="6.2016">
        <ele>1699</ele>
        <time>2010-06-13T11:30:56Z</time>
      </trkpt>
      <trkpt lat="45.73344" lon="6.20158">
        <ele>1700</ele>
        <time>2010-06-13T11:31:05Z</time>
      </trkpt>
      <trkpt lat="45.73339" lon="6.20156">
        <ele>1701</ele>
        <time>2010-06-13T11:31:14Z</time>
      </trkpt>
      <trkpt lat="45.73334" lon="6.20154">
        <ele>1703</ele>
        <time>2010-06-13T11:31:24Z</time>
      </trkpt>
      <trkpt lat="45.73327" lon="6.20151">
        <ele>1705</ele>
        <time>2010-06-13T11:31:35Z</time>
      </trkpt>
      <trkpt lat="45.73322" lon="6.20149">
        <ele>1706</ele>
        <time>2010-06-13T11:31:45Z</time>
      </trkpt>
      <trkpt lat="45.73317" lon="6.20148">
        <ele>1707</ele>
        <time>2010-06-13T11:31:54Z</time>
      </trkpt>
      <trkpt lat="45.73314" lon="6.20147">
        <ele>1708</ele>
        <time>2010-06-13T11:32:08Z</time>
      </trkpt>
      <trkpt lat="45.73314" lon="6.20134">
        <ele>1709</ele>
        <time>2010-06-13T11:34:01Z</time>
      </trkpt>
      <trkpt lat="45.7331" lon="6.20125">
        <ele>1710</ele>
        <time>2010-06-13T11:34:12Z</time>
      </trkpt>
      <trkpt lat="45.73306" lon="6.20119">
        <ele>1712</ele>
        <time>2010-06-13T11:34:21Z</time>
      </trkpt>
      <trkpt lat="45.73302" lon="6.20111">
        <ele>1714</ele>
        <time>2010-06-13T11:34:31Z</time>
      </trkpt>
      <trkpt lat="45.73296" lon="6.20102">
        <ele>1717</ele>
        <time>2010-06-13T11:34:43Z</time>
      </trkpt>
      <trkpt lat="45.73287" lon="6.20096">
        <ele>1718</ele>
        <time>2010-06-13T11:34:55Z</time>
      </trkpt>
      <trkpt lat="45.73281" lon="6.20091">
        <ele>1720</ele>
        <time>2010-06-13T11:35:05Z</time>
      </trkpt>
      <trkpt lat="45.73275" lon="6.20086">
        <ele>1724</ele>
        <time>2010-06-13T11:35:16Z</time>
      </trkpt>
      <trkpt lat="45.73271" lon="6.20081">
        <ele>1725</ele>
        <time>2010-06-13T11:35:26Z</time>
      </trkpt>
      <trkpt lat="45.73264" lon="6.20074">
        <ele>1727</ele>
        <time>2010-06-13T11:35:37Z</time>
      </trkpt>
      <trkpt lat="45.7326" lon="6.20071">
        <ele>1728</ele>
        <time>2010-06-13T11:35:42Z</time>
      </trkpt>
      <trkpt lat="45.73252" lon="6.20068">
        <ele>1731</ele>
        <time>2010-06-13T11:35:53Z</time>
      </trkpt>
      <trkpt lat="45.73252" lon="6.20068">
        <ele>1731</ele>
        <time>2010-06-13T11:35:54Z</time>
      </trkpt>
      <trkpt lat="45.73242" lon="6.20061">
        <ele>1732</ele>
        <time>2010-06-13T11:36:05Z</time>
      </trkpt>
      <trkpt lat="45.73241" lon="6.2006">
        <ele>1732</ele>
        <time>2010-06-13T11:36:06Z</time>
      </trkpt>
      <trkpt lat="45.73231" lon="6.20051">
        <ele>1733</ele>
        <time>2010-06-13T11:36:18Z</time>
      </trkpt>
      <trkpt lat="45.73222" lon="6.2004">
        <ele>1733</ele>
        <time>2010-06-13T11:36:31Z</time>
      </trkpt>
      <trkpt lat="45.73213" lon="6.2003">
        <ele>1734</ele>
        <time>2010-06-13T11:36:41Z</time>
      </trkpt>
      <trkpt lat="45.73204" lon="6.20017">
        <ele>1736</ele>
        <time>2010-06-13T11:36:54Z</time>
      </trkpt>
      <trkpt lat="45.73196" lon="6.20007">
        <ele>1738</ele>
        <time>2010-06-13T11:37:05Z</time>
      </trkpt>
      <trkpt lat="45.73189" lon="6.19997">
        <ele>1738</ele>
        <time>2010-06-13T11:37:16Z</time>
      </trkpt>
      <trkpt lat="45.73178" lon="6.19987">
        <ele>1740</ele>
        <time>2010-06-13T11:37:28Z</time>
      </trkpt>
      <trkpt lat="45.7317" lon="6.19979">
        <ele>1743</ele>
        <time>2010-06-13T11:37:39Z</time>
      </trkpt>
      <trkpt lat="45.73164" lon="6.19972">
        <ele>1744</ele>
        <time>2010-06-13T11:37:50Z</time>
      </trkpt>
      <trkpt lat="45.73161" lon="6.19965">
        <ele>1747</ele>
        <time>2010-06-13T11:37:58Z</time>
      </trkpt>
      <trkpt lat="45.73157" lon="6.1996">
        <ele>1749</ele>
        <time>2010-06-13T11:38:06Z</time>
      </trkpt>
      <trkpt lat="45.7315" lon="6.19958">
        <ele>1750</ele>
        <time>2010-06-13T11:38:16Z</time>
      </trkpt>
      <trkpt lat="45.73144" lon="6.19956">
        <ele>1752</ele>
        <time>2010-06-13T11:38:25Z</time>
      </trkpt>
      <trkpt lat="45.73138" lon="6.19951">
        <ele>1754</ele>
        <time>2010-06-13T11:38:35Z</time>
      </trkpt>
      <trkpt lat="45.73133" lon="6.19947">
        <ele>1755</ele>
        <time>2010-06-13T11:38:44Z</time>
      </trkpt>
      <trkpt lat="45.73125" lon="6.19945">
        <ele>1756</ele>
        <time>2010-06-13T11:38:54Z</time>
      </trkpt>
      <trkpt lat="45.73118" lon="6.19943">
        <ele>1759</ele>
        <time>2010-06-13T11:39:04Z</time>
      </trkpt>
      <trkpt lat="45.73113" lon="6.19941">
        <ele>1761</ele>
        <time>2010-06-13T11:39:15Z</time>
      </trkpt>
      <trkpt lat="45.73108" lon="6.19933">
        <ele>1763</ele>
        <time>2010-06-13T11:39:25Z</time>
      </trkpt>
      <trkpt lat="45.73103" lon="6.19926">
        <ele>1765</ele>
        <time>2010-06-13T11:39:36Z</time>
      </trkpt>
      <trkpt lat="45.73099" lon="6.19923">
        <ele>1767</ele>
        <time>2010-06-13T11:39:45Z</time>
      </trkpt>
      <trkpt lat="45.73092" lon="6.19915">
        <ele>1769</ele>
        <time>2010-06-13T11:39:57Z</time>
      </trkpt>
      <trkpt lat="45.73086" lon="6.19908">
        <ele>1770</ele>
        <time>2010-06-13T11:40:08Z</time>
      </trkpt>
      <trkpt lat="45.73082" lon="6.19899">
        <ele>1773</ele>
        <time>2010-06-13T11:40:19Z</time>
      </trkpt>
      <trkpt lat="45.73078" lon="6.1989">
        <ele>1775</ele>
        <time>2010-06-13T11:40:32Z</time>
      </trkpt>
      <trkpt lat="45.73074" lon="6.19891">
        <ele>1777</ele>
        <time>2010-06-13T11:40:40Z</time>
      </trkpt>
      <trkpt lat="45.7307" lon="6.1989">
        <ele>1779</ele>
        <time>2010-06-13T11:40:49Z</time>
      </trkpt>
      <trkpt lat="45.73065" lon="6.19889">
        <ele>1780</ele>
        <time>2010-06-13T11:40:58Z</time>
      </trkpt>
      <trkpt lat="45.73061" lon="6.19889">
        <ele>1782</ele>
        <time>2010-06-13T11:41:06Z</time>
      </trkpt>
      <trkpt lat="45.73057" lon="6.19888">
        <ele>1784</ele>
        <time>2010-06-13T11:41:15Z</time>
      </trkpt>
      <trkpt lat="45.73051" lon="6.19886">
        <ele>1787</ele>
        <time>2010-06-13T11:41:27Z</time>
      </trkpt>
      <trkpt lat="45.73046" lon="6.19883">
        <ele>1788</ele>
        <time>2010-06-13T11:41:37Z</time>
      </trkpt>
      <trkpt lat="45.73043" lon="6.19878">
        <ele>1791</ele>
        <time>2010-06-13T11:41:47Z</time>
      </trkpt>
      <trkpt lat="45.73039" lon="6.19872">
        <ele>1794</ele>
        <time>2010-06-13T11:41:59Z</time>
      </trkpt>
      <trkpt lat="45.73042" lon="6.19865">
        <ele>1796</ele>
        <time>2010-06-13T11:42:09Z</time>
      </trkpt>
      <trkpt lat="45.73045" lon="6.19862">
        <ele>1797</ele>
        <time>2010-06-13T11:42:16Z</time>
      </trkpt>
      <trkpt lat="45.73048" lon="6.19857">
        <ele>1799</ele>
        <time>2010-06-13T11:42:24Z</time>
      </trkpt>
      <trkpt lat="45.7305" lon="6.19851">
        <ele>1801</ele>
        <time>2010-06-13T11:42:34Z</time>
      </trkpt>
      <trkpt lat="45.73046" lon="6.19849">
        <ele>1803</ele>
        <time>2010-06-13T11:42:42Z</time>
      </trkpt>
      <trkpt lat="45.7304" lon="6.19845">
        <ele>1805</ele>
        <time>2010-06-13T11:42:52Z</time>
      </trkpt>
      <trkpt lat="45.73034" lon="6.19841">
        <ele>1806</ele>
        <time>2010-06-13T11:43:03Z</time>
      </trkpt>
      <trkpt lat="45.73029" lon="6.19833">
        <ele>1807</ele>
        <time>2010-06-13T11:43:15Z</time>
      </trkpt>
      <trkpt lat="45.73024" lon="6.19827">
        <ele>1808</ele>
        <time>2010-06-13T11:43:25Z</time>
      </trkpt>
      <trkpt lat="45.73019" lon="6.19821">
        <ele>1810</ele>
        <time>2010-06-13T11:43:35Z</time>
      </trkpt>
      <trkpt lat="45.73014" lon="6.19814">
        <ele>1813</ele>
        <time>2010-06-13T11:43:46Z</time>
      </trkpt>
      <trkpt lat="45.73009" lon="6.19808">
        <ele>1817</ele>
        <time>2010-06-13T11:43:57Z</time>
      </trkpt>
      <trkpt lat="45.73003" lon="6.19801">
        <ele>1818</ele>
        <time>2010-06-13T11:44:08Z</time>
      </trkpt>
      <trkpt lat="45.72999" lon="6.19795">
        <ele>1819</ele>
        <time>2010-06-13T11:44:18Z</time>
      </trkpt>
      <trkpt lat="45.72997" lon="6.19793">
        <ele>1820</ele>
        <time>2010-06-13T11:44:21Z</time>
      </trkpt>
      <trkpt lat="45.7299" lon="6.19787">
        <ele>1822</ele>
        <time>2010-06-13T11:44:32Z</time>
      </trkpt>
      <trkpt lat="45.72985" lon="6.1978">
        <ele>1824</ele>
        <time>2010-06-13T11:44:42Z</time>
      </trkpt>
      <trkpt lat="45.7298" lon="6.19772">
        <ele>1825</ele>
        <time>2010-06-13T11:44:52Z</time>
      </trkpt>
      <trkpt lat="45.72977" lon="6.19762">
        <ele>1826</ele>
        <time>2010-06-13T11:45:01Z</time>
      </trkpt>
      <trkpt lat="45.72977" lon="6.1975">
        <ele>1828</ele>
        <time>2010-06-13T11:45:11Z</time>
      </trkpt>
      <trkpt lat="45.72976" lon="6.1974">
        <ele>1831</ele>
        <time>2010-06-13T11:45:21Z</time>
      </trkpt>
      <trkpt lat="45.72973" lon="6.19728">
        <ele>1832</ele>
        <time>2010-06-13T11:45:32Z</time>
      </trkpt>
      <trkpt lat="45.72969" lon="6.19716">
        <ele>1834</ele>
        <time>2010-06-13T11:45:43Z</time>
      </trkpt>
      <trkpt lat="45.72967" lon="6.19704">
        <ele>1836</ele>
        <time>2010-06-13T11:45:54Z</time>
      </trkpt>
      <trkpt lat="45.72966" lon="6.19691">
        <ele>1837</ele>
        <time>2010-06-13T11:46:05Z</time>
      </trkpt>
      <trkpt lat="45.72966" lon="6.19676">
        <ele>1840</ele>
        <time>2010-06-13T11:46:17Z</time>
      </trkpt>
      <trkpt lat="45.72967" lon="6.19667">
        <ele>1841</ele>
        <time>2010-06-13T11:46:26Z</time>
      </trkpt>
      <trkpt lat="45.72966" lon="6.19656">
        <ele>1843</ele>
        <time>2010-06-13T11:46:36Z</time>
      </trkpt>
      <trkpt lat="45.72962" lon="6.19646">
        <ele>1845</ele>
        <time>2010-06-13T11:46:47Z</time>
      </trkpt>
      <trkpt lat="45.72964" lon="6.19635">
        <ele>1847</ele>
        <time>2010-06-13T11:46:59Z</time>
      </trkpt>
      <trkpt lat="45.72968" lon="6.19626">
        <ele>1849</ele>
        <time>2010-06-13T11:47:10Z</time>
      </trkpt>
      <trkpt lat="45.72974" lon="6.19618">
        <ele>1852</ele>
        <time>2010-06-13T11:47:23Z</time>
      </trkpt>
      <trkpt lat="45.72977" lon="6.19614">
        <ele>1854</ele>
        <time>2010-06-13T11:47:30Z</time>
      </trkpt>
      <trkpt lat="45.72986" lon="6.19611">
        <ele>1855</ele>
        <time>2010-06-13T11:47:42Z</time>
      </trkpt>
      <trkpt lat="45.72993" lon="6.19609">
        <ele>1857</ele>
        <time>2010-06-13T11:47:52Z</time>
      </trkpt>
      <trkpt lat="45.72997" lon="6.19607">
        <ele>1860</ele>
        <time>2010-06-13T11:48:02Z</time>
      </trkpt>
      <trkpt lat="45.73002" lon="6.19604">
        <ele>1863</ele>
        <time>2010-06-13T11:48:13Z</time>
      </trkpt>
      <trkpt lat="45.73003" lon="6.19597">
        <ele>1865</ele>
        <time>2010-06-13T11:48:23Z</time>
      </trkpt>
      <trkpt lat="45.73004" lon="6.19589">
        <ele>1867</ele>
        <time>2010-06-13T11:48:34Z</time>
      </trkpt>
      <trkpt lat="45.73004" lon="6.19582">
        <ele>1868</ele>
        <time>2010-06-13T11:48:45Z</time>
      </trkpt>
      <trkpt lat="45.73004" lon="6.19578">
        <ele>1870</ele>
        <time>2010-06-13T11:48:53Z</time>
      </trkpt>
      <trkpt lat="45.73004" lon="6.1957">
        <ele>1872</ele>
        <time>2010-06-13T11:49:04Z</time>
      </trkpt>
      <trkpt lat="45.73006" lon="6.19564">
        <ele>1875</ele>
        <time>2010-06-13T11:49:14Z</time>
      </trkpt>
      <trkpt lat="45.73004" lon="6.19558">
        <ele>1877</ele>
        <time>2010-06-13T11:49:24Z</time>
      </trkpt>
      <trkpt lat="45.73002" lon="6.19555">
        <ele>1878</ele>
        <time>2010-06-13T11:49:33Z</time>
      </trkpt>
      <trkpt lat="45.73001" lon="6.19548">
        <ele>1880</ele>
        <time>2010-06-13T11:49:44Z</time>
      </trkpt>
      <trkpt lat="45.73" lon="6.19543">
        <ele>1882</ele>
        <time>2010-06-13T11:49:53Z</time>
      </trkpt>
      <trkpt lat="45.72999" lon="6.19537">
        <ele>1884</ele>
        <time>2010-06-13T11:50:03Z</time>
      </trkpt>
      <trkpt lat="45.73002" lon="6.19534">
        <ele>1886</ele>
        <time>2010-06-13T11:50:12Z</time>
      </trkpt>
      <trkpt lat="45.73001" lon="6.19532">
        <ele>1887</ele>
        <time>2010-06-13T11:50:18Z</time>
      </trkpt>
      <trkpt lat="45.73002" lon="6.19529">
        <ele>1890</ele>
        <time>2010-06-13T11:50:28Z</time>
      </trkpt>
      <trkpt lat="45.73002" lon="6.19524">
        <ele>1892</ele>
        <time>2010-06-13T11:50:38Z</time>
      </trkpt>
      <trkpt lat="45.73001" lon="6.19519">
        <ele>1893</ele>
        <time>2010-06-13T11:50:49Z</time>
      </trkpt>
      <trkpt lat="45.72997" lon="6.19517">
        <ele>1895</ele>
        <time>2010-06-13T11:50:58Z</time>
      </trkpt>
      <trkpt lat="45.72995" lon="6.19513">
        <ele>1898</ele>
        <time>2010-06-13T11:51:08Z</time>
      </trkpt>
      <trkpt lat="45.72995" lon="6.1951">
        <ele>1899</ele>
        <time>2010-06-13T11:51:16Z</time>
      </trkpt>
      <trkpt lat="45.72995" lon="6.19506">
        <ele>1900</ele>
        <time>2010-06-13T11:51:25Z</time>
      </trkpt>
      <trkpt lat="45.72996" lon="6.19505">
        <ele>1902</ele>
        <time>2010-06-13T11:51:32Z</time>
      </trkpt>
      <trkpt lat="45.72999" lon="6.19504">
        <ele>1903</ele>
        <time>2010-06-13T11:51:41Z</time>
      </trkpt>
      <trkpt lat="45.72999" lon="6.195">
        <ele>1905</ele>
        <time>2010-06-13T11:51:50Z</time>
      </trkpt>
      <trkpt lat="45.73003" lon="6.195">
        <ele>1908</ele>
        <time>2010-06-13T11:51:59Z</time>
      </trkpt>
      <trkpt lat="45.7301" lon="6.19502">
        <ele>1909</ele>
        <time>2010-06-13T11:52:09Z</time>
      </trkpt>
      <trkpt lat="45.73015" lon="6.19507">
        <ele>1909</ele>
        <time>2010-06-13T11:52:18Z</time>
      </trkpt>
      <trkpt lat="45.73017" lon="6.1951">
        <ele>1909</ele>
        <time>2010-06-13T11:52:27Z</time>
      </trkpt>
      <trkpt lat="45.73021" lon="6.19512">
        <ele>1907</ele>
        <time>2010-06-13T11:52:41Z</time>
      </trkpt>
      <trkpt lat="45.73022" lon="6.19514">
        <ele>1906</ele>
        <time>2010-06-13T11:52:49Z</time>
      </trkpt>
      <trkpt lat="45.73023" lon="6.19514">
        <ele>1906</ele>
        <time>2010-06-13T11:53:02Z</time>
      </trkpt>
      <trkpt lat="45.73023" lon="6.19514">
        <ele>1906</ele>
        <time>2010-06-13T11:53:13Z</time>
      </trkpt>
      <trkpt lat="45.73024" lon="6.19514">
        <ele>1906</ele>
        <time>2010-06-13T11:53:41Z</time>
      </trkpt>
      <trkpt lat="45.73024" lon="6.19514">
        <ele>1905</ele>
        <time>2010-06-13T11:53:48Z</time>
      </trkpt>
      <trkpt lat="45.73021" lon="6.19512">
        <ele>1907</ele>
        <time>2010-06-13T11:57:52Z</time>
      </trkpt>
      <trkpt lat="45.7302" lon="6.19511">
        <ele>1909</ele>
        <time>2010-06-13T11:58:00Z</time>
      </trkpt>
      <trkpt lat="45.73017" lon="6.1951">
        <ele>1911</ele>
        <time>2010-06-13T11:58:09Z</time>
      </trkpt>
      <trkpt lat="45.73015" lon="6.19508">
        <ele>1911</ele>
        <time>2010-06-13T11:58:17Z</time>
      </trkpt>
      <trkpt lat="45.7301" lon="6.19503">
        <ele>1911</ele>
        <time>2010-06-13T11:58:26Z</time>
      </trkpt>
      <trkpt lat="45.73004" lon="6.19503">
        <ele>1909</ele>
        <time>2010-06-13T11:58:36Z</time>
      </trkpt>
      <trkpt lat="45.73002" lon="6.19502">
        <ele>1908</ele>
        <time>2010-06-13T11:58:46Z</time>
      </trkpt>
      <trkpt lat="45.73001" lon="6.19501">
        <ele>1907</ele>
        <time>2010-06-13T11:58:55Z</time>
      </trkpt>
      <trkpt lat="45.73" lon="6.19501">
        <ele>1907</ele>
        <time>2010-06-13T11:59:27Z</time>
      </trkpt>
      <trkpt lat="45.72999" lon="6.19502">
        <ele>1906</ele>
        <time>2010-06-13T11:59:36Z</time>
      </trkpt>
      <trkpt lat="45.72998" lon="6.19503">
        <ele>1906</ele>
        <time>2010-06-13T11:59:49Z</time>
      </trkpt>
      <trkpt lat="45.72999" lon="6.19507">
        <ele>1905</ele>
        <time>2010-06-13T11:59:56Z</time>
      </trkpt>
      <trkpt lat="45.72995" lon="6.19507">
        <ele>1903</ele>
        <time>2010-06-13T12:00:04Z</time>
      </trkpt>
      <trkpt lat="45.72995" lon="6.19511">
        <ele>1901</ele>
        <time>2010-06-13T12:00:12Z</time>
      </trkpt>
      <trkpt lat="45.72995" lon="6.19511">
        <ele>1900</ele>
        <time>2010-06-13T12:00:26Z</time>
      </trkpt>
      <trkpt lat="45.72996" lon="6.19515">
        <ele>1898</ele>
        <time>2010-06-13T12:00:36Z</time>
      </trkpt>
      <trkpt lat="45.72997" lon="6.19519">
        <ele>1898</ele>
        <time>2010-06-13T12:00:43Z</time>
      </trkpt>
      <trkpt lat="45.73002" lon="6.19522">
        <ele>1896</ele>
        <time>2010-06-13T12:00:51Z</time>
      </trkpt>
      <trkpt lat="45.73003" lon="6.19529">
        <ele>1894</ele>
        <time>2010-06-13T12:00:59Z</time>
      </trkpt>
      <trkpt lat="45.73004" lon="6.19533">
        <ele>1891</ele>
        <time>2010-06-13T12:01:08Z</time>
      </trkpt>
      <trkpt lat="45.73002" lon="6.19535">
        <ele>1889</ele>
        <time>2010-06-13T12:01:15Z</time>
      </trkpt>
      <trkpt lat="45.73003" lon="6.19538">
        <ele>1888</ele>
        <time>2010-06-13T12:01:19Z</time>
      </trkpt>
      <trkpt lat="45.73" lon="6.19542">
        <ele>1886</ele>
        <time>2010-06-13T12:01:27Z</time>
      </trkpt>
      <trkpt lat="45.73" lon="6.19546">
        <ele>1884</ele>
        <time>2010-06-13T12:01:35Z</time>
      </trkpt>
      <trkpt lat="45.73001" lon="6.19553">
        <ele>1882</ele>
        <time>2010-06-13T12:01:43Z</time>
      </trkpt>
      <trkpt lat="45.73003" lon="6.19559">
        <ele>1880</ele>
        <time>2010-06-13T12:01:51Z</time>
      </trkpt>
      <trkpt lat="45.73006" lon="6.19566">
        <ele>1879</ele>
        <time>2010-06-13T12:02:01Z</time>
      </trkpt>
      <trkpt lat="45.73005" lon="6.19569">
        <ele>1877</ele>
        <time>2010-06-13T12:02:11Z</time>
      </trkpt>
      <trkpt lat="45.73004" lon="6.19576">
        <ele>1875</ele>
        <time>2010-06-13T12:02:19Z</time>
      </trkpt>
      <trkpt lat="45.73004" lon="6.19584">
        <ele>1872</ele>
        <time>2010-06-13T12:02:28Z</time>
      </trkpt>
      <trkpt lat="45.73004" lon="6.19592">
        <ele>1869</ele>
        <time>2010-06-13T12:02:40Z</time>
      </trkpt>
      <trkpt lat="45.73004" lon="6.19597">
        <ele>1867</ele>
        <time>2010-06-13T12:02:47Z</time>
      </trkpt>
      <trkpt lat="45.73004" lon="6.19599">
        <ele>1866</ele>
        <time>2010-06-13T12:02:49Z</time>
      </trkpt>
      <trkpt lat="45.73004" lon="6.19602">
        <ele>1865</ele>
        <time>2010-06-13T12:02:53Z</time>
      </trkpt>
      <trkpt lat="45.73001" lon="6.19608">
        <ele>1863</ele>
        <time>2010-06-13T12:03:01Z</time>
      </trkpt>
      <trkpt lat="45.73" lon="6.19608">
        <ele>1862</ele>
        <time>2010-06-13T12:03:12Z</time>
      </trkpt>
      <trkpt lat="45.72994" lon="6.19611">
        <ele>1859</ele>
        <time>2010-06-13T12:03:22Z</time>
      </trkpt>
      <trkpt lat="45.72993" lon="6.19612">
        <ele>1858</ele>
        <time>2010-06-13T12:03:24Z</time>
      </trkpt>
      <trkpt lat="45.72985" lon="6.19616">
        <ele>1857</ele>
        <time>2010-06-13T12:03:34Z</time>
      </trkpt>
      <trkpt lat="45.72976" lon="6.19617">
        <ele>1856</ele>
        <time>2010-06-13T12:03:43Z</time>
      </trkpt>
      <trkpt lat="45.72973" lon="6.19621">
        <ele>1855</ele>
        <time>2010-06-13T12:03:51Z</time>
      </trkpt>
      <trkpt lat="45.72969" lon="6.19627">
        <ele>1854</ele>
        <time>2010-06-13T12:03:57Z</time>
      </trkpt>
      <trkpt lat="45.72966" lon="6.19631">
        <ele>1853</ele>
        <time>2010-06-13T12:04:01Z</time>
      </trkpt>
      <trkpt lat="45.72964" lon="6.19635">
        <ele>1851</ele>
        <time>2010-06-13T12:04:04Z</time>
      </trkpt>
      <trkpt lat="45.72963" lon="6.1964">
        <ele>1849</ele>
        <time>2010-06-13T12:04:08Z</time>
      </trkpt>
      <trkpt lat="45.72962" lon="6.19643">
        <ele>1848</ele>
        <time>2010-06-13T12:04:10Z</time>
      </trkpt>
      <trkpt lat="45.72962" lon="6.1965">
        <ele>1847</ele>
        <time>2010-06-13T12:04:15Z</time>
      </trkpt>
      <trkpt lat="45.72967" lon="6.19665">
        <ele>1844</ele>
        <time>2010-06-13T12:04:26Z</time>
      </trkpt>
      <trkpt lat="45.72968" lon="6.19671">
        <ele>1843</ele>
        <time>2010-06-13T12:04:30Z</time>
      </trkpt>
      <trkpt lat="45.72968" lon="6.19686">
        <ele>1841</ele>
        <time>2010-06-13T12:04:40Z</time>
      </trkpt>
      <trkpt lat="45.72969" lon="6.19706">
        <ele>1839</ele>
        <time>2010-06-13T12:04:52Z</time>
      </trkpt>
      <trkpt lat="45.72971" lon="6.19719">
        <ele>1836</ele>
        <time>2010-06-13T12:05:00Z</time>
      </trkpt>
      <trkpt lat="45.72976" lon="6.19736">
        <ele>1834</ele>
        <time>2010-06-13T12:05:12Z</time>
      </trkpt>
      <trkpt lat="45.72978" lon="6.19744">
        <ele>1832</ele>
        <time>2010-06-13T12:05:18Z</time>
      </trkpt>
      <trkpt lat="45.72977" lon="6.19748">
        <ele>1831</ele>
        <time>2010-06-13T12:05:21Z</time>
      </trkpt>
      <trkpt lat="45.72978" lon="6.1976">
        <ele>1830</ele>
        <time>2010-06-13T12:05:29Z</time>
      </trkpt>
      <trkpt lat="45.72983" lon="6.19773">
        <ele>1829</ele>
        <time>2010-06-13T12:05:39Z</time>
      </trkpt>
      <trkpt lat="45.72987" lon="6.1978">
        <ele>1827</ele>
        <time>2010-06-13T12:05:45Z</time>
      </trkpt>
      <trkpt lat="45.72994" lon="6.19788">
        <ele>1823</ele>
        <time>2010-06-13T12:05:55Z</time>
      </trkpt>
      <trkpt lat="45.72997" lon="6.19791">
        <ele>1824</ele>
        <time>2010-06-13T12:06:03Z</time>
      </trkpt>
      <trkpt lat="45.73001" lon="6.19795">
        <ele>1821</ele>
        <time>2010-06-13T12:06:08Z</time>
      </trkpt>
      <trkpt lat="45.73006" lon="6.19802">
        <ele>1819</ele>
        <time>2010-06-13T12:06:16Z</time>
      </trkpt>
      <trkpt lat="45.73013" lon="6.1981">
        <ele>1817</ele>
        <time>2010-06-13T12:06:26Z</time>
      </trkpt>
      <trkpt lat="45.73021" lon="6.19821">
        <ele>1815</ele>
        <time>2010-06-13T12:06:39Z</time>
      </trkpt>
      <trkpt lat="45.73027" lon="6.19829">
        <ele>1813</ele>
        <time>2010-06-13T12:06:50Z</time>
      </trkpt>
      <trkpt lat="45.73032" lon="6.19837">
        <ele>1811</ele>
        <time>2010-06-13T12:06:59Z</time>
      </trkpt>
      <trkpt lat="45.73041" lon="6.19846">
        <ele>1808</ele>
        <time>2010-06-13T12:07:11Z</time>
      </trkpt>
      <trkpt lat="45.73046" lon="6.19849">
        <ele>1806</ele>
        <time>2010-06-13T12:07:17Z</time>
      </trkpt>
      <trkpt lat="45.73051" lon="6.19851">
        <ele>1805</ele>
        <time>2010-06-13T12:07:25Z</time>
      </trkpt>
      <trkpt lat="45.73053" lon="6.19855">
        <ele>1802</ele>
        <time>2010-06-13T12:07:33Z</time>
      </trkpt>
      <trkpt lat="45.73048" lon="6.19861">
        <ele>1800</ele>
        <time>2010-06-13T12:07:44Z</time>
      </trkpt>
      <trkpt lat="45.73046" lon="6.19863">
        <ele>1800</ele>
        <time>2010-06-13T12:08:00Z</time>
      </trkpt>
      <trkpt lat="45.73044" lon="6.19865">
        <ele>1799</ele>
        <time>2010-06-13T12:08:08Z</time>
      </trkpt>
      <trkpt lat="45.73041" lon="6.19868">
        <ele>1798</ele>
        <time>2010-06-13T12:08:15Z</time>
      </trkpt>
      <trkpt lat="45.73043" lon="6.19874">
        <ele>1796</ele>
        <time>2010-06-13T12:08:23Z</time>
      </trkpt>
      <trkpt lat="45.73046" lon="6.1988">
        <ele>1793</ele>
        <time>2010-06-13T12:08:30Z</time>
      </trkpt>
      <trkpt lat="45.73053" lon="6.19885">
        <ele>1790</ele>
        <time>2010-06-13T12:08:39Z</time>
      </trkpt>
      <trkpt lat="45.73061" lon="6.19887">
        <ele>1787</ele>
        <time>2010-06-13T12:08:49Z</time>
      </trkpt>
      <trkpt lat="45.73063" lon="6.19887">
        <ele>1786</ele>
        <time>2010-06-13T12:08:51Z</time>
      </trkpt>
      <trkpt lat="45.73067" lon="6.19887">
        <ele>1784</ele>
        <time>2010-06-13T12:08:56Z</time>
      </trkpt>
      <trkpt lat="45.73075" lon="6.1989">
        <ele>1781</ele>
        <time>2010-06-13T12:09:05Z</time>
      </trkpt>
      <trkpt lat="45.7308" lon="6.1989">
        <ele>1779</ele>
        <time>2010-06-13T12:09:11Z</time>
      </trkpt>
      <trkpt lat="45.73084" lon="6.19901">
        <ele>1777</ele>
        <time>2010-06-13T12:09:20Z</time>
      </trkpt>
      <trkpt lat="45.73086" lon="6.19906">
        <ele>1776</ele>
        <time>2010-06-13T12:09:24Z</time>
      </trkpt>
      <trkpt lat="45.73093" lon="6.19915">
        <ele>1772</ele>
        <time>2010-06-13T12:09:34Z</time>
      </trkpt>
      <trkpt lat="45.73097" lon="6.19919">
        <ele>1771</ele>
        <time>2010-06-13T12:09:38Z</time>
      </trkpt>
      <trkpt lat="45.73105" lon="6.19925">
        <ele>1768</ele>
        <time>2010-06-13T12:09:49Z</time>
      </trkpt>
      <trkpt lat="45.7311" lon="6.19933">
        <ele>1767</ele>
        <time>2010-06-13T12:09:57Z</time>
      </trkpt>
      <trkpt lat="45.73115" lon="6.19941">
        <ele>1766</ele>
        <time>2010-06-13T12:10:06Z</time>
      </trkpt>
      <trkpt lat="45.73122" lon="6.19943">
        <ele>1763</ele>
        <time>2010-06-13T12:10:16Z</time>
      </trkpt>
      <trkpt lat="45.73125" lon="6.19944">
        <ele>1762</ele>
        <time>2010-06-13T12:10:22Z</time>
      </trkpt>
      <trkpt lat="45.73131" lon="6.19944">
        <ele>1761</ele>
        <time>2010-06-13T12:10:29Z</time>
      </trkpt>
      <trkpt lat="45.7314" lon="6.19951">
        <ele>1758</ele>
        <time>2010-06-13T12:10:40Z</time>
      </trkpt>
      <trkpt lat="45.73146" lon="6.19957">
        <ele>1757</ele>
        <time>2010-06-13T12:10:49Z</time>
      </trkpt>
      <trkpt lat="45.73148" lon="6.1996">
        <ele>1756</ele>
        <time>2010-06-13T12:10:58Z</time>
      </trkpt>
      <trkpt lat="45.7315" lon="6.19962">
        <ele>1755</ele>
        <time>2010-06-13T12:11:00Z</time>
      </trkpt>
      <trkpt lat="45.73156" lon="6.1997">
        <ele>1752</ele>
        <time>2010-06-13T12:11:10Z</time>
      </trkpt>
      <trkpt lat="45.73161" lon="6.19973">
        <ele>1750</ele>
        <time>2010-06-13T12:11:19Z</time>
      </trkpt>
      <trkpt lat="45.73164" lon="6.19974">
        <ele>1749</ele>
        <time>2010-06-13T12:11:23Z</time>
      </trkpt>
      <trkpt lat="45.73169" lon="6.19976">
        <ele>1748</ele>
        <time>2010-06-13T12:11:31Z</time>
      </trkpt>
      <trkpt lat="45.73171" lon="6.19981">
        <ele>1747</ele>
        <time>2010-06-13T12:11:36Z</time>
      </trkpt>
      <trkpt lat="45.73182" lon="6.19989">
        <ele>1743</ele>
        <time>2010-06-13T12:11:48Z</time>
      </trkpt>
      <trkpt lat="45.73186" lon="6.19993">
        <ele>1743</ele>
        <time>2010-06-13T12:11:56Z</time>
      </trkpt>
      <trkpt lat="45.73197" lon="6.20008">
        <ele>1742</ele>
        <time>2010-06-13T12:12:09Z</time>
      </trkpt>
      <trkpt lat="45.73208" lon="6.20021">
        <ele>1740</ele>
        <time>2010-06-13T12:12:21Z</time>
      </trkpt>
      <trkpt lat="45.73216" lon="6.20031">
        <ele>1738</ele>
        <time>2010-06-13T12:12:31Z</time>
      </trkpt>
      <trkpt lat="45.73225" lon="6.20042">
        <ele>1738</ele>
        <time>2010-06-13T12:12:41Z</time>
      </trkpt>
      <trkpt lat="45.73234" lon="6.20053">
        <ele>1736</ele>
        <time>2010-06-13T12:12:51Z</time>
      </trkpt>
      <trkpt lat="45.73248" lon="6.20065">
        <ele>1736</ele>
        <time>2010-06-13T12:13:04Z</time>
      </trkpt>
      <trkpt lat="45.73257" lon="6.20069">
        <ele>1733</ele>
        <time>2010-06-13T12:13:13Z</time>
      </trkpt>
      <trkpt lat="45.73259" lon="6.2007">
        <ele>1733</ele>
        <time>2010-06-13T12:13:15Z</time>
      </trkpt>
      <trkpt lat="45.73262" lon="6.20072">
        <ele>1732</ele>
        <time>2010-06-13T12:13:23Z</time>
      </trkpt>
      <trkpt lat="45.73264" lon="6.20074">
        <ele>1731</ele>
        <time>2010-06-13T12:13:26Z</time>
      </trkpt>
      <trkpt lat="45.73272" lon="6.2008">
        <ele>1730</ele>
        <time>2010-06-13T12:13:36Z</time>
      </trkpt>
      <trkpt lat="45.73273" lon="6.2008">
        <ele>1730</ele>
        <time>2010-06-13T12:13:47Z</time>
      </trkpt>
      <trkpt lat="45.73278" lon="6.20074">
        <ele>1728</ele>
        <time>2010-06-13T12:13:56Z</time>
      </trkpt>
      <trkpt lat="45.73281" lon="6.20076">
        <ele>1727</ele>
        <time>2010-06-13T12:14:03Z</time>
      </trkpt>
      <trkpt lat="45.73283" lon="6.20077">
        <ele>1727</ele>
        <time>2010-06-13T12:14:11Z</time>
      </trkpt>
      <trkpt lat="45.73281" lon="6.20084">
        <ele>1725</ele>
        <time>2010-06-13T12:47:46Z</time>
      </trkpt>
      <trkpt lat="45.73282" lon="6.20092">
        <ele>1723</ele>
        <time>2010-06-13T12:47:54Z</time>
      </trkpt>
      <trkpt lat="45.73284" lon="6.20094">
        <ele>1723</ele>
        <time>2010-06-13T12:47:57Z</time>
      </trkpt>
      <trkpt lat="45.73294" lon="6.20099">
        <ele>1721</ele>
        <time>2010-06-13T12:48:07Z</time>
      </trkpt>
      <trkpt lat="45.73298" lon="6.20103">
        <ele>1720</ele>
        <time>2010-06-13T12:48:17Z</time>
      </trkpt>
      <trkpt lat="45.733" lon="6.20106">
        <ele>1719</ele>
        <time>2010-06-13T12:48:20Z</time>
      </trkpt>
      <trkpt lat="45.73303" lon="6.20114">
        <ele>1718</ele>
        <time>2010-06-13T12:48:31Z</time>
      </trkpt>
      <trkpt lat="45.73307" lon="6.20119">
        <ele>1716</ele>
        <time>2010-06-13T12:48:38Z</time>
      </trkpt>
      <trkpt lat="45.73307" lon="6.2012">
        <ele>1716</ele>
        <time>2010-06-13T12:48:39Z</time>
      </trkpt>
      <trkpt lat="45.73308" lon="6.20122">
        <ele>1715</ele>
        <time>2010-06-13T12:48:41Z</time>
      </trkpt>
      <trkpt lat="45.73314" lon="6.20133">
        <ele>1714</ele>
        <time>2010-06-13T12:48:51Z</time>
      </trkpt>
      <trkpt lat="45.73315" lon="6.20138">
        <ele>1712</ele>
        <time>2010-06-13T12:48:58Z</time>
      </trkpt>
      <trkpt lat="45.73315" lon="6.20142">
        <ele>1711</ele>
        <time>2010-06-13T12:49:11Z</time>
      </trkpt>
      <trkpt lat="45.73317" lon="6.20142">
        <ele>1711</ele>
        <time>2010-06-13T12:49:24Z</time>
      </trkpt>
      <trkpt lat="45.73322" lon="6.20145">
        <ele>1709</ele>
        <time>2010-06-13T12:49:39Z</time>
      </trkpt>
      <trkpt lat="45.73328" lon="6.20148">
        <ele>1707</ele>
        <time>2010-06-13T12:49:48Z</time>
      </trkpt>
      <trkpt lat="45.73333" lon="6.20152">
        <ele>1706</ele>
        <time>2010-06-13T12:49:56Z</time>
      </trkpt>
      <trkpt lat="45.73338" lon="6.20153">
        <ele>1706</ele>
        <time>2010-06-13T12:50:03Z</time>
      </trkpt>
      <trkpt lat="45.73343" lon="6.20154">
        <ele>1705</ele>
        <time>2010-06-13T12:50:08Z</time>
      </trkpt>
      <trkpt lat="45.7335" lon="6.20156">
        <ele>1703</ele>
        <time>2010-06-13T12:50:19Z</time>
      </trkpt>
      <trkpt lat="45.73352" lon="6.20158">
        <ele>1703</ele>
        <time>2010-06-13T12:50:28Z</time>
      </trkpt>
      <trkpt lat="45.73357" lon="6.20159">
        <ele>1702</ele>
        <time>2010-06-13T12:50:40Z</time>
      </trkpt>
      <trkpt lat="45.73364" lon="6.2016">
        <ele>1699</ele>
        <time>2010-06-13T12:50:50Z</time>
      </trkpt>
      <trkpt lat="45.73372" lon="6.20158">
        <ele>1698</ele>
        <time>2010-06-13T12:51:02Z</time>
      </trkpt>
      <trkpt lat="45.73371" lon="6.20146">
        <ele>1697</ele>
        <time>2010-06-13T12:51:13Z</time>
      </trkpt>
      <trkpt lat="45.73369" lon="6.20142">
        <ele>1696</ele>
        <time>2010-06-13T12:51:18Z</time>
      </trkpt>
      <trkpt lat="45.73369" lon="6.20139">
        <ele>1695</ele>
        <time>2010-06-13T12:51:26Z</time>
      </trkpt>
      <trkpt lat="45.73365" lon="6.20133">
        <ele>1694</ele>
        <time>2010-06-13T12:51:38Z</time>
      </trkpt>
      <trkpt lat="45.7336" lon="6.20125">
        <ele>1693</ele>
        <time>2010-06-13T12:51:48Z</time>
      </trkpt>
      <trkpt lat="45.73359" lon="6.2012">
        <ele>1692</ele>
        <time>2010-06-13T12:51:58Z</time>
      </trkpt>
      <trkpt lat="45.73359" lon="6.20118">
        <ele>1692</ele>
        <time>2010-06-13T12:52:07Z</time>
      </trkpt>
      <trkpt lat="45.73357" lon="6.20115">
        <ele>1691</ele>
        <time>2010-06-13T12:52:17Z</time>
      </trkpt>
      <trkpt lat="45.73353" lon="6.20105">
        <ele>1689</ele>
        <time>2010-06-13T12:52:27Z</time>
      </trkpt>
      <trkpt lat="45.73355" lon="6.20098">
        <ele>1689</ele>
        <time>2010-06-13T12:52:35Z</time>
      </trkpt>
      <trkpt lat="45.7335" lon="6.20092">
        <ele>1688</ele>
        <time>2010-06-13T12:52:50Z</time>
      </trkpt>
      <trkpt lat="45.73345" lon="6.2009">
        <ele>1686</ele>
        <time>2010-06-13T12:52:57Z</time>
      </trkpt>
      <trkpt lat="45.7334" lon="6.2008">
        <ele>1685</ele>
        <time>2010-06-13T12:53:07Z</time>
      </trkpt>
      <trkpt lat="45.73338" lon="6.20077">
        <ele>1685</ele>
        <time>2010-06-13T12:53:15Z</time>
      </trkpt>
      <trkpt lat="45.73332" lon="6.20063">
        <ele>1683</ele>
        <time>2010-06-13T12:53:28Z</time>
      </trkpt>
      <trkpt lat="45.73326" lon="6.20051">
        <ele>1682</ele>
        <time>2010-06-13T12:53:38Z</time>
      </trkpt>
      <trkpt lat="45.7332" lon="6.20037">
        <ele>1680</ele>
        <time>2010-06-13T12:53:49Z</time>
      </trkpt>
      <trkpt lat="45.73315" lon="6.2003">
        <ele>1679</ele>
        <time>2010-06-13T12:53:56Z</time>
      </trkpt>
      <trkpt lat="45.73311" lon="6.20015">
        <ele>1678</ele>
        <time>2010-06-13T12:54:06Z</time>
      </trkpt>
      <trkpt lat="45.73305" lon="6.20002">
        <ele>1677</ele>
        <time>2010-06-13T12:54:16Z</time>
      </trkpt>
      <trkpt lat="45.73301" lon="6.19986">
        <ele>1675</ele>
        <time>2010-06-13T12:54:28Z</time>
      </trkpt>
      <trkpt lat="45.73298" lon="6.19971">
        <ele>1674</ele>
        <time>2010-06-13T12:54:38Z</time>
      </trkpt>
      <trkpt lat="45.73295" lon="6.19963">
        <ele>1672</ele>
        <time>2010-06-13T12:54:47Z</time>
      </trkpt>
      <trkpt lat="45.73289" lon="6.1995">
        <ele>1672</ele>
        <time>2010-06-13T12:54:58Z</time>
      </trkpt>
      <trkpt lat="45.73285" lon="6.19932">
        <ele>1670</ele>
        <time>2010-06-13T12:55:10Z</time>
      </trkpt>
      <trkpt lat="45.73283" lon="6.19926">
        <ele>1670</ele>
        <time>2010-06-13T12:55:15Z</time>
      </trkpt>
      <trkpt lat="45.73285" lon="6.1992">
        <ele>1669</ele>
        <time>2010-06-13T12:55:20Z</time>
      </trkpt>
      <trkpt lat="45.73289" lon="6.19922">
        <ele>1669</ele>
        <time>2010-06-13T12:55:23Z</time>
      </trkpt>
      <trkpt lat="45.73293" lon="6.1993">
        <ele>1668</ele>
        <time>2010-06-13T12:55:30Z</time>
      </trkpt>
      <trkpt lat="45.73297" lon="6.19935">
        <ele>1667</ele>
        <time>2010-06-13T12:55:37Z</time>
      </trkpt>
      <trkpt lat="45.73306" lon="6.19948">
        <ele>1664</ele>
        <time>2010-06-13T12:55:49Z</time>
      </trkpt>
      <trkpt lat="45.73314" lon="6.19958">
        <ele>1662</ele>
        <time>2010-06-13T12:55:59Z</time>
      </trkpt>
      <trkpt lat="45.73325" lon="6.19962">
        <ele>1660</ele>
        <time>2010-06-13T12:56:09Z</time>
      </trkpt>
      <trkpt lat="45.7333" lon="6.19964">
        <ele>1659</ele>
        <time>2010-06-13T12:56:17Z</time>
      </trkpt>
      <trkpt lat="45.73333" lon="6.19967">
        <ele>1659</ele>
        <time>2010-06-13T12:56:28Z</time>
      </trkpt>
      <trkpt lat="45.73336" lon="6.1997">
        <ele>1657</ele>
        <time>2010-06-13T12:56:31Z</time>
      </trkpt>
      <trkpt lat="45.73338" lon="6.19973">
        <ele>1657</ele>
        <time>2010-06-13T12:56:36Z</time>
      </trkpt>
      <trkpt lat="45.73343" lon="6.19984">
        <ele>1656</ele>
        <time>2010-06-13T12:56:45Z</time>
      </trkpt>
      <trkpt lat="45.73354" lon="6.19992">
        <ele>1654</ele>
        <time>2010-06-13T12:56:56Z</time>
      </trkpt>
      <trkpt lat="45.7336" lon="6.19995">
        <ele>1653</ele>
        <time>2010-06-13T12:57:04Z</time>
      </trkpt>
      <trkpt lat="45.73367" lon="6.20007">
        <ele>1652</ele>
        <time>2010-06-13T12:57:13Z</time>
      </trkpt>
      <trkpt lat="45.73375" lon="6.20017">
        <ele>1651</ele>
        <time>2010-06-13T12:57:23Z</time>
      </trkpt>
      <trkpt lat="45.73378" lon="6.20023">
        <ele>1649</ele>
        <time>2010-06-13T12:57:30Z</time>
      </trkpt>
      <trkpt lat="45.73387" lon="6.2003">
        <ele>1648</ele>
        <time>2010-06-13T12:57:38Z</time>
      </trkpt>
      <trkpt lat="45.73399" lon="6.20037">
        <ele>1647</ele>
        <time>2010-06-13T12:57:49Z</time>
      </trkpt>
      <trkpt lat="45.73402" lon="6.20038">
        <ele>1646</ele>
        <time>2010-06-13T12:57:57Z</time>
      </trkpt>
      <trkpt lat="45.73403" lon="6.2004">
        <ele>1646</ele>
        <time>2010-06-13T12:58:06Z</time>
      </trkpt>
      <trkpt lat="45.73411" lon="6.20054">
        <ele>1644</ele>
        <time>2010-06-13T12:58:17Z</time>
      </trkpt>
      <trkpt lat="45.73421" lon="6.20067">
        <ele>1642</ele>
        <time>2010-06-13T12:58:28Z</time>
      </trkpt>
      <trkpt lat="45.73426" lon="6.20071">
        <ele>1641</ele>
        <time>2010-06-13T12:58:34Z</time>
      </trkpt>
      <trkpt lat="45.7343" lon="6.20074">
        <ele>1640</ele>
        <time>2010-06-13T12:58:38Z</time>
      </trkpt>
      <trkpt lat="45.73439" lon="6.2009">
        <ele>1638</ele>
        <time>2010-06-13T12:58:50Z</time>
      </trkpt>
      <trkpt lat="45.73447" lon="6.20104">
        <ele>1637</ele>
        <time>2010-06-13T12:59:01Z</time>
      </trkpt>
      <trkpt lat="45.73454" lon="6.20117">
        <ele>1634</ele>
        <time>2010-06-13T12:59:10Z</time>
      </trkpt>
      <trkpt lat="45.73465" lon="6.2013">
        <ele>1632</ele>
        <time>2010-06-13T12:59:22Z</time>
      </trkpt>
      <trkpt lat="45.73474" lon="6.20146">
        <ele>1630</ele>
        <time>2010-06-13T12:59:34Z</time>
      </trkpt>
      <trkpt lat="45.73485" lon="6.20162">
        <ele>1628</ele>
        <time>2010-06-13T12:59:48Z</time>
      </trkpt>
      <trkpt lat="45.73494" lon="6.20178">
        <ele>1626</ele>
        <time>2010-06-13T13:00:00Z</time>
      </trkpt>
      <trkpt lat="45.73499" lon="6.20193">
        <ele>1625</ele>
        <time>2010-06-13T13:00:11Z</time>
      </trkpt>
      <trkpt lat="45.735" lon="6.20198">
        <ele>1624</ele>
        <time>2010-06-13T13:00:19Z</time>
      </trkpt>
      <trkpt lat="45.73501" lon="6.20207">
        <ele>1625</ele>
        <time>2010-06-13T13:00:27Z</time>
      </trkpt>
      <trkpt lat="45.73503" lon="6.20226">
        <ele>1622</ele>
        <time>2010-06-13T13:00:39Z</time>
      </trkpt>
      <trkpt lat="45.73506" lon="6.20241">
        <ele>1621</ele>
        <time>2010-06-13T13:00:49Z</time>
      </trkpt>
      <trkpt lat="45.73511" lon="6.20263">
        <ele>1619</ele>
        <time>2010-06-13T13:01:03Z</time>
      </trkpt>
      <trkpt lat="45.73512" lon="6.20281">
        <ele>1617</ele>
        <time>2010-06-13T13:01:14Z</time>
      </trkpt>
      <trkpt lat="45.73515" lon="6.20295">
        <ele>1617</ele>
        <time>2010-06-13T13:01:23Z</time>
      </trkpt>
      <trkpt lat="45.7352" lon="6.20311">
        <ele>1616</ele>
        <time>2010-06-13T13:01:33Z</time>
      </trkpt>
      <trkpt lat="45.73522" lon="6.20316">
        <ele>1615</ele>
        <time>2010-06-13T13:01:36Z</time>
      </trkpt>
      <trkpt lat="45.73529" lon="6.20329">
        <ele>1615</ele>
        <time>2010-06-13T13:01:45Z</time>
      </trkpt>
      <trkpt lat="45.73534" lon="6.20346">
        <ele>1614</ele>
        <time>2010-06-13T13:01:57Z</time>
      </trkpt>
      <trkpt lat="45.73542" lon="6.20359">
        <ele>1611</ele>
        <time>2010-06-13T13:02:08Z</time>
      </trkpt>
      <trkpt lat="45.73552" lon="6.20368">
        <ele>1610</ele>
        <time>2010-06-13T13:02:17Z</time>
      </trkpt>
      <trkpt lat="45.73562" lon="6.20375">
        <ele>1609</ele>
        <time>2010-06-13T13:02:26Z</time>
      </trkpt>
      <trkpt lat="45.73573" lon="6.20385">
        <ele>1607</ele>
        <time>2010-06-13T13:02:37Z</time>
      </trkpt>
      <trkpt lat="45.73586" lon="6.20395">
        <ele>1607</ele>
        <time>2010-06-13T13:02:49Z</time>
      </trkpt>
      <trkpt lat="45.73589" lon="6.20399">
        <ele>1607</ele>
        <time>2010-06-13T13:02:55Z</time>
      </trkpt>
      <trkpt lat="45.736" lon="6.2041">
        <ele>1607</ele>
        <time>2010-06-13T13:03:06Z</time>
      </trkpt>
      <trkpt lat="45.73608" lon="6.20415">
        <ele>1606</ele>
        <time>2010-06-13T13:03:15Z</time>
      </trkpt>
      <trkpt lat="45.73619" lon="6.20423">
        <ele>1603</ele>
        <time>2010-06-13T13:03:25Z</time>
      </trkpt>
      <trkpt lat="45.73636" lon="6.20431">
        <ele>1602</ele>
        <time>2010-06-13T13:03:39Z</time>
      </trkpt>
      <trkpt lat="45.7365" lon="6.20444">
        <ele>1601</ele>
        <time>2010-06-13T13:03:51Z</time>
      </trkpt>
      <trkpt lat="45.73662" lon="6.20455">
        <ele>1600</ele>
        <time>2010-06-13T13:04:03Z</time>
      </trkpt>
      <trkpt lat="45.73675" lon="6.20463">
        <ele>1598</ele>
        <time>2010-06-13T13:04:14Z</time>
      </trkpt>
      <trkpt lat="45.73689" lon="6.2047">
        <ele>1598</ele>
        <time>2010-06-13T13:04:25Z</time>
      </trkpt>
      <trkpt lat="45.73702" lon="6.20473">
        <ele>1595</ele>
        <time>2010-06-13T13:04:36Z</time>
      </trkpt>
      <trkpt lat="45.73717" lon="6.20478">
        <ele>1594</ele>
        <time>2010-06-13T13:04:48Z</time>
      </trkpt>
      <trkpt lat="45.73734" lon="6.20483">
        <ele>1593</ele>
        <time>2010-06-13T13:05:02Z</time>
      </trkpt>
      <trkpt lat="45.7375" lon="6.20488">
        <ele>1592</ele>
        <time>2010-06-13T13:05:15Z</time>
      </trkpt>
      <trkpt lat="45.73756" lon="6.20488">
        <ele>1591</ele>
        <time>2010-06-13T13:05:24Z</time>
      </trkpt>
      <trkpt lat="45.73765" lon="6.20488">
        <ele>1590</ele>
        <time>2010-06-13T13:05:31Z</time>
      </trkpt>
      <trkpt lat="45.73778" lon="6.20487">
        <ele>1588</ele>
        <time>2010-06-13T13:05:42Z</time>
      </trkpt>
      <trkpt lat="45.73793" lon="6.20491">
        <ele>1586</ele>
        <time>2010-06-13T13:05:54Z</time>
      </trkpt>
      <trkpt lat="45.73803" lon="6.20494">
        <ele>1584</ele>
        <time>2010-06-13T13:06:04Z</time>
      </trkpt>
      <trkpt lat="45.73808" lon="6.20493">
        <ele>1584</ele>
        <time>2010-06-13T13:06:08Z</time>
      </trkpt>
      <trkpt lat="45.73822" lon="6.20498">
        <ele>1582</ele>
        <time>2010-06-13T13:06:20Z</time>
      </trkpt>
      <trkpt lat="45.73824" lon="6.205">
        <ele>1582</ele>
        <time>2010-06-13T13:06:27Z</time>
      </trkpt>
      <trkpt lat="45.73833" lon="6.20503">
        <ele>1582</ele>
        <time>2010-06-13T13:06:35Z</time>
      </trkpt>
      <trkpt lat="45.73851" lon="6.20505">
        <ele>1583</ele>
        <time>2010-06-13T13:06:49Z</time>
      </trkpt>
      <trkpt lat="45.73861" lon="6.20512">
        <ele>1581</ele>
        <time>2010-06-13T13:06:59Z</time>
      </trkpt>
      <trkpt lat="45.73874" lon="6.20519">
        <ele>1578</ele>
        <time>2010-06-13T13:07:10Z</time>
      </trkpt>
      <trkpt lat="45.73887" lon="6.20527">
        <ele>1576</ele>
        <time>2010-06-13T13:07:21Z</time>
      </trkpt>
      <trkpt lat="45.73902" lon="6.20537">
        <ele>1574</ele>
        <time>2010-06-13T13:07:35Z</time>
      </trkpt>
      <trkpt lat="45.73915" lon="6.20546">
        <ele>1574</ele>
        <time>2010-06-13T13:07:47Z</time>
      </trkpt>
      <trkpt lat="45.73925" lon="6.20545">
        <ele>1574</ele>
        <time>2010-06-13T13:07:56Z</time>
      </trkpt>
      <trkpt lat="45.73932" lon="6.20542">
        <ele>1574</ele>
        <time>2010-06-13T13:08:03Z</time>
      </trkpt>
      <trkpt lat="45.73946" lon="6.20538">
        <ele>1575</ele>
        <time>2010-06-13T13:08:16Z</time>
      </trkpt>
      <trkpt lat="45.73962" lon="6.20538">
        <ele>1575</ele>
        <time>2010-06-13T13:08:29Z</time>
      </trkpt>
      <trkpt lat="45.73977" lon="6.20539">
        <ele>1577</ele>
        <time>2010-06-13T13:08:44Z</time>
      </trkpt>
      <trkpt lat="45.73979" lon="6.20539">
        <ele>1577</ele>
        <time>2010-06-13T13:08:51Z</time>
      </trkpt>
      <trkpt lat="45.73984" lon="6.20539">
        <ele>1577</ele>
        <time>2010-06-13T13:08:58Z</time>
      </trkpt>
      <trkpt lat="45.7399" lon="6.20539">
        <ele>1578</ele>
        <time>2010-06-13T13:09:10Z</time>
      </trkpt>
      <trkpt lat="45.74" lon="6.20541">
        <ele>1578</ele>
        <time>2010-06-13T13:09:21Z</time>
      </trkpt>
      <trkpt lat="45.74009" lon="6.20538">
        <ele>1579</ele>
        <time>2010-06-13T13:09:32Z</time>
      </trkpt>
      <trkpt lat="45.7401" lon="6.20538">
        <ele>1579</ele>
        <time>2010-06-13T13:09:44Z</time>
      </trkpt>
      <trkpt lat="45.7402" lon="6.20537">
        <ele>1580</ele>
        <time>2010-06-13T13:09:53Z</time>
      </trkpt>
      <trkpt lat="45.74035" lon="6.20534">
        <ele>1582</ele>
        <time>2010-06-13T13:10:06Z</time>
      </trkpt>
      <trkpt lat="45.74048" lon="6.20531">
        <ele>1584</ele>
        <time>2010-06-13T13:10:18Z</time>
      </trkpt>
      <trkpt lat="45.74054" lon="6.20529">
        <ele>1583</ele>
        <time>2010-06-13T13:10:27Z</time>
      </trkpt>
      <trkpt lat="45.7406" lon="6.20526">
        <ele>1583</ele>
        <time>2010-06-13T13:10:36Z</time>
      </trkpt>
      <trkpt lat="45.74075" lon="6.20518">
        <ele>1582</ele>
        <time>2010-06-13T13:10:49Z</time>
      </trkpt>
      <trkpt lat="45.74083" lon="6.20515">
        <ele>1582</ele>
        <time>2010-06-13T13:10:58Z</time>
      </trkpt>
      <trkpt lat="45.74094" lon="6.20512">
        <ele>1581</ele>
        <time>2010-06-13T13:11:07Z</time>
      </trkpt>
      <trkpt lat="45.74106" lon="6.20511">
        <ele>1580</ele>
        <time>2010-06-13T13:11:17Z</time>
      </trkpt>
      <trkpt lat="45.74116" lon="6.20508">
        <ele>1579</ele>
        <time>2010-06-13T13:11:26Z</time>
      </trkpt>
      <trkpt lat="45.74131" lon="6.20499">
        <ele>1578</ele>
        <time>2010-06-13T13:11:39Z</time>
      </trkpt>
      <trkpt lat="45.74141" lon="6.20491">
        <ele>1577</ele>
        <time>2010-06-13T13:11:49Z</time>
      </trkpt>
      <trkpt lat="45.74152" lon="6.20483">
        <ele>1575</ele>
        <time>2010-06-13T13:12:00Z</time>
      </trkpt>
      <trkpt lat="45.74164" lon="6.2048">
        <ele>1575</ele>
        <time>2010-06-13T13:12:11Z</time>
      </trkpt>
      <trkpt lat="45.74165" lon="6.20478">
        <ele>1575</ele>
        <time>2010-06-13T13:12:13Z</time>
      </trkpt>
      <trkpt lat="45.74172" lon="6.20471">
        <ele>1574</ele>
        <time>2010-06-13T13:12:22Z</time>
      </trkpt>
      <trkpt lat="45.74177" lon="6.20467">
        <ele>1573</ele>
        <time>2010-06-13T13:12:27Z</time>
      </trkpt>
      <trkpt lat="45.74187" lon="6.20458">
        <ele>1569</ele>
        <time>2010-06-13T13:12:38Z</time>
      </trkpt>
      <trkpt lat="45.74197" lon="6.20456">
        <ele>1568</ele>
        <time>2010-06-13T13:12:47Z</time>
      </trkpt>
      <trkpt lat="45.74212" lon="6.20445">
        <ele>1566</ele>
        <time>2010-06-13T13:13:02Z</time>
      </trkpt>
      <trkpt lat="45.74224" lon="6.20435">
        <ele>1566</ele>
        <time>2010-06-13T13:13:14Z</time>
      </trkpt>
      <trkpt lat="45.74237" lon="6.20427">
        <ele>1563</ele>
        <time>2010-06-13T13:13:27Z</time>
      </trkpt>
      <trkpt lat="45.74248" lon="6.2042">
        <ele>1560</ele>
        <time>2010-06-13T13:13:37Z</time>
      </trkpt>
      <trkpt lat="45.74263" lon="6.20409">
        <ele>1558</ele>
        <time>2010-06-13T13:13:51Z</time>
      </trkpt>
      <trkpt lat="45.74275" lon="6.20402">
        <ele>1557</ele>
        <time>2010-06-13T13:14:02Z</time>
      </trkpt>
      <trkpt lat="45.7429" lon="6.20399">
        <ele>1557</ele>
        <time>2010-06-13T13:14:14Z</time>
      </trkpt>
      <trkpt lat="45.74305" lon="6.20406">
        <ele>1557</ele>
        <time>2010-06-13T13:14:27Z</time>
      </trkpt>
      <trkpt lat="45.7432" lon="6.20414">
        <ele>1557</ele>
        <time>2010-06-13T13:14:40Z</time>
      </trkpt>
      <trkpt lat="45.74326" lon="6.20416">
        <ele>1556</ele>
        <time>2010-06-13T13:14:50Z</time>
      </trkpt>
      <trkpt lat="45.74326" lon="6.20416">
        <ele>1556</ele>
        <time>2010-06-13T13:14:57Z</time>
      </trkpt>
      <trkpt lat="45.74338" lon="6.20419">
        <ele>1556</ele>
        <time>2010-06-13T13:15:09Z</time>
      </trkpt>
      <trkpt lat="45.74343" lon="6.20416">
        <ele>1555</ele>
        <time>2010-06-13T13:15:14Z</time>
      </trkpt>
      <trkpt lat="45.74346" lon="6.20409">
        <ele>1555</ele>
        <time>2010-06-13T13:15:20Z</time>
      </trkpt>
      <trkpt lat="45.74353" lon="6.20402">
        <ele>1554</ele>
        <time>2010-06-13T13:15:28Z</time>
      </trkpt>
      <trkpt lat="45.74366" lon="6.20401">
        <ele>1553</ele>
        <time>2010-06-13T13:15:40Z</time>
      </trkpt>
      <trkpt lat="45.74378" lon="6.20404">
        <ele>1552</ele>
        <time>2010-06-13T13:15:51Z</time>
      </trkpt>
      <trkpt lat="45.74392" lon="6.20401">
        <ele>1550</ele>
        <time>2010-06-13T13:16:04Z</time>
      </trkpt>
      <trkpt lat="45.74403" lon="6.20405">
        <ele>1548</ele>
        <time>2010-06-13T13:16:15Z</time>
      </trkpt>
      <trkpt lat="45.74417" lon="6.20401">
        <ele>1546</ele>
        <time>2010-06-13T13:16:27Z</time>
      </trkpt>
      <trkpt lat="45.74425" lon="6.204">
        <ele>1545</ele>
        <time>2010-06-13T13:16:34Z</time>
      </trkpt>
      <trkpt lat="45.74435" lon="6.20403">
        <ele>1544</ele>
        <time>2010-06-13T13:16:44Z</time>
      </trkpt>
      <trkpt lat="45.74444" lon="6.20408">
        <ele>1544</ele>
        <time>2010-06-13T13:16:53Z</time>
      </trkpt>
      <trkpt lat="45.74454" lon="6.20414">
        <ele>1544</ele>
        <time>2010-06-13T13:17:03Z</time>
      </trkpt>
      <trkpt lat="45.74463" lon="6.20416">
        <ele>1543</ele>
        <time>2010-06-13T13:17:11Z</time>
      </trkpt>
      <trkpt lat="45.74475" lon="6.20421">
        <ele>1542</ele>
        <time>2010-06-13T13:17:23Z</time>
      </trkpt>
      <trkpt lat="45.74479" lon="6.20422">
        <ele>1542</ele>
        <time>2010-06-13T13:17:26Z</time>
      </trkpt>
      <trkpt lat="45.74486" lon="6.20419">
        <ele>1541</ele>
        <time>2010-06-13T13:17:34Z</time>
      </trkpt>
      <trkpt lat="45.74495" lon="6.20409">
        <ele>1541</ele>
        <time>2010-06-13T13:17:44Z</time>
      </trkpt>
      <trkpt lat="45.745" lon="6.204">
        <ele>1539</ele>
        <time>2010-06-13T13:17:53Z</time>
      </trkpt>
      <trkpt lat="45.74498" lon="6.20396">
        <ele>1538</ele>
        <time>2010-06-13T13:17:59Z</time>
      </trkpt>
      <trkpt lat="45.74498" lon="6.20391">
        <ele>1536</ele>
        <time>2010-06-13T13:18:07Z</time>
      </trkpt>
      <trkpt lat="45.74501" lon="6.20385">
        <ele>1534</ele>
        <time>2010-06-13T13:18:16Z</time>
      </trkpt>
      <trkpt lat="45.74502" lon="6.20384">
        <ele>1532</ele>
        <time>2010-06-13T13:18:19Z</time>
      </trkpt>
      <trkpt lat="45.74509" lon="6.20379">
        <ele>1531</ele>
        <time>2010-06-13T13:18:29Z</time>
      </trkpt>
      <trkpt lat="45.74513" lon="6.20377">
        <ele>1530</ele>
        <time>2010-06-13T13:18:34Z</time>
      </trkpt>
      <trkpt lat="45.74522" lon="6.20375">
        <ele>1529</ele>
        <time>2010-06-13T13:18:44Z</time>
      </trkpt>
      <trkpt lat="45.74532" lon="6.20375">
        <ele>1528</ele>
        <time>2010-06-13T13:18:54Z</time>
      </trkpt>
      <trkpt lat="45.74537" lon="6.2037">
        <ele>1527</ele>
        <time>2010-06-13T13:19:02Z</time>
      </trkpt>
      <trkpt lat="45.74543" lon="6.20368">
        <ele>1526</ele>
        <time>2010-06-13T13:19:09Z</time>
      </trkpt>
      <trkpt lat="45.74547" lon="6.20366">
        <ele>1525</ele>
        <time>2010-06-13T13:19:16Z</time>
      </trkpt>
      <trkpt lat="45.74549" lon="6.20365">
        <ele>1524</ele>
        <time>2010-06-13T13:19:18Z</time>
      </trkpt>
      <trkpt lat="45.74558" lon="6.20361">
        <ele>1524</ele>
        <time>2010-06-13T13:19:27Z</time>
      </trkpt>
      <trkpt lat="45.74558" lon="6.2036">
        <ele>1524</ele>
        <time>2010-06-13T13:19:28Z</time>
      </trkpt>
      <trkpt lat="45.74563" lon="6.20343">
        <ele>1524</ele>
        <time>2010-06-13T13:19:41Z</time>
      </trkpt>
      <trkpt lat="45.74563" lon="6.20341">
        <ele>1525</ele>
        <time>2010-06-13T13:19:43Z</time>
      </trkpt>
      <trkpt lat="45.74575" lon="6.20331">
        <ele>1526</ele>
        <time>2010-06-13T13:19:55Z</time>
      </trkpt>
      <trkpt lat="45.74587" lon="6.20327">
        <ele>1526</ele>
        <time>2010-06-13T13:20:06Z</time>
      </trkpt>
      <trkpt lat="45.74597" lon="6.20327">
        <ele>1527</ele>
        <time>2010-06-13T13:20:16Z</time>
      </trkpt>
      <trkpt lat="45.74606" lon="6.20326">
        <ele>1528</ele>
        <time>2010-06-13T13:20:25Z</time>
      </trkpt>
      <trkpt lat="45.74614" lon="6.20324">
        <ele>1529</ele>
        <time>2010-06-13T13:20:35Z</time>
      </trkpt>
      <trkpt lat="45.74617" lon="6.20325">
        <ele>1530</ele>
        <time>2010-06-13T13:20:38Z</time>
      </trkpt>
      <trkpt lat="45.74627" lon="6.20328">
        <ele>1530</ele>
        <time>2010-06-13T13:20:48Z</time>
      </trkpt>
      <trkpt lat="45.74643" lon="6.20324">
        <ele>1530</ele>
        <time>2010-06-13T13:21:02Z</time>
      </trkpt>
      <trkpt lat="45.74655" lon="6.20318">
        <ele>1529</ele>
        <time>2010-06-13T13:21:13Z</time>
      </trkpt>
      <trkpt lat="45.74664" lon="6.20313">
        <ele>1529</ele>
        <time>2010-06-13T13:21:22Z</time>
      </trkpt>
      <trkpt lat="45.74676" lon="6.20306">
        <ele>1530</ele>
        <time>2010-06-13T13:21:34Z</time>
      </trkpt>
      <trkpt lat="45.74683" lon="6.203">
        <ele>1530</ele>
        <time>2010-06-13T13:21:42Z</time>
      </trkpt>
      <trkpt lat="45.74684" lon="6.20294">
        <ele>1529</ele>
        <time>2010-06-13T13:21:48Z</time>
      </trkpt>
      <trkpt lat="45.74685" lon="6.2029">
        <ele>1528</ele>
        <time>2010-06-13T13:21:54Z</time>
      </trkpt>
      <trkpt lat="45.7469" lon="6.20286">
        <ele>1528</ele>
        <time>2010-06-13T13:22:01Z</time>
      </trkpt>
      <trkpt lat="45.74692" lon="6.20275">
        <ele>1528</ele>
        <time>2010-06-13T13:22:08Z</time>
      </trkpt>
      <trkpt lat="45.74693" lon="6.2026">
        <ele>1528</ele>
        <time>2010-06-13T13:22:18Z</time>
      </trkpt>
      <trkpt lat="45.74693" lon="6.20248">
        <ele>1528</ele>
        <time>2010-06-13T13:22:28Z</time>
      </trkpt>
      <trkpt lat="45.74693" lon="6.20241">
        <ele>1528</ele>
        <time>2010-06-13T13:22:37Z</time>
      </trkpt>
      <trkpt lat="45.74692" lon="6.20232">
        <ele>1528</ele>
        <time>2010-06-13T13:22:50Z</time>
      </trkpt>
      <trkpt lat="45.7469" lon="6.20228">
        <ele>1528</ele>
        <time>2010-06-13T13:23:02Z</time>
      </trkpt>
      <trkpt lat="45.74689" lon="6.20225">
        <ele>1527</ele>
        <time>2010-06-13T13:23:17Z</time>
      </trkpt>
      <trkpt lat="45.74688" lon="6.20219">
        <ele>1526</ele>
        <time>2010-06-13T13:23:25Z</time>
      </trkpt>
      <trkpt lat="45.74685" lon="6.20208">
        <ele>1524</ele>
        <time>2010-06-13T13:23:36Z</time>
      </trkpt>
      <trkpt lat="45.74682" lon="6.20198">
        <ele>1523</ele>
        <time>2010-06-13T13:23:47Z</time>
      </trkpt>
      <trkpt lat="45.74681" lon="6.2019">
        <ele>1520</ele>
        <time>2010-06-13T13:23:56Z</time>
      </trkpt>
      <trkpt lat="45.74678" lon="6.20181">
        <ele>1519</ele>
        <time>2010-06-13T13:24:08Z</time>
      </trkpt>
      <trkpt lat="45.74678" lon="6.20171">
        <ele>1515</ele>
        <time>2010-06-13T13:24:19Z</time>
      </trkpt>
      <trkpt lat="45.74676" lon="6.20165">
        <ele>1514</ele>
        <time>2010-06-13T13:24:26Z</time>
      </trkpt>
      <trkpt lat="45.74675" lon="6.2016">
        <ele>1512</ele>
        <time>2010-06-13T13:24:34Z</time>
      </trkpt>
      <trkpt lat="45.74673" lon="6.20156">
        <ele>1510</ele>
        <time>2010-06-13T13:24:39Z</time>
      </trkpt>
      <trkpt lat="45.74673" lon="6.2015">
        <ele>1507</ele>
        <time>2010-06-13T13:24:47Z</time>
      </trkpt>
      <trkpt lat="45.74672" lon="6.20149">
        <ele>1507</ele>
        <time>2010-06-13T13:24:48Z</time>
      </trkpt>
      <trkpt lat="45.74669" lon="6.20143">
        <ele>1506</ele>
        <time>2010-06-13T13:24:57Z</time>
      </trkpt>
      <trkpt lat="45.74665" lon="6.20135">
        <ele>1505</ele>
        <time>2010-06-13T13:25:07Z</time>
      </trkpt>
      <trkpt lat="45.74664" lon="6.2013">
        <ele>1503</ele>
        <time>2010-06-13T13:25:15Z</time>
      </trkpt>
      <trkpt lat="45.74663" lon="6.20128">
        <ele>1503</ele>
        <time>2010-06-13T13:25:29Z</time>
      </trkpt>
      <trkpt lat="45.74661" lon="6.20124">
        <ele>1502</ele>
        <time>2010-06-13T13:25:45Z</time>
      </trkpt>
      <trkpt lat="45.74651" lon="6.20119">
        <ele>1500</ele>
        <time>2010-06-13T13:25:55Z</time>
      </trkpt>
      <trkpt lat="45.74645" lon="6.20116">
        <ele>1499</ele>
        <time>2010-06-13T13:26:03Z</time>
      </trkpt>
      <trkpt lat="45.7464" lon="6.20116">
        <ele>1498</ele>
        <time>2010-06-13T13:26:08Z</time>
      </trkpt>
      <trkpt lat="45.74636" lon="6.20114">
        <ele>1498</ele>
        <time>2010-06-13T13:26:11Z</time>
      </trkpt>
      <trkpt lat="45.74631" lon="6.20111">
        <ele>1497</ele>
        <time>2010-06-13T13:26:17Z</time>
      </trkpt>
      <trkpt lat="45.74627" lon="6.2011">
        <ele>1496</ele>
        <time>2010-06-13T13:26:23Z</time>
      </trkpt>
      <trkpt lat="45.74625" lon="6.20109">
        <ele>1495</ele>
        <time>2010-06-13T13:26:30Z</time>
      </trkpt>
      <trkpt lat="45.74621" lon="6.20107">
        <ele>1494</ele>
        <time>2010-06-13T13:26:38Z</time>
      </trkpt>
      <trkpt lat="45.74617" lon="6.20105">
        <ele>1493</ele>
        <time>2010-06-13T13:26:43Z</time>
      </trkpt>
      <trkpt lat="45.74616" lon="6.20098">
        <ele>1491</ele>
        <time>2010-06-13T13:26:51Z</time>
      </trkpt>
      <trkpt lat="45.74614" lon="6.20095">
        <ele>1490</ele>
        <time>2010-06-13T13:26:56Z</time>
      </trkpt>
      <trkpt lat="45.74607" lon="6.20091">
        <ele>1488</ele>
        <time>2010-06-13T13:27:06Z</time>
      </trkpt>
      <trkpt lat="45.74603" lon="6.20089">
        <ele>1487</ele>
        <time>2010-06-13T13:27:16Z</time>
      </trkpt>
      <trkpt lat="45.74604" lon="6.20081">
        <ele>1487</ele>
        <time>2010-06-13T13:27:25Z</time>
      </trkpt>
      <trkpt lat="45.74598" lon="6.20076">
        <ele>1485</ele>
        <time>2010-06-13T13:27:31Z</time>
      </trkpt>
      <trkpt lat="45.74596" lon="6.20067">
        <ele>1484</ele>
        <time>2010-06-13T13:27:41Z</time>
      </trkpt>
      <trkpt lat="45.74597" lon="6.20061">
        <ele>1482</ele>
        <time>2010-06-13T13:27:49Z</time>
      </trkpt>
      <trkpt lat="45.74596" lon="6.20053">
        <ele>1482</ele>
        <time>2010-06-13T13:28:00Z</time>
      </trkpt>
      <trkpt lat="45.74595" lon="6.20048">
        <ele>1482</ele>
        <time>2010-06-13T13:28:06Z</time>
      </trkpt>
      <trkpt lat="45.74592" lon="6.20041">
        <ele>1482</ele>
        <time>2010-06-13T13:28:13Z</time>
      </trkpt>
      <trkpt lat="45.74584" lon="6.20042">
        <ele>1479</ele>
        <time>2010-06-13T13:28:24Z</time>
      </trkpt>
      <trkpt lat="45.74581" lon="6.20043">
        <ele>1478</ele>
        <time>2010-06-13T13:28:30Z</time>
      </trkpt>
      <trkpt lat="45.74577" lon="6.20048">
        <ele>1476</ele>
        <time>2010-06-13T13:28:34Z</time>
      </trkpt>
      <trkpt lat="45.74569" lon="6.20045">
        <ele>1474</ele>
        <time>2010-06-13T13:28:40Z</time>
      </trkpt>
      <trkpt lat="45.74566" lon="6.2004">
        <ele>1474</ele>
        <time>2010-06-13T13:28:46Z</time>
      </trkpt>
      <trkpt lat="45.74564" lon="6.20028">
        <ele>1471</ele>
        <time>2010-06-13T13:29:08Z</time>
      </trkpt>
      <trkpt lat="45.74565" lon="6.20023">
        <ele>1471</ele>
        <time>2010-06-13T13:29:14Z</time>
      </trkpt>
      <trkpt lat="45.74565" lon="6.20023">
        <ele>1470</ele>
        <time>2010-06-13T13:29:22Z</time>
      </trkpt>
      <trkpt lat="45.74566" lon="6.20027">
        <ele>1469</ele>
        <time>2010-06-13T13:29:29Z</time>
      </trkpt>
      <trkpt lat="45.74568" lon="6.20027">
        <ele>1466</ele>
        <time>2010-06-13T13:29:37Z</time>
      </trkpt>
      <trkpt lat="45.74574" lon="6.20036">
        <ele>1464</ele>
        <time>2010-06-13T13:29:45Z</time>
      </trkpt>
      <trkpt lat="45.74578" lon="6.20038">
        <ele>1463</ele>
        <time>2010-06-13T13:29:50Z</time>
      </trkpt>
      <trkpt lat="45.7458" lon="6.2004">
        <ele>1463</ele>
        <time>2010-06-13T13:29:55Z</time>
      </trkpt>
      <trkpt lat="45.74581" lon="6.20043">
        <ele>1460</ele>
        <time>2010-06-13T13:30:02Z</time>
      </trkpt>
      <trkpt lat="45.74581" lon="6.20047">
        <ele>1459</ele>
        <time>2010-06-13T13:30:09Z</time>
      </trkpt>
      <trkpt lat="45.74587" lon="6.20044">
        <ele>1456</ele>
        <time>2010-06-13T13:30:22Z</time>
      </trkpt>
      <trkpt lat="45.74592" lon="6.20041">
        <ele>1456</ele>
        <time>2010-06-13T13:30:31Z</time>
      </trkpt>
      <trkpt lat="45.74599" lon="6.20041">
        <ele>1455</ele>
        <time>2010-06-13T13:30:46Z</time>
      </trkpt>
      <trkpt lat="45.74599" lon="6.20044">
        <ele>1453</ele>
        <time>2010-06-13T13:30:50Z</time>
      </trkpt>
      <trkpt lat="45.746" lon="6.20047">
        <ele>1451</ele>
        <time>2010-06-13T13:30:57Z</time>
      </trkpt>
      <trkpt lat="45.74601" lon="6.20044">
        <ele>1448</ele>
        <time>2010-06-13T13:31:12Z</time>
      </trkpt>
      <trkpt lat="45.74602" lon="6.20044">
        <ele>1448</ele>
        <time>2010-06-13T13:31:13Z</time>
      </trkpt>
      <trkpt lat="45.74604" lon="6.20046">
        <ele>1446</ele>
        <time>2010-06-13T13:31:23Z</time>
      </trkpt>
      <trkpt lat="45.7461" lon="6.20034">
        <ele>1445</ele>
        <time>2010-06-13T13:31:38Z</time>
      </trkpt>
      <trkpt lat="45.74613" lon="6.20038">
        <ele>1443</ele>
        <time>2010-06-13T13:31:45Z</time>
      </trkpt>
      <trkpt lat="45.74619" lon="6.20044">
        <ele>1441</ele>
        <time>2010-06-13T13:31:52Z</time>
      </trkpt>
      <trkpt lat="45.74624" lon="6.20055">
        <ele>1439</ele>
        <time>2010-06-13T13:32:00Z</time>
      </trkpt>
      <trkpt lat="45.7463" lon="6.20071">
        <ele>1438</ele>
        <time>2010-06-13T13:32:28Z</time>
      </trkpt>
      <trkpt lat="45.74632" lon="6.2006">
        <ele>1436</ele>
        <time>2010-06-13T13:32:34Z</time>
      </trkpt>
      <trkpt lat="45.74632" lon="6.20053">
        <ele>1434</ele>
        <time>2010-06-13T13:32:39Z</time>
      </trkpt>
      <trkpt lat="45.74629" lon="6.20051">
        <ele>1433</ele>
        <time>2010-06-13T13:32:45Z</time>
      </trkpt>
      <trkpt lat="45.74626" lon="6.20043">
        <ele>1432</ele>
        <time>2010-06-13T13:32:52Z</time>
      </trkpt>
      <trkpt lat="45.74625" lon="6.20038">
        <ele>1431</ele>
        <time>2010-06-13T13:32:56Z</time>
      </trkpt>
      <trkpt lat="45.74628" lon="6.2005">
        <ele>1429</ele>
        <time>2010-06-13T13:33:07Z</time>
      </trkpt>
      <trkpt lat="45.7463" lon="6.20044">
        <ele>1426</ele>
        <time>2010-06-13T13:33:15Z</time>
      </trkpt>
      <trkpt lat="45.74629" lon="6.20043">
        <ele>1424</ele>
        <time>2010-06-13T13:33:29Z</time>
      </trkpt>
      <trkpt lat="45.7463" lon="6.20042">
        <ele>1424</ele>
        <time>2010-06-13T13:33:54Z</time>
      </trkpt>
      <trkpt lat="45.74628" lon="6.20045">
        <ele>1424</ele>
        <time>2010-06-13T13:34:13Z</time>
      </trkpt>
      <trkpt lat="45.74632" lon="6.20044">
        <ele>1421</ele>
        <time>2010-06-13T13:34:24Z</time>
      </trkpt>
      <trkpt lat="45.74634" lon="6.20043">
        <ele>1420</ele>
        <time>2010-06-13T13:34:28Z</time>
      </trkpt>
      <trkpt lat="45.74634" lon="6.20035">
        <ele>1417</ele>
        <time>2010-06-13T13:34:37Z</time>
      </trkpt>
      <trkpt lat="45.74632" lon="6.20033">
        <ele>1415</ele>
        <time>2010-06-13T13:34:49Z</time>
      </trkpt>
      <trkpt lat="45.74634" lon="6.20029">
        <ele>1413</ele>
        <time>2010-06-13T13:34:58Z</time>
      </trkpt>
      <trkpt lat="45.74637" lon="6.20024">
        <ele>1410</ele>
        <time>2010-06-13T13:35:10Z</time>
      </trkpt>
      <trkpt lat="45.74638" lon="6.20019">
        <ele>1409</ele>
        <time>2010-06-13T13:35:18Z</time>
      </trkpt>
      <trkpt lat="45.74638" lon="6.20022">
        <ele>1409</ele>
        <time>2010-06-13T13:35:29Z</time>
      </trkpt>
      <trkpt lat="45.74638" lon="6.2002">
        <ele>1408</ele>
        <time>2010-06-13T13:35:45Z</time>
      </trkpt>
      <trkpt lat="45.74641" lon="6.20019">
        <ele>1406</ele>
        <time>2010-06-13T13:38:19Z</time>
      </trkpt>
      <trkpt lat="45.7464" lon="6.20016">
        <ele>1404</ele>
        <time>2010-06-13T13:38:26Z</time>
      </trkpt>
      <trkpt lat="45.74636" lon="6.20009">
        <ele>1402</ele>
        <time>2010-06-13T13:38:34Z</time>
      </trkpt>
      <trkpt lat="45.74631" lon="6.20002">
        <ele>1399</ele>
        <time>2010-06-13T13:38:44Z</time>
      </trkpt>
      <trkpt lat="45.74632" lon="6.19993">
        <ele>1398</ele>
        <time>2010-06-13T13:38:51Z</time>
      </trkpt>
      <trkpt lat="45.7463" lon="6.19982">
        <ele>1396</ele>
        <time>2010-06-13T13:39:00Z</time>
      </trkpt>
      <trkpt lat="45.74627" lon="6.19973">
        <ele>1395</ele>
        <time>2010-06-13T13:39:09Z</time>
      </trkpt>
      <trkpt lat="45.7463" lon="6.19963">
        <ele>1392</ele>
        <time>2010-06-13T13:39:17Z</time>
      </trkpt>
      <trkpt lat="45.74626" lon="6.19954">
        <ele>1389</ele>
        <time>2010-06-13T13:39:26Z</time>
      </trkpt>
      <trkpt lat="45.74617" lon="6.19944">
        <ele>1386</ele>
        <time>2010-06-13T13:39:35Z</time>
      </trkpt>
      <trkpt lat="45.74614" lon="6.19935">
        <ele>1384</ele>
        <time>2010-06-13T13:39:43Z</time>
      </trkpt>
      <trkpt lat="45.74614" lon="6.19928">
        <ele>1383</ele>
        <time>2010-06-13T13:39:50Z</time>
      </trkpt>
      <trkpt lat="45.74613" lon="6.19916">
        <ele>1381</ele>
        <time>2010-06-13T13:39:59Z</time>
      </trkpt>
      <trkpt lat="45.74609" lon="6.19907">
        <ele>1379</ele>
        <time>2010-06-13T13:40:07Z</time>
      </trkpt>
      <trkpt lat="45.74605" lon="6.19902">
        <ele>1378</ele>
        <time>2010-06-13T13:40:15Z</time>
      </trkpt>
      <trkpt lat="45.746" lon="6.19904">
        <ele>1376</ele>
        <time>2010-06-13T13:40:23Z</time>
      </trkpt>
      <trkpt lat="45.74601" lon="6.19904">
        <ele>1375</ele>
        <time>2010-06-13T13:40:29Z</time>
      </trkpt>
      <trkpt lat="45.74604" lon="6.19908">
        <ele>1374</ele>
        <time>2010-06-13T13:40:35Z</time>
      </trkpt>
      <trkpt lat="45.74611" lon="6.19918">
        <ele>1373</ele>
        <time>2010-06-13T13:40:44Z</time>
      </trkpt>
      <trkpt lat="45.74614" lon="6.19923">
        <ele>1372</ele>
        <time>2010-06-13T13:40:50Z</time>
      </trkpt>
      <trkpt lat="45.74622" lon="6.19928">
        <ele>1371</ele>
        <time>2010-06-13T13:40:58Z</time>
      </trkpt>
      <trkpt lat="45.74627" lon="6.19932">
        <ele>1371</ele>
        <time>2010-06-13T13:41:05Z</time>
      </trkpt>
      <trkpt lat="45.74633" lon="6.19935">
        <ele>1369</ele>
        <time>2010-06-13T13:41:13Z</time>
      </trkpt>
      <trkpt lat="45.74644" lon="6.19946">
        <ele>1368</ele>
        <time>2010-06-13T13:41:22Z</time>
      </trkpt>
      <trkpt lat="45.74653" lon="6.19951">
        <ele>1366</ele>
        <time>2010-06-13T13:41:30Z</time>
      </trkpt>
      <trkpt lat="45.74659" lon="6.19953">
        <ele>1365</ele>
        <time>2010-06-13T13:41:38Z</time>
      </trkpt>
      <trkpt lat="45.74668" lon="6.19956">
        <ele>1363</ele>
        <time>2010-06-13T13:41:46Z</time>
      </trkpt>
      <trkpt lat="45.74674" lon="6.19949">
        <ele>1362</ele>
        <time>2010-06-13T13:41:55Z</time>
      </trkpt>
      <trkpt lat="45.74674" lon="6.19944">
        <ele>1361</ele>
        <time>2010-06-13T13:42:00Z</time>
      </trkpt>
      <trkpt lat="45.74669" lon="6.19933">
        <ele>1360</ele>
        <time>2010-06-13T13:42:07Z</time>
      </trkpt>
      <trkpt lat="45.74667" lon="6.19927">
        <ele>1359</ele>
        <time>2010-06-13T13:42:11Z</time>
      </trkpt>
      <trkpt lat="45.74661" lon="6.19918">
        <ele>1358</ele>
        <time>2010-06-13T13:42:19Z</time>
      </trkpt>
      <trkpt lat="45.74657" lon="6.19905">
        <ele>1357</ele>
        <time>2010-06-13T13:42:30Z</time>
      </trkpt>
      <trkpt lat="45.74656" lon="6.19899">
        <ele>1356</ele>
        <time>2010-06-13T13:42:37Z</time>
      </trkpt>
      <trkpt lat="45.74651" lon="6.19886">
        <ele>1355</ele>
        <time>2010-06-13T13:42:45Z</time>
      </trkpt>
      <trkpt lat="45.74645" lon="6.19878">
        <ele>1354</ele>
        <time>2010-06-13T13:42:52Z</time>
      </trkpt>
      <trkpt lat="45.7464" lon="6.19872">
        <ele>1353</ele>
        <time>2010-06-13T13:42:58Z</time>
      </trkpt>
      <trkpt lat="45.74637" lon="6.19861">
        <ele>1352</ele>
        <time>2010-06-13T13:43:06Z</time>
      </trkpt>
      <trkpt lat="45.7463" lon="6.1985">
        <ele>1351</ele>
        <time>2010-06-13T13:43:14Z</time>
      </trkpt>
      <trkpt lat="45.74626" lon="6.1984">
        <ele>1350</ele>
        <time>2010-06-13T13:43:22Z</time>
      </trkpt>
      <trkpt lat="45.74621" lon="6.19832">
        <ele>1348</ele>
        <time>2010-06-13T13:43:29Z</time>
      </trkpt>
      <trkpt lat="45.7461" lon="6.19828">
        <ele>1346</ele>
        <time>2010-06-13T13:43:37Z</time>
      </trkpt>
      <trkpt lat="45.74608" lon="6.19828">
        <ele>1346</ele>
        <time>2010-06-13T13:43:44Z</time>
      </trkpt>
      <trkpt lat="45.74611" lon="6.19826">
        <ele>1346</ele>
        <time>2010-06-13T13:43:49Z</time>
      </trkpt>
      <trkpt lat="45.74617" lon="6.19827">
        <ele>1344</ele>
        <time>2010-06-13T13:43:58Z</time>
      </trkpt>
      <trkpt lat="45.7462" lon="6.19834">
        <ele>1343</ele>
        <time>2010-06-13T13:44:04Z</time>
      </trkpt>
      <trkpt lat="45.74623" lon="6.19841">
        <ele>1342</ele>
        <time>2010-06-13T13:44:10Z</time>
      </trkpt>
      <trkpt lat="45.74627" lon="6.19844">
        <ele>1342</ele>
        <time>2010-06-13T13:44:13Z</time>
      </trkpt>
      <trkpt lat="45.74635" lon="6.19846">
        <ele>1339</ele>
        <time>2010-06-13T13:44:21Z</time>
      </trkpt>
      <trkpt lat="45.74641" lon="6.1985">
        <ele>1338</ele>
        <time>2010-06-13T13:44:27Z</time>
      </trkpt>
      <trkpt lat="45.74649" lon="6.19857">
        <ele>1337</ele>
        <time>2010-06-13T13:44:35Z</time>
      </trkpt>
      <trkpt lat="45.74656" lon="6.19865">
        <ele>1336</ele>
        <time>2010-06-13T13:44:42Z</time>
      </trkpt>
      <trkpt lat="45.74662" lon="6.19869">
        <ele>1335</ele>
        <time>2010-06-13T13:44:49Z</time>
      </trkpt>
      <trkpt lat="45.74669" lon="6.19873">
        <ele>1334</ele>
        <time>2010-06-13T13:44:56Z</time>
      </trkpt>
      <trkpt lat="45.7468" lon="6.19879">
        <ele>1333</ele>
        <time>2010-06-13T13:45:04Z</time>
      </trkpt>
      <trkpt lat="45.74689" lon="6.19884">
        <ele>1333</ele>
        <time>2010-06-13T13:45:11Z</time>
      </trkpt>
      <trkpt lat="45.74691" lon="6.19884">
        <ele>1332</ele>
        <time>2010-06-13T13:45:13Z</time>
      </trkpt>
      <trkpt lat="45.747" lon="6.19889">
        <ele>1330</ele>
        <time>2010-06-13T13:45:22Z</time>
      </trkpt>
      <trkpt lat="45.74706" lon="6.19893">
        <ele>1329</ele>
        <time>2010-06-13T13:45:29Z</time>
      </trkpt>
      <trkpt lat="45.7471" lon="6.19894">
        <ele>1328</ele>
        <time>2010-06-13T13:45:37Z</time>
      </trkpt>
      <trkpt lat="45.74712" lon="6.19888">
        <ele>1326</ele>
        <time>2010-06-13T13:45:44Z</time>
      </trkpt>
      <trkpt lat="45.7471" lon="6.19882">
        <ele>1326</ele>
        <time>2010-06-13T13:45:50Z</time>
      </trkpt>
      <trkpt lat="45.74708" lon="6.19872">
        <ele>1324</ele>
        <time>2010-06-13T13:45:59Z</time>
      </trkpt>
      <trkpt lat="45.74703" lon="6.19864">
        <ele>1323</ele>
        <time>2010-06-13T13:46:05Z</time>
      </trkpt>
      <trkpt lat="45.74696" lon="6.19855">
        <ele>1321</ele>
        <time>2010-06-13T13:46:14Z</time>
      </trkpt>
      <trkpt lat="45.74691" lon="6.19844">
        <ele>1320</ele>
        <time>2010-06-13T13:46:23Z</time>
      </trkpt>
      <trkpt lat="45.74686" lon="6.19835">
        <ele>1319</ele>
        <time>2010-06-13T13:46:30Z</time>
      </trkpt>
      <trkpt lat="45.74684" lon="6.19825">
        <ele>1318</ele>
        <time>2010-06-13T13:46:38Z</time>
      </trkpt>
      <trkpt lat="45.74684" lon="6.19814">
        <ele>1317</ele>
        <time>2010-06-13T13:46:45Z</time>
      </trkpt>
      <trkpt lat="45.7468" lon="6.19804">
        <ele>1316</ele>
        <time>2010-06-13T13:46:52Z</time>
      </trkpt>
      <trkpt lat="45.74675" lon="6.19791">
        <ele>1314</ele>
        <time>2010-06-13T13:47:02Z</time>
      </trkpt>
      <trkpt lat="45.74669" lon="6.19783">
        <ele>1313</ele>
        <time>2010-06-13T13:47:09Z</time>
      </trkpt>
      <trkpt lat="45.74663" lon="6.19774">
        <ele>1312</ele>
        <time>2010-06-13T13:47:17Z</time>
      </trkpt>
      <trkpt lat="45.74657" lon="6.19764">
        <ele>1311</ele>
        <time>2010-06-13T13:47:23Z</time>
      </trkpt>
      <trkpt lat="45.74654" lon="6.19757">
        <ele>1310</ele>
        <time>2010-06-13T13:47:29Z</time>
      </trkpt>
      <trkpt lat="45.74644" lon="6.19758">
        <ele>1309</ele>
        <time>2010-06-13T13:47:37Z</time>
      </trkpt>
      <trkpt lat="45.74647" lon="6.19762">
        <ele>1307</ele>
        <time>2010-06-13T13:47:45Z</time>
      </trkpt>
      <trkpt lat="45.74648" lon="6.1976">
        <ele>1307</ele>
        <time>2010-06-13T13:47:50Z</time>
      </trkpt>
      <trkpt lat="45.74651" lon="6.19765">
        <ele>1306</ele>
        <time>2010-06-13T13:47:57Z</time>
      </trkpt>
      <trkpt lat="45.74657" lon="6.19767">
        <ele>1305</ele>
        <time>2010-06-13T13:48:05Z</time>
      </trkpt>
      <trkpt lat="45.74664" lon="6.19776">
        <ele>1303</ele>
        <time>2010-06-13T13:48:14Z</time>
      </trkpt>
      <trkpt lat="45.74673" lon="6.19781">
        <ele>1302</ele>
        <time>2010-06-13T13:48:23Z</time>
      </trkpt>
      <trkpt lat="45.7468" lon="6.19786">
        <ele>1301</ele>
        <time>2010-06-13T13:48:31Z</time>
      </trkpt>
      <trkpt lat="45.74687" lon="6.19796">
        <ele>1300</ele>
        <time>2010-06-13T13:48:40Z</time>
      </trkpt>
      <trkpt lat="45.74694" lon="6.19804">
        <ele>1299</ele>
        <time>2010-06-13T13:48:47Z</time>
      </trkpt>
      <trkpt lat="45.74704" lon="6.19812">
        <ele>1297</ele>
        <time>2010-06-13T13:48:57Z</time>
      </trkpt>
      <trkpt lat="45.74708" lon="6.19813">
        <ele>1296</ele>
        <time>2010-06-13T13:49:02Z</time>
      </trkpt>
      <trkpt lat="45.74719" lon="6.19813">
        <ele>1296</ele>
        <time>2010-06-13T13:49:10Z</time>
      </trkpt>
      <trkpt lat="45.74725" lon="6.19819">
        <ele>1295</ele>
        <time>2010-06-13T13:49:17Z</time>
      </trkpt>
      <trkpt lat="45.74731" lon="6.19823">
        <ele>1295</ele>
        <time>2010-06-13T13:49:24Z</time>
      </trkpt>
      <trkpt lat="45.74734" lon="6.19829">
        <ele>1293</ele>
        <time>2010-06-13T13:49:31Z</time>
      </trkpt>
      <trkpt lat="45.74745" lon="6.19828">
        <ele>1291</ele>
        <time>2010-06-13T13:49:38Z</time>
      </trkpt>
      <trkpt lat="45.74749" lon="6.19821">
        <ele>1290</ele>
        <time>2010-06-13T13:49:44Z</time>
      </trkpt>
      <trkpt lat="45.74747" lon="6.19814">
        <ele>1290</ele>
        <time>2010-06-13T13:49:50Z</time>
      </trkpt>
      <trkpt lat="45.74745" lon="6.19807">
        <ele>1288</ele>
        <time>2010-06-13T13:49:57Z</time>
      </trkpt>
      <trkpt lat="45.7474" lon="6.19795">
        <ele>1286</ele>
        <time>2010-06-13T13:50:07Z</time>
      </trkpt>
      <trkpt lat="45.74736" lon="6.1979">
        <ele>1285</ele>
        <time>2010-06-13T13:50:12Z</time>
      </trkpt>
      <trkpt lat="45.7473" lon="6.19781">
        <ele>1285</ele>
        <time>2010-06-13T13:50:19Z</time>
      </trkpt>
      <trkpt lat="45.74723" lon="6.19772">
        <ele>1284</ele>
        <time>2010-06-13T13:50:27Z</time>
      </trkpt>
      <trkpt lat="45.74721" lon="6.19767">
        <ele>1283</ele>
        <time>2010-06-13T13:50:33Z</time>
      </trkpt>
      <trkpt lat="45.74717" lon="6.19759">
        <ele>1283</ele>
        <time>2010-06-13T13:50:40Z</time>
      </trkpt>
      <trkpt lat="45.74716" lon="6.19753">
        <ele>1282</ele>
        <time>2010-06-13T13:50:46Z</time>
      </trkpt>
      <trkpt lat="45.74711" lon="6.19748">
        <ele>1281</ele>
        <time>2010-06-13T13:50:51Z</time>
      </trkpt>
      <trkpt lat="45.74711" lon="6.1974">
        <ele>1280</ele>
        <time>2010-06-13T13:50:57Z</time>
      </trkpt>
      <trkpt lat="45.74707" lon="6.19735">
        <ele>1279</ele>
        <time>2010-06-13T13:51:03Z</time>
      </trkpt>
      <trkpt lat="45.74702" lon="6.19728">
        <ele>1278</ele>
        <time>2010-06-13T13:51:08Z</time>
      </trkpt>
      <trkpt lat="45.74695" lon="6.19719">
        <ele>1278</ele>
        <time>2010-06-13T13:51:15Z</time>
      </trkpt>
      <trkpt lat="45.74689" lon="6.19711">
        <ele>1277</ele>
        <time>2010-06-13T13:51:21Z</time>
      </trkpt>
      <trkpt lat="45.74688" lon="6.19703">
        <ele>1276</ele>
        <time>2010-06-13T13:51:28Z</time>
      </trkpt>
      <trkpt lat="45.74678" lon="6.19687">
        <ele>1275</ele>
        <time>2010-06-13T13:51:39Z</time>
      </trkpt>
      <trkpt lat="45.74673" lon="6.19678">
        <ele>1273</ele>
        <time>2010-06-13T13:51:47Z</time>
      </trkpt>
      <trkpt lat="45.74669" lon="6.19672">
        <ele>1273</ele>
        <time>2010-06-13T13:51:52Z</time>
      </trkpt>
      <trkpt lat="45.74665" lon="6.19664">
        <ele>1272</ele>
        <time>2010-06-13T13:51:59Z</time>
      </trkpt>
      <trkpt lat="45.74662" lon="6.19662">
        <ele>1269</ele>
        <time>2010-06-13T13:52:12Z</time>
      </trkpt>
      <trkpt lat="45.74666" lon="6.19665">
        <ele>1268</ele>
        <time>2010-06-13T13:52:20Z</time>
      </trkpt>
      <trkpt lat="45.7467" lon="6.1967">
        <ele>1266</ele>
        <time>2010-06-13T13:52:29Z</time>
      </trkpt>
      <trkpt lat="45.74673" lon="6.19671">
        <ele>1265</ele>
        <time>2010-06-13T13:52:32Z</time>
      </trkpt>
      <trkpt lat="45.74676" lon="6.19677">
        <ele>1264</ele>
        <time>2010-06-13T13:52:39Z</time>
      </trkpt>
      <trkpt lat="45.74682" lon="6.19677">
        <ele>1264</ele>
        <time>2010-06-13T13:52:46Z</time>
      </trkpt>
      <trkpt lat="45.74688" lon="6.19679">
        <ele>1263</ele>
        <time>2010-06-13T13:52:53Z</time>
      </trkpt>
      <trkpt lat="45.74697" lon="6.19686">
        <ele>1262</ele>
        <time>2010-06-13T13:52:59Z</time>
      </trkpt>
      <trkpt lat="45.74704" lon="6.19694">
        <ele>1261</ele>
        <time>2010-06-13T13:53:06Z</time>
      </trkpt>
      <trkpt lat="45.7471" lon="6.19701">
        <ele>1261</ele>
        <time>2010-06-13T13:53:13Z</time>
      </trkpt>
      <trkpt lat="45.74713" lon="6.19705">
        <ele>1260</ele>
        <time>2010-06-13T13:53:19Z</time>
      </trkpt>
      <trkpt lat="45.74716" lon="6.19708">
        <ele>1259</ele>
        <time>2010-06-13T13:53:25Z</time>
      </trkpt>
      <trkpt lat="45.7472" lon="6.19711">
        <ele>1259</ele>
        <time>2010-06-13T13:53:30Z</time>
      </trkpt>
      <trkpt lat="45.74727" lon="6.19713">
        <ele>1258</ele>
        <time>2010-06-13T13:53:37Z</time>
      </trkpt>
      <trkpt lat="45.74742" lon="6.19722">
        <ele>1257</ele>
        <time>2010-06-13T13:53:48Z</time>
      </trkpt>
      <trkpt lat="45.74752" lon="6.19723">
        <ele>1255</ele>
        <time>2010-06-13T13:53:56Z</time>
      </trkpt>
      <trkpt lat="45.74758" lon="6.19721">
        <ele>1254</ele>
        <time>2010-06-13T13:54:02Z</time>
      </trkpt>
      <trkpt lat="45.74763" lon="6.19723">
        <ele>1253</ele>
        <time>2010-06-13T13:54:07Z</time>
      </trkpt>
      <trkpt lat="45.74764" lon="6.19729">
        <ele>1252</ele>
        <time>2010-06-13T13:54:13Z</time>
      </trkpt>
      <trkpt lat="45.7477" lon="6.19735">
        <ele>1251</ele>
        <time>2010-06-13T13:54:20Z</time>
      </trkpt>
      <trkpt lat="45.74777" lon="6.1974">
        <ele>1251</ele>
        <time>2010-06-13T13:54:27Z</time>
      </trkpt>
      <trkpt lat="45.74786" lon="6.19745">
        <ele>1250</ele>
        <time>2010-06-13T13:54:34Z</time>
      </trkpt>
      <trkpt lat="45.74797" lon="6.19749">
        <ele>1248</ele>
        <time>2010-06-13T13:54:42Z</time>
      </trkpt>
      <trkpt lat="45.74802" lon="6.19754">
        <ele>1247</ele>
        <time>2010-06-13T13:54:48Z</time>
      </trkpt>
      <trkpt lat="45.74807" lon="6.19759">
        <ele>1246</ele>
        <time>2010-06-13T13:54:55Z</time>
      </trkpt>
      <trkpt lat="45.74813" lon="6.19769">
        <ele>1246</ele>
        <time>2010-06-13T13:55:03Z</time>
      </trkpt>
      <trkpt lat="45.74814" lon="6.19771">
        <ele>1245</ele>
        <time>2010-06-13T13:55:04Z</time>
      </trkpt>
      <trkpt lat="45.74816" lon="6.19774">
        <ele>1244</ele>
        <time>2010-06-13T13:55:06Z</time>
      </trkpt>
      <trkpt lat="45.74824" lon="6.19783">
        <ele>1242</ele>
        <time>2010-06-13T13:55:14Z</time>
      </trkpt>
      <trkpt lat="45.74829" lon="6.19793">
        <ele>1241</ele>
        <time>2010-06-13T13:55:22Z</time>
      </trkpt>
      <trkpt lat="45.74832" lon="6.19797">
        <ele>1241</ele>
        <time>2010-06-13T13:55:29Z</time>
      </trkpt>
      <trkpt lat="45.74837" lon="6.19804">
        <ele>1239</ele>
        <time>2010-06-13T13:55:38Z</time>
      </trkpt>
      <trkpt lat="45.74842" lon="6.19813">
        <ele>1237</ele>
        <time>2010-06-13T13:55:46Z</time>
      </trkpt>
      <trkpt lat="45.74848" lon="6.19815">
        <ele>1236</ele>
        <time>2010-06-13T13:55:54Z</time>
      </trkpt>
      <trkpt lat="45.74847" lon="6.19806">
        <ele>1234</ele>
        <time>2010-06-13T13:56:01Z</time>
      </trkpt>
      <trkpt lat="45.74848" lon="6.19789">
        <ele>1234</ele>
        <time>2010-06-13T13:56:12Z</time>
      </trkpt>
      <trkpt lat="45.74847" lon="6.19784">
        <ele>1233</ele>
        <time>2010-06-13T13:56:16Z</time>
      </trkpt>
      <trkpt lat="45.74843" lon="6.19773">
        <ele>1232</ele>
        <time>2010-06-13T13:56:23Z</time>
      </trkpt>
      <trkpt lat="45.74844" lon="6.19758">
        <ele>1229</ele>
        <time>2010-06-13T13:56:34Z</time>
      </trkpt>
      <trkpt lat="45.7484" lon="6.19745">
        <ele>1227</ele>
        <time>2010-06-13T13:56:43Z</time>
      </trkpt>
      <trkpt lat="45.74835" lon="6.19732">
        <ele>1226</ele>
        <time>2010-06-13T13:56:52Z</time>
      </trkpt>
      <trkpt lat="45.7483" lon="6.19721">
        <ele>1224</ele>
        <time>2010-06-13T13:57:01Z</time>
      </trkpt>
      <trkpt lat="45.74827" lon="6.19711">
        <ele>1223</ele>
        <time>2010-06-13T13:57:09Z</time>
      </trkpt>
      <trkpt lat="45.74822" lon="6.19699">
        <ele>1222</ele>
        <time>2010-06-13T13:57:18Z</time>
      </trkpt>
      <trkpt lat="45.7482" lon="6.19698">
        <ele>1222</ele>
        <time>2010-06-13T13:57:20Z</time>
      </trkpt>
      <trkpt lat="45.74816" lon="6.19691">
        <ele>1222</ele>
        <time>2010-06-13T13:57:28Z</time>
      </trkpt>
      <trkpt lat="45.74811" lon="6.19682">
        <ele>1221</ele>
        <time>2010-06-13T13:57:37Z</time>
      </trkpt>
      <trkpt lat="45.7481" lon="6.19681">
        <ele>1220</ele>
        <time>2010-06-13T13:57:38Z</time>
      </trkpt>
      <trkpt lat="45.74807" lon="6.1967">
        <ele>1220</ele>
        <time>2010-06-13T13:57:46Z</time>
      </trkpt>
      <trkpt lat="45.74805" lon="6.1966">
        <ele>1218</ele>
        <time>2010-06-13T13:57:55Z</time>
      </trkpt>
      <trkpt lat="45.74803" lon="6.19656">
        <ele>1217</ele>
        <time>2010-06-13T13:58:02Z</time>
      </trkpt>
      <trkpt lat="45.74799" lon="6.19664">
        <ele>1217</ele>
        <time>2010-06-13T13:58:22Z</time>
      </trkpt>
      <trkpt lat="45.74799" lon="6.19663">
        <ele>1216</ele>
        <time>2010-06-13T13:58:36Z</time>
      </trkpt>
      <trkpt lat="45.74805" lon="6.19657">
        <ele>1215</ele>
        <time>2010-06-13T13:58:58Z</time>
      </trkpt>
      <trkpt lat="45.7481" lon="6.19659">
        <ele>1213</ele>
        <time>2010-06-13T13:59:05Z</time>
      </trkpt>
      <trkpt lat="45.74816" lon="6.19664">
        <ele>1213</ele>
        <time>2010-06-13T13:59:12Z</time>
      </trkpt>
      <trkpt lat="45.74826" lon="6.19667">
        <ele>1211</ele>
        <time>2010-06-13T13:59:20Z</time>
      </trkpt>
      <trkpt lat="45.74836" lon="6.19671">
        <ele>1209</ele>
        <time>2010-06-13T13:59:29Z</time>
      </trkpt>
      <trkpt lat="45.74842" lon="6.19674">
        <ele>1208</ele>
        <time>2010-06-13T13:59:37Z</time>
      </trkpt>
      <trkpt lat="45.74847" lon="6.19678">
        <ele>1207</ele>
        <time>2010-06-13T13:59:44Z</time>
      </trkpt>
      <trkpt lat="45.74852" lon="6.19681">
        <ele>1205</ele>
        <time>2010-06-13T13:59:53Z</time>
      </trkpt>
      <trkpt lat="45.74858" lon="6.19686">
        <ele>1204</ele>
        <time>2010-06-13T14:00:01Z</time>
      </trkpt>
      <trkpt lat="45.74864" lon="6.19691">
        <ele>1203</ele>
        <time>2010-06-13T14:00:08Z</time>
      </trkpt>
      <trkpt lat="45.74871" lon="6.19701">
        <ele>1202</ele>
        <time>2010-06-13T14:00:18Z</time>
      </trkpt>
      <trkpt lat="45.74879" lon="6.19716">
        <ele>1201</ele>
        <time>2010-06-13T14:00:25Z</time>
      </trkpt>
      <trkpt lat="45.74885" lon="6.19724">
        <ele>1200</ele>
        <time>2010-06-13T14:00:32Z</time>
      </trkpt>
      <trkpt lat="45.74888" lon="6.19735">
        <ele>1198</ele>
        <time>2010-06-13T14:00:39Z</time>
      </trkpt>
      <trkpt lat="45.74889" lon="6.19736">
        <ele>1198</ele>
        <time>2010-06-13T14:00:40Z</time>
      </trkpt>
      <trkpt lat="45.74896" lon="6.19746">
        <ele>1197</ele>
        <time>2010-06-13T14:00:48Z</time>
      </trkpt>
      <trkpt lat="45.74902" lon="6.19754">
        <ele>1197</ele>
        <time>2010-06-13T14:00:56Z</time>
      </trkpt>
      <trkpt lat="45.74903" lon="6.19761">
        <ele>1196</ele>
        <time>2010-06-13T14:01:03Z</time>
      </trkpt>
      <trkpt lat="45.74906" lon="6.19769">
        <ele>1194</ele>
        <time>2010-06-13T14:01:09Z</time>
      </trkpt>
      <trkpt lat="45.74907" lon="6.19776">
        <ele>1193</ele>
        <time>2010-06-13T14:01:17Z</time>
      </trkpt>
      <trkpt lat="45.74911" lon="6.19782">
        <ele>1191</ele>
        <time>2010-06-13T14:01:23Z</time>
      </trkpt>
      <trkpt lat="45.74916" lon="6.19787">
        <ele>1190</ele>
        <time>2010-06-13T14:01:29Z</time>
      </trkpt>
      <trkpt lat="45.74922" lon="6.19792">
        <ele>1188</ele>
        <time>2010-06-13T14:01:37Z</time>
      </trkpt>
      <trkpt lat="45.74925" lon="6.19795">
        <ele>1187</ele>
        <time>2010-06-13T14:01:41Z</time>
      </trkpt>
      <trkpt lat="45.7493" lon="6.19792">
        <ele>1185</ele>
        <time>2010-06-13T14:01:48Z</time>
      </trkpt>
      <trkpt lat="45.74929" lon="6.19783">
        <ele>1184</ele>
        <time>2010-06-13T14:01:55Z</time>
      </trkpt>
      <trkpt lat="45.74929" lon="6.19779">
        <ele>1184</ele>
        <time>2010-06-13T14:01:59Z</time>
      </trkpt>
      <trkpt lat="45.74928" lon="6.19773">
        <ele>1184</ele>
        <time>2010-06-13T14:02:05Z</time>
      </trkpt>
      <trkpt lat="45.74928" lon="6.19767">
        <ele>1183</ele>
        <time>2010-06-13T14:02:12Z</time>
      </trkpt>
      <trkpt lat="45.74933" lon="6.19757">
        <ele>1182</ele>
        <time>2010-06-13T14:02:19Z</time>
      </trkpt>
      <trkpt lat="45.74934" lon="6.19744">
        <ele>1180</ele>
        <time>2010-06-13T14:02:27Z</time>
      </trkpt>
      <trkpt lat="45.74934" lon="6.19732">
        <ele>1179</ele>
        <time>2010-06-13T14:02:35Z</time>
      </trkpt>
      <trkpt lat="45.74931" lon="6.19721">
        <ele>1178</ele>
        <time>2010-06-13T14:02:42Z</time>
      </trkpt>
      <trkpt lat="45.74928" lon="6.19712">
        <ele>1177</ele>
        <time>2010-06-13T14:02:49Z</time>
      </trkpt>
      <trkpt lat="45.74924" lon="6.19703">
        <ele>1176</ele>
        <time>2010-06-13T14:02:58Z</time>
      </trkpt>
      <trkpt lat="45.74923" lon="6.19697">
        <ele>1174</ele>
        <time>2010-06-13T14:03:06Z</time>
      </trkpt>
      <trkpt lat="45.74927" lon="6.19692">
        <ele>1172</ele>
        <time>2010-06-13T14:03:16Z</time>
      </trkpt>
      <trkpt lat="45.74931" lon="6.19694">
        <ele>1170</ele>
        <time>2010-06-13T14:03:22Z</time>
      </trkpt>
      <trkpt lat="45.74934" lon="6.19693">
        <ele>1169</ele>
        <time>2010-06-13T14:03:28Z</time>
      </trkpt>
      <trkpt lat="45.74946" lon="6.19703">
        <ele>1169</ele>
        <time>2010-06-13T14:03:35Z</time>
      </trkpt>
      <trkpt lat="45.74949" lon="6.19709">
        <ele>1168</ele>
        <time>2010-06-13T14:03:44Z</time>
      </trkpt>
      <trkpt lat="45.74949" lon="6.1972">
        <ele>1167</ele>
        <time>2010-06-13T14:03:53Z</time>
      </trkpt>
      <trkpt lat="45.74952" lon="6.19728">
        <ele>1165</ele>
        <time>2010-06-13T14:04:01Z</time>
      </trkpt>
      <trkpt lat="45.74953" lon="6.19735">
        <ele>1164</ele>
        <time>2010-06-13T14:04:06Z</time>
      </trkpt>
      <trkpt lat="45.74955" lon="6.19743">
        <ele>1163</ele>
        <time>2010-06-13T14:04:13Z</time>
      </trkpt>
      <trkpt lat="45.7496" lon="6.19748">
        <ele>1161</ele>
        <time>2010-06-13T14:04:20Z</time>
      </trkpt>
      <trkpt lat="45.74966" lon="6.19749">
        <ele>1159</ele>
        <time>2010-06-13T14:04:27Z</time>
      </trkpt>
      <trkpt lat="45.74973" lon="6.19755">
        <ele>1159</ele>
        <time>2010-06-13T14:04:35Z</time>
      </trkpt>
      <trkpt lat="45.74976" lon="6.19764">
        <ele>1158</ele>
        <time>2010-06-13T14:04:44Z</time>
      </trkpt>
      <trkpt lat="45.74979" lon="6.1977">
        <ele>1156</ele>
        <time>2010-06-13T14:04:51Z</time>
      </trkpt>
      <trkpt lat="45.7498" lon="6.19772">
        <ele>1156</ele>
        <time>2010-06-13T14:04:58Z</time>
      </trkpt>
      <trkpt lat="45.74987" lon="6.19777">
        <ele>1155</ele>
        <time>2010-06-13T14:05:05Z</time>
      </trkpt>
      <trkpt lat="45.74988" lon="6.19783">
        <ele>1154</ele>
        <time>2010-06-13T14:05:09Z</time>
      </trkpt>
      <trkpt lat="45.74994" lon="6.19798">
        <ele>1153</ele>
        <time>2010-06-13T14:05:19Z</time>
      </trkpt>
      <trkpt lat="45.74999" lon="6.19812">
        <ele>1152</ele>
        <time>2010-06-13T14:05:28Z</time>
      </trkpt>
      <trkpt lat="45.75002" lon="6.19823">
        <ele>1151</ele>
        <time>2010-06-13T14:05:36Z</time>
      </trkpt>
      <trkpt lat="45.75004" lon="6.19831">
        <ele>1149</ele>
        <time>2010-06-13T14:05:44Z</time>
      </trkpt>
      <trkpt lat="45.75008" lon="6.19828">
        <ele>1148</ele>
        <time>2010-06-13T14:05:50Z</time>
      </trkpt>
      <trkpt lat="45.75007" lon="6.1982">
        <ele>1147</ele>
        <time>2010-06-13T14:05:59Z</time>
      </trkpt>
      <trkpt lat="45.75009" lon="6.19814">
        <ele>1146</ele>
        <time>2010-06-13T14:06:05Z</time>
      </trkpt>
      <trkpt lat="45.75006" lon="6.19808">
        <ele>1144</ele>
        <time>2010-06-13T14:06:13Z</time>
      </trkpt>
      <trkpt lat="45.7501" lon="6.19799">
        <ele>1142</ele>
        <time>2010-06-13T14:06:20Z</time>
      </trkpt>
      <trkpt lat="45.7502" lon="6.19784">
        <ele>1141</ele>
        <time>2010-06-13T14:06:29Z</time>
      </trkpt>
      <trkpt lat="45.75022" lon="6.1977">
        <ele>1138</ele>
        <time>2010-06-13T14:06:37Z</time>
      </trkpt>
      <trkpt lat="45.75021" lon="6.19757">
        <ele>1137</ele>
        <time>2010-06-13T14:06:45Z</time>
      </trkpt>
      <trkpt lat="45.75023" lon="6.19743">
        <ele>1135</ele>
        <time>2010-06-13T14:06:55Z</time>
      </trkpt>
      <trkpt lat="45.75026" lon="6.19734">
        <ele>1134</ele>
        <time>2010-06-13T14:07:03Z</time>
      </trkpt>
      <trkpt lat="45.75026" lon="6.19726">
        <ele>1133</ele>
        <time>2010-06-13T14:07:11Z</time>
      </trkpt>
      <trkpt lat="45.7502" lon="6.19722">
        <ele>1133</ele>
        <time>2010-06-13T14:07:25Z</time>
      </trkpt>
      <trkpt lat="45.75023" lon="6.19714">
        <ele>1133</ele>
        <time>2010-06-13T14:07:36Z</time>
      </trkpt>
      <trkpt lat="45.75019" lon="6.19713">
        <ele>1133</ele>
        <time>2010-06-13T14:07:48Z</time>
      </trkpt>
      <trkpt lat="45.75019" lon="6.19715">
        <ele>1133</ele>
        <time>2010-06-13T14:07:59Z</time>
      </trkpt>
      <trkpt lat="45.75016" lon="6.19714">
        <ele>1132</ele>
        <time>2010-06-13T14:08:08Z</time>
      </trkpt>
      <trkpt lat="45.7501" lon="6.19716">
        <ele>1132</ele>
        <time>2010-06-13T14:08:24Z</time>
      </trkpt>
      <trkpt lat="45.75015" lon="6.19715">
        <ele>1132</ele>
        <time>2010-06-13T14:08:46Z</time>
      </trkpt>
      <trkpt lat="45.75009" lon="6.19712">
        <ele>1132</ele>
        <time>2010-06-13T14:09:00Z</time>
      </trkpt>
      <trkpt lat="45.75018" lon="6.19714">
        <ele>1133</ele>
        <time>2010-06-13T14:09:10Z</time>
      </trkpt>
      <trkpt lat="45.75018" lon="6.19717">
        <ele>1134</ele>
        <time>2010-06-13T14:09:21Z</time>
      </trkpt>
      <trkpt lat="45.75019" lon="6.1971">
        <ele>1132</ele>
        <time>2010-06-13T14:09:29Z</time>
      </trkpt>
      <trkpt lat="45.75016" lon="6.19701">
        <ele>1130</ele>
        <time>2010-06-13T14:09:38Z</time>
      </trkpt>
      <trkpt lat="45.75013" lon="6.197">
        <ele>1130</ele>
        <time>2010-06-13T14:09:47Z</time>
      </trkpt>
      <trkpt lat="45.75014" lon="6.19698">
        <ele>1129</ele>
        <time>2010-06-13T14:09:55Z</time>
      </trkpt>
      <trkpt lat="45.75018" lon="6.19706">
        <ele>1127</ele>
        <time>2010-06-13T14:10:03Z</time>
      </trkpt>
      <trkpt lat="45.75026" lon="6.19715">
        <ele>1126</ele>
        <time>2010-06-13T14:10:12Z</time>
      </trkpt>
      <trkpt lat="45.75037" lon="6.19717">
        <ele>1124</ele>
        <time>2010-06-13T14:10:20Z</time>
      </trkpt>
      <trkpt lat="45.75044" lon="6.19722">
        <ele>1123</ele>
        <time>2010-06-13T14:10:28Z</time>
      </trkpt>
      <trkpt lat="45.75049" lon="6.19727">
        <ele>1121</ele>
        <time>2010-06-13T14:10:38Z</time>
      </trkpt>
      <trkpt lat="45.75052" lon="6.19734">
        <ele>1119</ele>
        <time>2010-06-13T14:10:46Z</time>
      </trkpt>
      <trkpt lat="45.75053" lon="6.19741">
        <ele>1118</ele>
        <time>2010-06-13T14:10:54Z</time>
      </trkpt>
      <trkpt lat="45.75053" lon="6.19748">
        <ele>1116</ele>
        <time>2010-06-13T14:11:02Z</time>
      </trkpt>
      <trkpt lat="45.75053" lon="6.19757">
        <ele>1115</ele>
        <time>2010-06-13T14:11:08Z</time>
      </trkpt>
      <trkpt lat="45.75056" lon="6.19772">
        <ele>1113</ele>
        <time>2010-06-13T14:11:19Z</time>
      </trkpt>
      <trkpt lat="45.75062" lon="6.19778">
        <ele>1112</ele>
        <time>2010-06-13T14:11:25Z</time>
      </trkpt>
      <trkpt lat="45.75065" lon="6.19771">
        <ele>1110</ele>
        <time>2010-06-13T14:11:33Z</time>
      </trkpt>
      <trkpt lat="45.7507" lon="6.19768">
        <ele>1109</ele>
        <time>2010-06-13T14:11:39Z</time>
      </trkpt>
      <trkpt lat="45.75072" lon="6.19757">
        <ele>1109</ele>
        <time>2010-06-13T14:11:49Z</time>
      </trkpt>
      <trkpt lat="45.75076" lon="6.19746">
        <ele>1108</ele>
        <time>2010-06-13T14:11:58Z</time>
      </trkpt>
      <trkpt lat="45.75079" lon="6.19736">
        <ele>1106</ele>
        <time>2010-06-13T14:12:06Z</time>
      </trkpt>
      <trkpt lat="45.75083" lon="6.19726">
        <ele>1105</ele>
        <time>2010-06-13T14:12:13Z</time>
      </trkpt>
      <trkpt lat="45.75089" lon="6.19714">
        <ele>1103</ele>
        <time>2010-06-13T14:12:21Z</time>
      </trkpt>
      <trkpt lat="45.75092" lon="6.19709">
        <ele>1102</ele>
        <time>2010-06-13T14:12:24Z</time>
      </trkpt>
      <trkpt lat="45.75099" lon="6.19695">
        <ele>1101</ele>
        <time>2010-06-13T14:12:33Z</time>
      </trkpt>
      <trkpt lat="45.75107" lon="6.19684">
        <ele>1098</ele>
        <time>2010-06-13T14:12:41Z</time>
      </trkpt>
      <trkpt lat="45.75106" lon="6.19677">
        <ele>1098</ele>
        <time>2010-06-13T14:12:47Z</time>
      </trkpt>
      <trkpt lat="45.75106" lon="6.1967">
        <ele>1098</ele>
        <time>2010-06-13T14:12:51Z</time>
      </trkpt>
      <trkpt lat="45.75112" lon="6.19653">
        <ele>1096</ele>
        <time>2010-06-13T14:13:00Z</time>
      </trkpt>
      <trkpt lat="45.75109" lon="6.1964">
        <ele>1096</ele>
        <time>2010-06-13T14:13:07Z</time>
      </trkpt>
      <trkpt lat="45.75104" lon="6.1963">
        <ele>1093</ele>
        <time>2010-06-13T14:13:15Z</time>
      </trkpt>
      <trkpt lat="45.75099" lon="6.19626">
        <ele>1093</ele>
        <time>2010-06-13T14:13:19Z</time>
      </trkpt>
      <trkpt lat="45.75089" lon="6.19614">
        <ele>1091</ele>
        <time>2010-06-13T14:13:29Z</time>
      </trkpt>
      <trkpt lat="45.75091" lon="6.19609">
        <ele>1091</ele>
        <time>2010-06-13T14:13:35Z</time>
      </trkpt>
      <trkpt lat="45.75092" lon="6.19608">
        <ele>1091</ele>
        <time>2010-06-13T14:13:36Z</time>
      </trkpt>
      <trkpt lat="45.75094" lon="6.19599">
        <ele>1089</ele>
        <time>2010-06-13T14:13:44Z</time>
      </trkpt>
      <trkpt lat="45.7509" lon="6.19589">
        <ele>1087</ele>
        <time>2010-06-13T14:13:51Z</time>
      </trkpt>
      <trkpt lat="45.75086" lon="6.19578">
        <ele>1085</ele>
        <time>2010-06-13T14:14:01Z</time>
      </trkpt>
      <trkpt lat="45.75084" lon="6.19567">
        <ele>1085</ele>
        <time>2010-06-13T14:14:15Z</time>
      </trkpt>
      <trkpt lat="45.75084" lon="6.19556">
        <ele>1085</ele>
        <time>2010-06-13T14:14:23Z</time>
      </trkpt>
      <trkpt lat="45.75081" lon="6.19545">
        <ele>1083</ele>
        <time>2010-06-13T14:14:32Z</time>
      </trkpt>
      <trkpt lat="45.75078" lon="6.19533">
        <ele>1081</ele>
        <time>2010-06-13T14:14:41Z</time>
      </trkpt>
      <trkpt lat="45.7508" lon="6.19528">
        <ele>1080</ele>
        <time>2010-06-13T14:14:46Z</time>
      </trkpt>
      <trkpt lat="45.7508" lon="6.19515">
        <ele>1078</ele>
        <time>2010-06-13T14:14:56Z</time>
      </trkpt>
      <trkpt lat="45.75077" lon="6.19509">
        <ele>1077</ele>
        <time>2010-06-13T14:15:02Z</time>
      </trkpt>
      <trkpt lat="45.75071" lon="6.19504">
        <ele>1076</ele>
        <time>2010-06-13T14:15:05Z</time>
      </trkpt>
      <trkpt lat="45.75067" lon="6.19493">
        <ele>1076</ele>
        <time>2010-06-13T14:15:14Z</time>
      </trkpt>
      <trkpt lat="45.75065" lon="6.19483">
        <ele>1075</ele>
        <time>2010-06-13T14:15:21Z</time>
      </trkpt>
      <trkpt lat="45.75063" lon="6.19475">
        <ele>1072</ele>
        <time>2010-06-13T14:15:29Z</time>
      </trkpt>
      <trkpt lat="45.75065" lon="6.19474">
        <ele>1071</ele>
        <time>2010-06-13T14:15:35Z</time>
      </trkpt>
      <trkpt lat="45.75067" lon="6.19476">
        <ele>1069</ele>
        <time>2010-06-13T14:15:42Z</time>
      </trkpt>
      <trkpt lat="45.75073" lon="6.19481">
        <ele>1068</ele>
        <time>2010-06-13T14:15:50Z</time>
      </trkpt>
      <trkpt lat="45.75079" lon="6.19489">
        <ele>1067</ele>
        <time>2010-06-13T14:15:58Z</time>
      </trkpt>
      <trkpt lat="45.75085" lon="6.19495">
        <ele>1064</ele>
        <time>2010-06-13T14:16:06Z</time>
      </trkpt>
      <trkpt lat="45.75087" lon="6.19499">
        <ele>1063</ele>
        <time>2010-06-13T14:16:09Z</time>
      </trkpt>
      <trkpt lat="45.75094" lon="6.1951">
        <ele>1062</ele>
        <time>2010-06-13T14:16:18Z</time>
      </trkpt>
      <trkpt lat="45.75103" lon="6.19518">
        <ele>1061</ele>
        <time>2010-06-13T14:16:28Z</time>
      </trkpt>
      <trkpt lat="45.75111" lon="6.19518">
        <ele>1060</ele>
        <time>2010-06-13T14:16:35Z</time>
      </trkpt>
      <trkpt lat="45.75117" lon="6.19518">
        <ele>1059</ele>
        <time>2010-06-13T14:16:42Z</time>
      </trkpt>
      <trkpt lat="45.75124" lon="6.19519">
        <ele>1058</ele>
        <time>2010-06-13T14:16:47Z</time>
      </trkpt>
      <trkpt lat="45.75126" lon="6.1952">
        <ele>1058</ele>
        <time>2010-06-13T14:16:49Z</time>
      </trkpt>
      <trkpt lat="45.75136" lon="6.19521">
        <ele>1057</ele>
        <time>2010-06-13T14:16:56Z</time>
      </trkpt>
      <trkpt lat="45.75147" lon="6.19522">
        <ele>1056</ele>
        <time>2010-06-13T14:17:04Z</time>
      </trkpt>
      <trkpt lat="45.75156" lon="6.19524">
        <ele>1054</ele>
        <time>2010-06-13T14:17:12Z</time>
      </trkpt>
      <trkpt lat="45.75162" lon="6.19528">
        <ele>1054</ele>
        <time>2010-06-13T14:17:19Z</time>
      </trkpt>
      <trkpt lat="45.75172" lon="6.1953">
        <ele>1051</ele>
        <time>2010-06-13T14:17:27Z</time>
      </trkpt>
      <trkpt lat="45.75182" lon="6.19532">
        <ele>1049</ele>
        <time>2010-06-13T14:17:35Z</time>
      </trkpt>
      <trkpt lat="45.75189" lon="6.19531">
        <ele>1048</ele>
        <time>2010-06-13T14:17:41Z</time>
      </trkpt>
      <trkpt lat="45.75197" lon="6.1953">
        <ele>1047</ele>
        <time>2010-06-13T14:17:47Z</time>
      </trkpt>
      <trkpt lat="45.75208" lon="6.1953">
        <ele>1046</ele>
        <time>2010-06-13T14:17:55Z</time>
      </trkpt>
      <trkpt lat="45.7522" lon="6.1953">
        <ele>1044</ele>
        <time>2010-06-13T14:18:04Z</time>
      </trkpt>
      <trkpt lat="45.75226" lon="6.1953">
        <ele>1042</ele>
        <time>2010-06-13T14:18:11Z</time>
      </trkpt>
      <trkpt lat="45.75232" lon="6.19533">
        <ele>1041</ele>
        <time>2010-06-13T14:18:21Z</time>
      </trkpt>
      <trkpt lat="45.7524" lon="6.19535">
        <ele>1040</ele>
        <time>2010-06-13T14:18:29Z</time>
      </trkpt>
      <trkpt lat="45.75249" lon="6.19538">
        <ele>1039</ele>
        <time>2010-06-13T14:18:38Z</time>
      </trkpt>
      <trkpt lat="45.75255" lon="6.1954">
        <ele>1038</ele>
        <time>2010-06-13T14:18:44Z</time>
      </trkpt>
      <trkpt lat="45.75262" lon="6.19542">
        <ele>1036</ele>
        <time>2010-06-13T14:18:51Z</time>
      </trkpt>
      <trkpt lat="45.75268" lon="6.19543">
        <ele>1036</ele>
        <time>2010-06-13T14:18:57Z</time>
      </trkpt>
      <trkpt lat="45.75276" lon="6.19547">
        <ele>1035</ele>
        <time>2010-06-13T14:19:04Z</time>
      </trkpt>
      <trkpt lat="45.75279" lon="6.19549">
        <ele>1035</ele>
        <time>2010-06-13T14:19:07Z</time>
      </trkpt>
      <trkpt lat="45.75287" lon="6.19553">
        <ele>1033</ele>
        <time>2010-06-13T14:19:16Z</time>
      </trkpt>
      <trkpt lat="45.75295" lon="6.19555">
        <ele>1032</ele>
        <time>2010-06-13T14:19:22Z</time>
      </trkpt>
      <trkpt lat="45.75301" lon="6.1956">
        <ele>1030</ele>
        <time>2010-06-13T14:19:28Z</time>
      </trkpt>
      <trkpt lat="45.75303" lon="6.1956">
        <ele>1029</ele>
        <time>2010-06-13T14:19:31Z</time>
      </trkpt>
      <trkpt lat="45.75303" lon="6.19547">
        <ele>1028</ele>
        <time>2010-06-13T14:19:41Z</time>
      </trkpt>
      <trkpt lat="45.75303" lon="6.19543">
        <ele>1029</ele>
        <time>2010-06-13T14:19:43Z</time>
      </trkpt>
      <trkpt lat="45.75309" lon="6.1953">
        <ele>1028</ele>
        <time>2010-06-13T14:19:52Z</time>
      </trkpt>
      <trkpt lat="45.75308" lon="6.19522">
        <ele>1027</ele>
        <time>2010-06-13T14:19:57Z</time>
      </trkpt>
      <trkpt lat="45.75309" lon="6.19509">
        <ele>1024</ele>
        <time>2010-06-13T14:20:08Z</time>
      </trkpt>
      <trkpt lat="45.75315" lon="6.19511">
        <ele>1023</ele>
        <time>2010-06-13T14:20:15Z</time>
      </trkpt>
      <trkpt lat="45.75324" lon="6.19518">
        <ele>1022</ele>
        <time>2010-06-13T14:20:25Z</time>
      </trkpt>
      <trkpt lat="45.7533" lon="6.19525">
        <ele>1018</ele>
        <time>2010-06-13T14:20:35Z</time>
      </trkpt>
      <trkpt lat="45.75335" lon="6.19522">
        <ele>1017</ele>
        <time>2010-06-13T14:20:43Z</time>
      </trkpt>
      <trkpt lat="45.75339" lon="6.19515">
        <ele>1016</ele>
        <time>2010-06-13T14:20:51Z</time>
      </trkpt>
      <trkpt lat="45.75342" lon="6.19507">
        <ele>1015</ele>
        <time>2010-06-13T14:20:57Z</time>
      </trkpt>
      <trkpt lat="45.75343" lon="6.19503">
        <ele>1016</ele>
        <time>2010-06-13T14:20:59Z</time>
      </trkpt>
      <trkpt lat="45.75346" lon="6.19488">
        <ele>1014</ele>
        <time>2010-06-13T14:21:09Z</time>
      </trkpt>
      <trkpt lat="45.75352" lon="6.19484">
        <ele>1012</ele>
        <time>2010-06-13T14:21:17Z</time>
      </trkpt>
      <trkpt lat="45.75356" lon="6.19487">
        <ele>1011</ele>
        <time>2010-06-13T14:21:22Z</time>
      </trkpt>
      <trkpt lat="45.75358" lon="6.19495">
        <ele>1010</ele>
        <time>2010-06-13T14:21:31Z</time>
      </trkpt>
      <trkpt lat="45.7536" lon="6.19508">
        <ele>1008</ele>
        <time>2010-06-13T14:21:40Z</time>
      </trkpt>
      <trkpt lat="45.75364" lon="6.19511">
        <ele>1007</ele>
        <time>2010-06-13T14:21:48Z</time>
      </trkpt>
      <trkpt lat="45.75372" lon="6.19507">
        <ele>1005</ele>
        <time>2010-06-13T14:21:55Z</time>
      </trkpt>
      <trkpt lat="45.75373" lon="6.19506">
        <ele>1005</ele>
        <time>2010-06-13T14:22:05Z</time>
      </trkpt>
      <trkpt lat="45.75377" lon="6.19502">
        <ele>1004</ele>
        <time>2010-06-13T14:22:12Z</time>
      </trkpt>
      <trkpt lat="45.75379" lon="6.19493">
        <ele>1003</ele>
        <time>2010-06-13T14:22:19Z</time>
      </trkpt>
      <trkpt lat="45.75382" lon="6.19483">
        <ele>1002</ele>
        <time>2010-06-13T14:22:26Z</time>
      </trkpt>
      <trkpt lat="45.75385" lon="6.1947">
        <ele>1001</ele>
        <time>2010-06-13T14:22:34Z</time>
      </trkpt>
      <trkpt lat="45.75381" lon="6.1946">
        <ele>999</ele>
        <time>2010-06-13T14:22:42Z</time>
      </trkpt>
      <trkpt lat="45.75379" lon="6.19451">
        <ele>1000</ele>
        <time>2010-06-13T14:22:47Z</time>
      </trkpt>
      <trkpt lat="45.75377" lon="6.19442">
        <ele>998</ele>
        <time>2010-06-13T14:22:53Z</time>
      </trkpt>
      <trkpt lat="45.75375" lon="6.19436">
        <ele>998</ele>
        <time>2010-06-13T14:22:57Z</time>
      </trkpt>
      <trkpt lat="45.75372" lon="6.19427">
        <ele>996</ele>
        <time>2010-06-13T14:23:07Z</time>
      </trkpt>
      <trkpt lat="45.75377" lon="6.19425">
        <ele>993</ele>
        <time>2010-06-13T14:23:15Z</time>
      </trkpt>
      <trkpt lat="45.75383" lon="6.19425">
        <ele>992</ele>
        <time>2010-06-13T14:23:22Z</time>
      </trkpt>
      <trkpt lat="45.75388" lon="6.19427">
        <ele>992</ele>
        <time>2010-06-13T14:23:26Z</time>
      </trkpt>
      <trkpt lat="45.75398" lon="6.19434">
        <ele>990</ele>
        <time>2010-06-13T14:23:37Z</time>
      </trkpt>
      <trkpt lat="45.75406" lon="6.19443">
        <ele>988</ele>
        <time>2010-06-13T14:23:47Z</time>
      </trkpt>
      <trkpt lat="45.7541" lon="6.19454">
        <ele>987</ele>
        <time>2010-06-13T14:23:57Z</time>
      </trkpt>
      <trkpt lat="45.75414" lon="6.19462">
        <ele>986</ele>
        <time>2010-06-13T14:24:05Z</time>
      </trkpt>
      <trkpt lat="45.75417" lon="6.19471">
        <ele>985</ele>
        <time>2010-06-13T14:24:13Z</time>
      </trkpt>
      <trkpt lat="45.75419" lon="6.19481">
        <ele>985</ele>
        <time>2010-06-13T14:24:20Z</time>
      </trkpt>
      <trkpt lat="45.7542" lon="6.1949">
        <ele>983</ele>
        <time>2010-06-13T14:24:28Z</time>
      </trkpt>
      <trkpt lat="45.75421" lon="6.19499">
        <ele>982</ele>
        <time>2010-06-13T14:24:33Z</time>
      </trkpt>
      <trkpt lat="45.75421" lon="6.19512">
        <ele>980</ele>
        <time>2010-06-13T14:24:41Z</time>
      </trkpt>
      <trkpt lat="45.75419" lon="6.19528">
        <ele>980</ele>
        <time>2010-06-13T14:24:50Z</time>
      </trkpt>
      <trkpt lat="45.75415" lon="6.19539">
        <ele>978</ele>
        <time>2010-06-13T14:24:58Z</time>
      </trkpt>
      <trkpt lat="45.75412" lon="6.19545">
        <ele>977</ele>
        <time>2010-06-13T14:25:02Z</time>
      </trkpt>
      <trkpt lat="45.75408" lon="6.19559">
        <ele>976</ele>
        <time>2010-06-13T14:25:10Z</time>
      </trkpt>
      <trkpt lat="45.75408" lon="6.19569">
        <ele>974</ele>
        <time>2010-06-13T14:25:18Z</time>
      </trkpt>
      <trkpt lat="45.75406" lon="6.1958">
        <ele>973</ele>
        <time>2010-06-13T14:25:26Z</time>
      </trkpt>
      <trkpt lat="45.75407" lon="6.19587">
        <ele>973</ele>
        <time>2010-06-13T14:25:33Z</time>
      </trkpt>
      <trkpt lat="45.754" lon="6.19597">
        <ele>973</ele>
        <time>2010-06-13T14:25:42Z</time>
      </trkpt>
      <trkpt lat="45.75398" lon="6.19605">
        <ele>971</ele>
        <time>2010-06-13T14:25:48Z</time>
      </trkpt>
      <trkpt lat="45.754" lon="6.19615">
        <ele>970</ele>
        <time>2010-06-13T14:25:56Z</time>
      </trkpt>
      <trkpt lat="45.75403" lon="6.19622">
        <ele>969</ele>
        <time>2010-06-13T14:26:02Z</time>
      </trkpt>
      <trkpt lat="45.75405" lon="6.19632">
        <ele>968</ele>
        <time>2010-06-13T14:26:10Z</time>
      </trkpt>
      <trkpt lat="45.75402" lon="6.19644">
        <ele>966</ele>
        <time>2010-06-13T14:26:19Z</time>
      </trkpt>
      <trkpt lat="45.75399" lon="6.19649">
        <ele>966</ele>
        <time>2010-06-13T14:26:22Z</time>
      </trkpt>
      <trkpt lat="45.75397" lon="6.1966">
        <ele>964</ele>
        <time>2010-06-13T14:26:30Z</time>
      </trkpt>
      <trkpt lat="45.75399" lon="6.19659">
        <ele>963</ele>
        <time>2010-06-13T14:26:37Z</time>
      </trkpt>
      <trkpt lat="45.75404" lon="6.19652">
        <ele>961</ele>
        <time>2010-06-13T14:26:45Z</time>
      </trkpt>
      <trkpt lat="45.75408" lon="6.19644">
        <ele>961</ele>
        <time>2010-06-13T14:26:53Z</time>
      </trkpt>
      <trkpt lat="45.75412" lon="6.19637">
        <ele>960</ele>
        <time>2010-06-13T14:26:59Z</time>
      </trkpt>
      <trkpt lat="45.75422" lon="6.19627">
        <ele>960</ele>
        <time>2010-06-13T14:27:08Z</time>
      </trkpt>
      <trkpt lat="45.7542" lon="6.19622">
        <ele>958</ele>
        <time>2010-06-13T14:27:14Z</time>
      </trkpt>
      <trkpt lat="45.75423" lon="6.19611">
        <ele>958</ele>
        <time>2010-06-13T14:27:21Z</time>
      </trkpt>
      <trkpt lat="45.75427" lon="6.19606">
        <ele>956</ele>
        <time>2010-06-13T14:27:28Z</time>
      </trkpt>
      <trkpt lat="45.75433" lon="6.19603">
        <ele>955</ele>
        <time>2010-06-13T14:27:33Z</time>
      </trkpt>
      <trkpt lat="45.75438" lon="6.19591">
        <ele>953</ele>
        <time>2010-06-13T14:27:41Z</time>
      </trkpt>
      <trkpt lat="45.7544" lon="6.19584">
        <ele>952</ele>
        <time>2010-06-13T14:27:51Z</time>
      </trkpt>
      <trkpt lat="45.75447" lon="6.19579">
        <ele>952</ele>
        <time>2010-06-13T14:27:57Z</time>
      </trkpt>
      <trkpt lat="45.75456" lon="6.1957">
        <ele>949</ele>
        <time>2010-06-13T14:28:07Z</time>
      </trkpt>
      <trkpt lat="45.75461" lon="6.1956">
        <ele>948</ele>
        <time>2010-06-13T14:28:18Z</time>
      </trkpt>
      <trkpt lat="45.75468" lon="6.19553">
        <ele>947</ele>
        <time>2010-06-13T14:28:25Z</time>
      </trkpt>
      <trkpt lat="45.75482" lon="6.19543">
        <ele>946</ele>
        <time>2010-06-13T14:28:33Z</time>
      </trkpt>
      <trkpt lat="45.75487" lon="6.19537">
        <ele>945</ele>
        <time>2010-06-13T14:28:38Z</time>
      </trkpt>
      <trkpt lat="45.75496" lon="6.19527">
        <ele>944</ele>
        <time>2010-06-13T14:28:46Z</time>
      </trkpt>
      <trkpt lat="45.75501" lon="6.19521">
        <ele>942</ele>
        <time>2010-06-13T14:28:52Z</time>
      </trkpt>
      <trkpt lat="45.75504" lon="6.19512">
        <ele>941</ele>
        <time>2010-06-13T14:28:59Z</time>
      </trkpt>
      <trkpt lat="45.75505" lon="6.1951">
        <ele>941</ele>
        <time>2010-06-13T14:29:01Z</time>
      </trkpt>
      <trkpt lat="45.75504" lon="6.19503">
        <ele>940</ele>
        <time>2010-06-13T14:29:09Z</time>
      </trkpt>
      <trkpt lat="45.75511" lon="6.19489">
        <ele>937</ele>
        <time>2010-06-13T14:29:26Z</time>
      </trkpt>
      <trkpt lat="45.75519" lon="6.19476">
        <ele>936</ele>
        <time>2010-06-13T14:29:37Z</time>
      </trkpt>
      <trkpt lat="45.75522" lon="6.19468">
        <ele>936</ele>
        <time>2010-06-13T14:29:42Z</time>
      </trkpt>
      <trkpt lat="45.75527" lon="6.19463">
        <ele>935</ele>
        <time>2010-06-13T14:29:45Z</time>
      </trkpt>
      <trkpt lat="45.75539" lon="6.19453">
        <ele>934</ele>
        <time>2010-06-13T14:29:53Z</time>
      </trkpt>
      <trkpt lat="45.75545" lon="6.19446">
        <ele>933</ele>
        <time>2010-06-13T14:29:58Z</time>
      </trkpt>
      <trkpt lat="45.75549" lon="6.19439">
        <ele>931</ele>
        <time>2010-06-13T14:30:04Z</time>
      </trkpt>
      <trkpt lat="45.75553" lon="6.1943">
        <ele>931</ele>
        <time>2010-06-13T14:30:12Z</time>
      </trkpt>
      <trkpt lat="45.75555" lon="6.19419">
        <ele>930</ele>
        <time>2010-06-13T14:30:20Z</time>
      </trkpt>
      <trkpt lat="45.75557" lon="6.19408">
        <ele>930</ele>
        <time>2010-06-13T14:30:30Z</time>
      </trkpt>
      <trkpt lat="45.75559" lon="6.19403">
        <ele>928</ele>
        <time>2010-06-13T14:30:36Z</time>
      </trkpt>
      <trkpt lat="45.75563" lon="6.19391">
        <ele>927</ele>
        <time>2010-06-13T14:30:44Z</time>
      </trkpt>
      <trkpt lat="45.75568" lon="6.19376">
        <ele>926</ele>
        <time>2010-06-13T14:30:53Z</time>
      </trkpt>
      <trkpt lat="45.75568" lon="6.19361">
        <ele>924</ele>
        <time>2010-06-13T14:31:02Z</time>
      </trkpt>
      <trkpt lat="45.7556" lon="6.19347">
        <ele>923</ele>
        <time>2010-06-13T14:31:11Z</time>
      </trkpt>
      <trkpt lat="45.7556" lon="6.19342">
        <ele>923</ele>
        <time>2010-06-13T14:31:18Z</time>
      </trkpt>
      <trkpt lat="45.75558" lon="6.19335">
        <ele>923</ele>
        <time>2010-06-13T14:31:27Z</time>
      </trkpt>
      <trkpt lat="45.75557" lon="6.19325">
        <ele>922</ele>
        <time>2010-06-13T14:31:35Z</time>
      </trkpt>
      <trkpt lat="45.75551" lon="6.19314">
        <ele>920</ele>
        <time>2010-06-13T14:31:43Z</time>
      </trkpt>
      <trkpt lat="45.75549" lon="6.19304">
        <ele>919</ele>
        <time>2010-06-13T14:31:50Z</time>
      </trkpt>
      <trkpt lat="45.75546" lon="6.19294">
        <ele>917</ele>
        <time>2010-06-13T14:31:58Z</time>
      </trkpt>
      <trkpt lat="45.75546" lon="6.19288">
        <ele>916</ele>
        <time>2010-06-13T14:32:03Z</time>
      </trkpt>
      <trkpt lat="45.75551" lon="6.19284">
        <ele>914</ele>
        <time>2010-06-13T14:32:08Z</time>
      </trkpt>
      <trkpt lat="45.75552" lon="6.19284">
        <ele>914</ele>
        <time>2010-06-13T14:32:16Z</time>
      </trkpt>
      <trkpt lat="45.75557" lon="6.19285">
        <ele>912</ele>
        <time>2010-06-13T14:32:21Z</time>
      </trkpt>
      <trkpt lat="45.75565" lon="6.19286">
        <ele>911</ele>
        <time>2010-06-13T14:32:27Z</time>
      </trkpt>
      <trkpt lat="45.75569" lon="6.1929">
        <ele>910</ele>
        <time>2010-06-13T14:32:34Z</time>
      </trkpt>
      <trkpt lat="45.75574" lon="6.19294">
        <ele>909</ele>
        <time>2010-06-13T14:32:40Z</time>
      </trkpt>
      <trkpt lat="45.75583" lon="6.193">
        <ele>908</ele>
        <time>2010-06-13T14:32:49Z</time>
      </trkpt>
      <trkpt lat="45.75588" lon="6.19304">
        <ele>906</ele>
        <time>2010-06-13T14:32:55Z</time>
      </trkpt>
      <trkpt lat="45.75591" lon="6.19309">
        <ele>904</ele>
        <time>2010-06-13T14:33:04Z</time>
      </trkpt>
      <trkpt lat="45.75596" lon="6.1931">
        <ele>904</ele>
        <time>2010-06-13T14:33:14Z</time>
      </trkpt>
      <trkpt lat="45.75601" lon="6.19317">
        <ele>903</ele>
        <time>2010-06-13T14:33:21Z</time>
      </trkpt>
      <trkpt lat="45.75609" lon="6.19324">
        <ele>902</ele>
        <time>2010-06-13T14:33:28Z</time>
      </trkpt>
      <trkpt lat="45.75615" lon="6.19332">
        <ele>900</ele>
        <time>2010-06-13T14:33:35Z</time>
      </trkpt>
      <trkpt lat="45.75624" lon="6.1934">
        <ele>899</ele>
        <time>2010-06-13T14:33:42Z</time>
      </trkpt>
      <trkpt lat="45.7563" lon="6.19344">
        <ele>898</ele>
        <time>2010-06-13T14:33:48Z</time>
      </trkpt>
      <trkpt lat="45.75637" lon="6.19353">
        <ele>898</ele>
        <time>2010-06-13T14:33:56Z</time>
      </trkpt>
      <trkpt lat="45.75638" lon="6.19355">
        <ele>898</ele>
        <time>2010-06-13T14:33:57Z</time>
      </trkpt>
      <trkpt lat="45.75638" lon="6.19363">
        <ele>897</ele>
        <time>2010-06-13T14:34:01Z</time>
      </trkpt>
      <trkpt lat="45.75644" lon="6.19372">
        <ele>897</ele>
        <time>2010-06-13T14:34:09Z</time>
      </trkpt>
      <trkpt lat="45.75646" lon="6.19385">
        <ele>896</ele>
        <time>2010-06-13T14:34:20Z</time>
      </trkpt>
      <trkpt lat="45.75653" lon="6.19396">
        <ele>894</ele>
        <time>2010-06-13T14:34:30Z</time>
      </trkpt>
      <trkpt lat="45.75656" lon="6.19402">
        <ele>893</ele>
        <time>2010-06-13T14:34:37Z</time>
      </trkpt>
      <trkpt lat="45.75659" lon="6.19411">
        <ele>892</ele>
        <time>2010-06-13T14:34:44Z</time>
      </trkpt>
      <trkpt lat="45.7566" lon="6.19422">
        <ele>890</ele>
        <time>2010-06-13T14:34:50Z</time>
      </trkpt>
      <trkpt lat="45.75658" lon="6.19431">
        <ele>889</ele>
        <time>2010-06-13T14:34:57Z</time>
      </trkpt>
      <trkpt lat="45.75657" lon="6.19442">
        <ele>889</ele>
        <time>2010-06-13T14:35:06Z</time>
      </trkpt>
      <trkpt lat="45.75656" lon="6.19455">
        <ele>887</ele>
        <time>2010-06-13T14:35:14Z</time>
      </trkpt>
      <trkpt lat="45.75656" lon="6.19468">
        <ele>886</ele>
        <time>2010-06-13T14:35:23Z</time>
      </trkpt>
      <trkpt lat="45.75652" lon="6.19479">
        <ele>885</ele>
        <time>2010-06-13T14:35:29Z</time>
      </trkpt>
      <trkpt lat="45.75649" lon="6.19494">
        <ele>883</ele>
        <time>2010-06-13T14:35:38Z</time>
      </trkpt>
      <trkpt lat="45.75644" lon="6.19507">
        <ele>882</ele>
        <time>2010-06-13T14:35:47Z</time>
      </trkpt>
      <trkpt lat="45.75641" lon="6.19513">
        <ele>882</ele>
        <time>2010-06-13T14:35:52Z</time>
      </trkpt>
      <trkpt lat="45.75637" lon="6.19522">
        <ele>880</ele>
        <time>2010-06-13T14:35:58Z</time>
      </trkpt>
      <trkpt lat="45.75637" lon="6.19528">
        <ele>880</ele>
        <time>2010-06-13T14:36:05Z</time>
      </trkpt>
      <trkpt lat="45.75642" lon="6.19528">
        <ele>878</ele>
        <time>2010-06-13T14:36:16Z</time>
      </trkpt>
      <trkpt lat="45.75645" lon="6.19526">
        <ele>877</ele>
        <time>2010-06-13T14:36:23Z</time>
      </trkpt>
      <trkpt lat="45.75652" lon="6.1952">
        <ele>875</ele>
        <time>2010-06-13T14:36:33Z</time>
      </trkpt>
      <trkpt lat="45.75656" lon="6.19517">
        <ele>874</ele>
        <time>2010-06-13T14:36:42Z</time>
      </trkpt>
      <trkpt lat="45.75662" lon="6.19514">
        <ele>873</ele>
        <time>2010-06-13T14:36:48Z</time>
      </trkpt>
      <trkpt lat="45.7567" lon="6.19509">
        <ele>873</ele>
        <time>2010-06-13T14:36:55Z</time>
      </trkpt>
      <trkpt lat="45.75671" lon="6.19501">
        <ele>871</ele>
        <time>2010-06-13T14:37:03Z</time>
      </trkpt>
      <trkpt lat="45.75674" lon="6.19494">
        <ele>870</ele>
        <time>2010-06-13T14:37:13Z</time>
      </trkpt>
      <trkpt lat="45.75676" lon="6.19493">
        <ele>869</ele>
        <time>2010-06-13T14:37:19Z</time>
      </trkpt>
      <trkpt lat="45.75683" lon="6.19498">
        <ele>868</ele>
        <time>2010-06-13T14:37:27Z</time>
      </trkpt>
      <trkpt lat="45.75685" lon="6.195">
        <ele>867</ele>
        <time>2010-06-13T14:37:33Z</time>
      </trkpt>
      <trkpt lat="45.75692" lon="6.19508">
        <ele>867</ele>
        <time>2010-06-13T14:37:41Z</time>
      </trkpt>
      <trkpt lat="45.75697" lon="6.19515">
        <ele>865</ele>
        <time>2010-06-13T14:37:47Z</time>
      </trkpt>
      <trkpt lat="45.75699" lon="6.19521">
        <ele>864</ele>
        <time>2010-06-13T14:37:52Z</time>
      </trkpt>
      <trkpt lat="45.757" lon="6.1953">
        <ele>864</ele>
        <time>2010-06-13T14:37:58Z</time>
      </trkpt>
      <trkpt lat="45.75702" lon="6.19535">
        <ele>863</ele>
        <time>2010-06-13T14:38:04Z</time>
      </trkpt>
      <trkpt lat="45.75705" lon="6.19538">
        <ele>861</ele>
        <time>2010-06-13T14:38:12Z</time>
      </trkpt>
      <trkpt lat="45.75708" lon="6.19537">
        <ele>859</ele>
        <time>2010-06-13T14:38:20Z</time>
      </trkpt>
      <trkpt lat="45.75708" lon="6.19535">
        <ele>857</ele>
        <time>2010-06-13T14:38:27Z</time>
      </trkpt>
      <trkpt lat="45.75708" lon="6.19537">
        <ele>855</ele>
        <time>2010-06-13T14:38:34Z</time>
      </trkpt>
      <trkpt lat="45.75708" lon="6.19536">
        <ele>854</ele>
        <time>2010-06-13T14:38:41Z</time>
      </trkpt>
      <trkpt lat="45.75707" lon="6.19537">
        <ele>852</ele>
        <time>2010-06-13T14:38:50Z</time>
      </trkpt>
      <trkpt lat="45.75712" lon="6.1954">
        <ele>851</ele>
        <time>2010-06-13T14:38:58Z</time>
      </trkpt>
      <trkpt lat="45.7572" lon="6.19536">
        <ele>850</ele>
        <time>2010-06-13T14:39:06Z</time>
      </trkpt>
      <trkpt lat="45.75723" lon="6.19535">
        <ele>850</ele>
        <time>2010-06-13T14:39:07Z</time>
      </trkpt>
      <trkpt lat="45.75729" lon="6.19535">
        <ele>849</ele>
        <time>2010-06-13T14:39:13Z</time>
      </trkpt>
      <trkpt lat="45.75734" lon="6.19537">
        <ele>848</ele>
        <time>2010-06-13T14:39:20Z</time>
      </trkpt>
      <trkpt lat="45.75739" lon="6.19541">
        <ele>848</ele>
        <time>2010-06-13T14:39:27Z</time>
      </trkpt>
      <trkpt lat="45.75739" lon="6.19548">
        <ele>847</ele>
        <time>2010-06-13T14:39:34Z</time>
      </trkpt>
      <trkpt lat="45.75735" lon="6.19551">
        <ele>846</ele>
        <time>2010-06-13T14:39:41Z</time>
      </trkpt>
      <trkpt lat="45.75732" lon="6.19553">
        <ele>845</ele>
        <time>2010-06-13T14:39:47Z</time>
      </trkpt>
      <trkpt lat="45.75738" lon="6.19562">
        <ele>843</ele>
        <time>2010-06-13T14:39:59Z</time>
      </trkpt>
      <trkpt lat="45.75738" lon="6.19569">
        <ele>843</ele>
        <time>2010-06-13T14:40:06Z</time>
      </trkpt>
      <trkpt lat="45.75737" lon="6.19576">
        <ele>842</ele>
        <time>2010-06-13T14:40:13Z</time>
      </trkpt>
      <trkpt lat="45.75738" lon="6.1958">
        <ele>841</ele>
        <time>2010-06-13T14:40:19Z</time>
      </trkpt>
      <trkpt lat="45.75743" lon="6.19587">
        <ele>840</ele>
        <time>2010-06-13T14:40:27Z</time>
      </trkpt>
      <trkpt lat="45.75742" lon="6.19594">
        <ele>840</ele>
        <time>2010-06-13T14:40:33Z</time>
      </trkpt>
      <trkpt lat="45.75752" lon="6.19606">
        <ele>838</ele>
        <time>2010-06-13T14:40:43Z</time>
      </trkpt>
      <trkpt lat="45.75756" lon="6.19611">
        <ele>838</ele>
        <time>2010-06-13T14:40:51Z</time>
      </trkpt>
      <trkpt lat="45.75762" lon="6.19616">
        <ele>836</ele>
        <time>2010-06-13T14:40:59Z</time>
      </trkpt>
      <trkpt lat="45.75767" lon="6.19621">
        <ele>835</ele>
        <time>2010-06-13T14:41:06Z</time>
      </trkpt>
      <trkpt lat="45.75776" lon="6.19626">
        <ele>834</ele>
        <time>2010-06-13T14:41:17Z</time>
      </trkpt>
      <trkpt lat="45.75785" lon="6.19632">
        <ele>834</ele>
        <time>2010-06-13T14:41:24Z</time>
      </trkpt>
      <trkpt lat="45.75794" lon="6.19636">
        <ele>832</ele>
        <time>2010-06-13T14:41:34Z</time>
      </trkpt>
      <trkpt lat="45.75799" lon="6.19638">
        <ele>830</ele>
        <time>2010-06-13T14:41:42Z</time>
      </trkpt>
      <trkpt lat="45.75801" lon="6.19639">
        <ele>829</ele>
        <time>2010-06-13T14:41:44Z</time>
      </trkpt>
      <trkpt lat="45.75809" lon="6.19641">
        <ele>829</ele>
        <time>2010-06-13T14:41:52Z</time>
      </trkpt>
      <trkpt lat="45.75819" lon="6.19651">
        <ele>826</ele>
        <time>2010-06-13T14:42:01Z</time>
      </trkpt>
      <trkpt lat="45.75827" lon="6.1966">
        <ele>824</ele>
        <time>2010-06-13T14:42:10Z</time>
      </trkpt>
      <trkpt lat="45.75834" lon="6.19666">
        <ele>824</ele>
        <time>2010-06-13T14:42:17Z</time>
      </trkpt>
      <trkpt lat="45.75839" lon="6.19669">
        <ele>823</ele>
        <time>2010-06-13T14:42:21Z</time>
      </trkpt>
      <trkpt lat="45.75847" lon="6.19671">
        <ele>821</ele>
        <time>2010-06-13T14:42:28Z</time>
      </trkpt>
      <trkpt lat="45.75855" lon="6.19679">
        <ele>820</ele>
        <time>2010-06-13T14:42:36Z</time>
      </trkpt>
      <trkpt lat="45.75859" lon="6.19688">
        <ele>819</ele>
        <time>2010-06-13T14:42:44Z</time>
      </trkpt>
      <trkpt lat="45.75858" lon="6.19697">
        <ele>818</ele>
        <time>2010-06-13T14:42:50Z</time>
      </trkpt>
      <trkpt lat="45.75859" lon="6.19709">
        <ele>817</ele>
        <time>2010-06-13T14:42:58Z</time>
      </trkpt>
      <trkpt lat="45.75861" lon="6.19723">
        <ele>815</ele>
        <time>2010-06-13T14:43:06Z</time>
      </trkpt>
      <trkpt lat="45.75862" lon="6.19736">
        <ele>814</ele>
        <time>2010-06-13T14:43:14Z</time>
      </trkpt>
      <trkpt lat="45.75855" lon="6.19749">
        <ele>814</ele>
        <time>2010-06-13T14:43:21Z</time>
      </trkpt>
      <trkpt lat="45.75852" lon="6.19768">
        <ele>811</ele>
        <time>2010-06-13T14:43:31Z</time>
      </trkpt>
      <trkpt lat="45.75861" lon="6.19763">
        <ele>809</ele>
        <time>2010-06-13T14:43:52Z</time>
      </trkpt>
      <trkpt lat="45.75862" lon="6.19759">
        <ele>807</ele>
        <time>2010-06-13T14:44:00Z</time>
      </trkpt>
      <trkpt lat="45.75858" lon="6.19754">
        <ele>806</ele>
        <time>2010-06-13T14:44:06Z</time>
      </trkpt>
      <trkpt lat="45.75851" lon="6.19754">
        <ele>806</ele>
        <time>2010-06-13T14:44:14Z</time>
      </trkpt>
      <trkpt lat="45.75862" lon="6.19749">
        <ele>805</ele>
        <time>2010-06-13T14:44:23Z</time>
      </trkpt>
      <trkpt lat="45.75867" lon="6.19745">
        <ele>803</ele>
        <time>2010-06-13T14:44:30Z</time>
      </trkpt>
      <trkpt lat="45.75871" lon="6.19741">
        <ele>803</ele>
        <time>2010-06-13T14:44:33Z</time>
      </trkpt>
      <trkpt lat="45.75891" lon="6.1973">
        <ele>801</ele>
        <time>2010-06-13T14:44:42Z</time>
      </trkpt>
      <trkpt lat="45.75899" lon="6.19723">
        <ele>801</ele>
        <time>2010-06-13T14:44:48Z</time>
      </trkpt>
      <trkpt lat="45.75903" lon="6.19717">
        <ele>800</ele>
        <time>2010-06-13T14:44:57Z</time>
      </trkpt>
      <trkpt lat="45.75906" lon="6.19715">
        <ele>800</ele>
        <time>2010-06-13T14:45:17Z</time>
      </trkpt>
      <trkpt lat="45.75913" lon="6.1971">
        <ele>799</ele>
        <time>2010-06-13T14:46:44Z</time>
      </trkpt>
      <trkpt lat="45.75913" lon="6.19709">
        <ele>799</ele>
        <time>2010-06-13T14:46:46Z</time>
      </trkpt>
      <trkpt lat="45.75917" lon="6.19704">
        <ele>797</ele>
        <time>2010-06-13T14:46:53Z</time>
      </trkpt>
      <trkpt lat="45.75918" lon="6.19701">
        <ele>797</ele>
        <time>2010-06-13T14:46:56Z</time>
      </trkpt>
      <trkpt lat="45.75918" lon="6.19694">
        <ele>797</ele>
        <time>2010-06-13T14:47:01Z</time>
      </trkpt>
      <trkpt lat="45.7592" lon="6.19688">
        <ele>795</ele>
        <time>2010-06-13T14:47:09Z</time>
      </trkpt>
      <trkpt lat="45.75921" lon="6.19688">
        <ele>795</ele>
        <time>2010-06-13T14:47:10Z</time>
      </trkpt>
      <trkpt lat="45.75927" lon="6.19691">
        <ele>794</ele>
        <time>2010-06-13T14:47:16Z</time>
      </trkpt>
      <trkpt lat="45.75931" lon="6.19696">
        <ele>793</ele>
        <time>2010-06-13T14:47:22Z</time>
      </trkpt>
      <trkpt lat="45.75936" lon="6.19703">
        <ele>792</ele>
        <time>2010-06-13T14:47:27Z</time>
      </trkpt>
      <trkpt lat="45.7594" lon="6.19706">
        <ele>791</ele>
        <time>2010-06-13T14:47:35Z</time>
      </trkpt>
      <trkpt lat="45.75946" lon="6.19707">
        <ele>791</ele>
        <time>2010-06-13T14:47:47Z</time>
      </trkpt>
      <trkpt lat="45.75942" lon="6.1971">
        <ele>791</ele>
        <time>2010-06-13T14:47:59Z</time>
      </trkpt>
      <trkpt lat="45.75938" lon="6.19716">
        <ele>790</ele>
        <time>2010-06-13T14:48:08Z</time>
      </trkpt>
      <trkpt lat="45.75935" lon="6.19722">
        <ele>789</ele>
        <time>2010-06-13T14:48:19Z</time>
      </trkpt>
      <trkpt lat="45.75932" lon="6.19732">
        <ele>788</ele>
        <time>2010-06-13T14:48:28Z</time>
      </trkpt>
      <trkpt lat="45.7593" lon="6.19744">
        <ele>786</ele>
        <time>2010-06-13T14:48:37Z</time>
      </trkpt>
      <trkpt lat="45.75925" lon="6.19758">
        <ele>785</ele>
        <time>2010-06-13T14:48:44Z</time>
      </trkpt>
      <trkpt lat="45.75917" lon="6.19766">
        <ele>784</ele>
        <time>2010-06-13T14:48:52Z</time>
      </trkpt>
      <trkpt lat="45.75915" lon="6.19772">
        <ele>784</ele>
        <time>2010-06-13T14:49:01Z</time>
      </trkpt>
      <trkpt lat="45.75928" lon="6.1978">
        <ele>783</ele>
        <time>2010-06-13T14:49:07Z</time>
      </trkpt>
      <trkpt lat="45.75945" lon="6.19781">
        <ele>783</ele>
        <time>2010-06-13T14:49:13Z</time>
      </trkpt>
      <trkpt lat="45.75966" lon="6.19784">
        <ele>781</ele>
        <time>2010-06-13T14:49:23Z</time>
      </trkpt>
      <trkpt lat="45.75973" lon="6.19794">
        <ele>780</ele>
        <time>2010-06-13T14:49:35Z</time>
      </trkpt>
      <trkpt lat="45.7598" lon="6.19802">
        <ele>779</ele>
        <time>2010-06-13T14:49:44Z</time>
      </trkpt>
      <trkpt lat="45.75983" lon="6.19801">
        <ele>779</ele>
        <time>2010-06-13T14:49:51Z</time>
      </trkpt>
      <trkpt lat="45.75983" lon="6.19793">
        <ele>778</ele>
        <time>2010-06-13T14:49:57Z</time>
      </trkpt>
      <trkpt lat="45.7598" lon="6.19779">
        <ele>776</ele>
        <time>2010-06-13T14:50:06Z</time>
      </trkpt>
      <trkpt lat="45.75978" lon="6.19774">
        <ele>776</ele>
        <time>2010-06-13T14:50:10Z</time>
      </trkpt>
      <trkpt lat="45.75976" lon="6.19762">
        <ele>775</ele>
        <time>2010-06-13T14:50:18Z</time>
      </trkpt>
      <trkpt lat="45.75975" lon="6.19751">
        <ele>775</ele>
        <time>2010-06-13T14:50:26Z</time>
      </trkpt>
      <trkpt lat="45.75985" lon="6.1974">
        <ele>775</ele>
        <time>2010-06-13T14:50:37Z</time>
      </trkpt>
      <trkpt lat="45.7599" lon="6.19732">
        <ele>775</ele>
        <time>2010-06-13T14:50:47Z</time>
      </trkpt>
      <trkpt lat="45.75993" lon="6.19731">
        <ele>774</ele>
        <time>2010-06-13T14:50:56Z</time>
      </trkpt>
      <trkpt lat="45.75996" lon="6.19728">
        <ele>774</ele>
        <time>2010-06-13T14:51:06Z</time>
      </trkpt>
      <trkpt lat="45.75993" lon="6.19725">
        <ele>774</ele>
        <time>2010-06-13T14:51:16Z</time>
      </trkpt>
      <trkpt lat="45.75995" lon="6.19726">
        <ele>774</ele>
        <time>2010-06-13T14:51:30Z</time>
      </trkpt>
      <trkpt lat="45.75996" lon="6.19725">
        <ele>774</ele>
        <time>2010-06-13T14:51:37Z</time>
      </trkpt>
      <trkpt lat="45.75996" lon="6.19723">
        <ele>772</ele>
        <time>2010-06-13T14:51:45Z</time>
      </trkpt>
      <trkpt lat="45.75999" lon="6.19719">
        <ele>771</ele>
        <time>2010-06-13T14:51:54Z</time>
      </trkpt>
      <trkpt lat="45.76" lon="6.19718">
        <ele>771</ele>
        <time>2010-06-13T14:51:55Z</time>
      </trkpt>
      <trkpt lat="45.76008" lon="6.19713">
        <ele>769</ele>
        <time>2010-06-13T14:52:04Z</time>
      </trkpt>
      <trkpt lat="45.76014" lon="6.19705">
        <ele>767</ele>
        <time>2010-06-13T14:52:13Z</time>
      </trkpt>
      <trkpt lat="45.76022" lon="6.1969">
        <ele>765</ele>
        <time>2010-06-13T14:52:22Z</time>
      </trkpt>
      <trkpt lat="45.76022" lon="6.19688">
        <ele>766</ele>
        <time>2010-06-13T14:52:23Z</time>
      </trkpt>
      <trkpt lat="45.76021" lon="6.19672">
        <ele>764</ele>
        <time>2010-06-13T14:52:32Z</time>
      </trkpt>
      <trkpt lat="45.76013" lon="6.19655">
        <ele>762</ele>
        <time>2010-06-13T14:52:44Z</time>
      </trkpt>
      <trkpt lat="45.7601" lon="6.19644">
        <ele>761</ele>
        <time>2010-06-13T14:52:54Z</time>
      </trkpt>
      <trkpt lat="45.76009" lon="6.19642">
        <ele>761</ele>
        <time>2010-06-13T14:53:02Z</time>
      </trkpt>
      <trkpt lat="45.76011" lon="6.19644">
        <ele>760</ele>
        <time>2010-06-13T14:53:08Z</time>
      </trkpt>
      <trkpt lat="45.76021" lon="6.1965">
        <ele>758</ele>
        <time>2010-06-13T14:53:16Z</time>
      </trkpt>
      <trkpt lat="45.76031" lon="6.19656">
        <ele>757</ele>
        <time>2010-06-13T14:53:23Z</time>
      </trkpt>
      <trkpt lat="45.76044" lon="6.19663">
        <ele>756</ele>
        <time>2010-06-13T14:53:32Z</time>
      </trkpt>
      <trkpt lat="45.7605" lon="6.19668">
        <ele>754</ele>
        <time>2010-06-13T14:53:39Z</time>
      </trkpt>
      <trkpt lat="45.7606" lon="6.19674">
        <ele>753</ele>
        <time>2010-06-13T14:53:48Z</time>
      </trkpt>
      <trkpt lat="45.76069" lon="6.19678">
        <ele>751</ele>
        <time>2010-06-13T14:53:56Z</time>
      </trkpt>
      <trkpt lat="45.7607" lon="6.19682">
        <ele>750</ele>
        <time>2010-06-13T14:54:02Z</time>
      </trkpt>
      <trkpt lat="45.76076" lon="6.19687">
        <ele>748</ele>
        <time>2010-06-13T14:54:10Z</time>
      </trkpt>
      <trkpt lat="45.76085" lon="6.19692">
        <ele>746</ele>
        <time>2010-06-13T14:54:17Z</time>
      </trkpt>
      <trkpt lat="45.76086" lon="6.19693">
        <ele>746</ele>
        <time>2010-06-13T14:54:18Z</time>
      </trkpt>
      <trkpt lat="45.76101" lon="6.19694">
        <ele>745</ele>
        <time>2010-06-13T14:54:27Z</time>
      </trkpt>
      <trkpt lat="45.76105" lon="6.19695">
        <ele>743</ele>
        <time>2010-06-13T14:54:30Z</time>
      </trkpt>
      <trkpt lat="45.7611" lon="6.19694">
        <ele>741</ele>
        <time>2010-06-13T14:54:34Z</time>
      </trkpt>
      <trkpt lat="45.7612" lon="6.19695">
        <ele>740</ele>
        <time>2010-06-13T14:54:42Z</time>
      </trkpt>
      <trkpt lat="45.7613" lon="6.19702">
        <ele>738</ele>
        <time>2010-06-13T14:54:51Z</time>
      </trkpt>
      <trkpt lat="45.76135" lon="6.19706">
        <ele>738</ele>
        <time>2010-06-13T14:54:55Z</time>
      </trkpt>
      <trkpt lat="45.7614" lon="6.1971">
        <ele>737</ele>
        <time>2010-06-13T14:55:01Z</time>
      </trkpt>
      <trkpt lat="45.76149" lon="6.19716">
        <ele>735</ele>
        <time>2010-06-13T14:55:08Z</time>
      </trkpt>
      <trkpt lat="45.76159" lon="6.19721">
        <ele>733</ele>
        <time>2010-06-13T14:55:17Z</time>
      </trkpt>
      <trkpt lat="45.76168" lon="6.19724">
        <ele>733</ele>
        <time>2010-06-13T14:55:24Z</time>
      </trkpt>
      <trkpt lat="45.7617" lon="6.19726">
        <ele>731</ele>
        <time>2010-06-13T14:55:27Z</time>
      </trkpt>
      <trkpt lat="45.76174" lon="6.19731">
        <ele>730</ele>
        <time>2010-06-13T14:55:34Z</time>
      </trkpt>
      <trkpt lat="45.76182" lon="6.19735">
        <ele>729</ele>
        <time>2010-06-13T14:55:40Z</time>
      </trkpt>
      <trkpt lat="45.76186" lon="6.19739">
        <ele>728</ele>
        <time>2010-06-13T14:55:47Z</time>
      </trkpt>
      <trkpt lat="45.76192" lon="6.19746">
        <ele>727</ele>
        <time>2010-06-13T14:55:55Z</time>
      </trkpt>
      <trkpt lat="45.76195" lon="6.19748">
        <ele>727</ele>
        <time>2010-06-13T14:55:59Z</time>
      </trkpt>
      <trkpt lat="45.76199" lon="6.1975">
        <ele>727</ele>
        <time>2010-06-13T14:56:02Z</time>
      </trkpt>
      <trkpt lat="45.7622" lon="6.19747">
        <ele>726</ele>
        <time>2010-06-13T14:56:11Z</time>
      </trkpt>
      <trkpt lat="45.76229" lon="6.19746">
        <ele>724</ele>
        <time>2010-06-13T14:56:17Z</time>
      </trkpt>
      <trkpt lat="45.76236" lon="6.19743">
        <ele>723</ele>
        <time>2010-06-13T14:56:23Z</time>
      </trkpt>
      <trkpt lat="45.76247" lon="6.1974">
        <ele>722</ele>
        <time>2010-06-13T14:56:32Z</time>
      </trkpt>
      <trkpt lat="45.76258" lon="6.19741">
        <ele>720</ele>
        <time>2010-06-13T14:56:41Z</time>
      </trkpt>
      <trkpt lat="45.76266" lon="6.19745">
        <ele>718</ele>
        <time>2010-06-13T14:56:49Z</time>
      </trkpt>
      <trkpt lat="45.76272" lon="6.19743">
        <ele>717</ele>
        <time>2010-06-13T14:56:54Z</time>
      </trkpt>
      <trkpt lat="45.76273" lon="6.19739">
        <ele>715</ele>
        <time>2010-06-13T14:56:59Z</time>
      </trkpt>
      <trkpt lat="45.76273" lon="6.1973">
        <ele>714</ele>
        <time>2010-06-13T14:57:06Z</time>
      </trkpt>
      <trkpt lat="45.76273" lon="6.19721">
        <ele>714</ele>
        <time>2010-06-13T14:57:11Z</time>
      </trkpt>
      <trkpt lat="45.76272" lon="6.19707">
        <ele>713</ele>
        <time>2010-06-13T14:57:18Z</time>
      </trkpt>
      <trkpt lat="45.76273" lon="6.19703">
        <ele>712</ele>
        <time>2010-06-13T14:57:21Z</time>
      </trkpt>
      <trkpt lat="45.76273" lon="6.19689">
        <ele>712</ele>
        <time>2010-06-13T14:57:30Z</time>
      </trkpt>
      <trkpt lat="45.76268" lon="6.19675">
        <ele>711</ele>
        <time>2010-06-13T14:57:38Z</time>
      </trkpt>
      <trkpt lat="45.76265" lon="6.19665">
        <ele>711</ele>
        <time>2010-06-13T14:57:46Z</time>
      </trkpt>
      <trkpt lat="45.76259" lon="6.19656">
        <ele>710</ele>
        <time>2010-06-13T14:57:53Z</time>
      </trkpt>
      <trkpt lat="45.76257" lon="6.19648">
        <ele>711</ele>
        <time>2010-06-13T14:57:59Z</time>
      </trkpt>
      <trkpt lat="45.76253" lon="6.19632">
        <ele>711</ele>
        <time>2010-06-13T14:58:08Z</time>
      </trkpt>
      <trkpt lat="45.76247" lon="6.19616">
        <ele>712</ele>
        <time>2010-06-13T14:58:16Z</time>
      </trkpt>
      <trkpt lat="45.76235" lon="6.19601">
        <ele>711</ele>
        <time>2010-06-13T14:58:26Z</time>
      </trkpt>
      <trkpt lat="45.76225" lon="6.19589">
        <ele>712</ele>
        <time>2010-06-13T14:58:36Z</time>
      </trkpt>
      <trkpt lat="45.76213" lon="6.1958">
        <ele>712</ele>
        <time>2010-06-13T14:58:44Z</time>
      </trkpt>
      <trkpt lat="45.76203" lon="6.19578">
        <ele>712</ele>
        <time>2010-06-13T14:58:52Z</time>
      </trkpt>
      <trkpt lat="45.76195" lon="6.1957">
        <ele>712</ele>
        <time>2010-06-13T14:59:00Z</time>
      </trkpt>
      <trkpt lat="45.76189" lon="6.19564">
        <ele>712</ele>
        <time>2010-06-13T14:59:06Z</time>
      </trkpt>
      <trkpt lat="45.76184" lon="6.19555">
        <ele>712</ele>
        <time>2010-06-13T14:59:14Z</time>
      </trkpt>
      <trkpt lat="45.76184" lon="6.19548">
        <ele>712</ele>
        <time>2010-06-13T14:59:23Z</time>
      </trkpt>
      <trkpt lat="45.76184" lon="6.19546">
        <ele>712</ele>
        <time>2010-06-13T14:59:30Z</time>
      </trkpt>
      <trkpt lat="45.76185" lon="6.19545">
        <ele>712</ele>
        <time>2010-06-13T14:59:32Z</time>
      </trkpt>
      <trkpt lat="45.76188" lon="6.19539">
        <ele>711</ele>
        <time>2010-06-13T14:59:42Z</time>
      </trkpt>
      <trkpt lat="45.76196" lon="6.19534">
        <ele>711</ele>
        <time>2010-06-13T14:59:49Z</time>
      </trkpt>
      <trkpt lat="45.76205" lon="6.19527">
        <ele>710</ele>
        <time>2010-06-13T14:59:58Z</time>
      </trkpt>
      <trkpt lat="45.76213" lon="6.19522">
        <ele>709</ele>
        <time>2010-06-13T15:00:03Z</time>
      </trkpt>
      <trkpt lat="45.76214" lon="6.19507">
        <ele>708</ele>
        <time>2010-06-13T15:00:14Z</time>
      </trkpt>
      <trkpt lat="45.76219" lon="6.19485">
        <ele>707</ele>
        <time>2010-06-13T15:00:25Z</time>
      </trkpt>
      <trkpt lat="45.76218" lon="6.1948">
        <ele>705</ele>
        <time>2010-06-13T15:00:30Z</time>
      </trkpt>
      <trkpt lat="45.76219" lon="6.19472">
        <ele>703</ele>
        <time>2010-06-13T15:00:39Z</time>
      </trkpt>
      <trkpt lat="45.76221" lon="6.1947">
        <ele>704</ele>
        <time>2010-06-13T15:00:42Z</time>
      </trkpt>
      <trkpt lat="45.76227" lon="6.19468">
        <ele>702</ele>
        <time>2010-06-13T15:00:47Z</time>
      </trkpt>
      <trkpt lat="45.76232" lon="6.19473">
        <ele>701</ele>
        <time>2010-06-13T15:00:54Z</time>
      </trkpt>
      <trkpt lat="45.76234" lon="6.19476">
        <ele>700</ele>
        <time>2010-06-13T15:00:57Z</time>
      </trkpt>
      <trkpt lat="45.76243" lon="6.19494">
        <ele>699</ele>
        <time>2010-06-13T15:01:07Z</time>
      </trkpt>
      <trkpt lat="45.76239" lon="6.19499">
        <ele>698</ele>
        <time>2010-06-13T15:01:13Z</time>
      </trkpt>
    </trkseg>
  </trk>
</gpx>